<?xml version="1.0" encoding="UTF-8" standalone="no" ?>
<gpx xmlns="http://www.topografix.com/GPX/1/1" xmlns:xsi="http://www.w3.org/2001/XMLSchema-instance" xsi:schemaLocation="http://www.topografix.com/GPX/1/1 http://www.topografix.com/GPX/1/1/gpx.xsd" version="1.1" creator="VisuGPX - https://www.visugpx.com">
  <metadata>
    <name>20180910104621-8bzTP</name>
    <desc><![CDATA[Boucle St Auban Gars Pont des Mujouls Gars Briançonnet St Auban
En partie validée jusqu'au deuxième passage sur Gars]]></desc>
  </metadata>
  <trk>
    <name><![CDATA[20180910104621-8bzTP]]></name>
    <trkseg>
      <trkpt lat="43.84705" lon="6.72834">
        <ele>1034.6</ele>
        <time>2018-09-09T06:43:21Z</time>
      </trkpt>
      <trkpt lat="43.84705" lon="6.72834">
        <ele>1034.6</ele>
        <time>2018-09-09T06:43:22Z</time>
      </trkpt>
      <trkpt lat="43.84703" lon="6.72848">
        <ele>1033.3</ele>
        <time>2018-09-09T06:43:33Z</time>
      </trkpt>
      <trkpt lat="43.8471" lon="6.7286">
        <ele>1031.8</ele>
        <time>2018-09-09T06:43:37Z</time>
      </trkpt>
      <trkpt lat="43.84723" lon="6.72882">
        <ele>1031</ele>
        <time>2018-09-09T06:43:44Z</time>
      </trkpt>
      <trkpt lat="43.84733" lon="6.72907">
        <ele>1031</ele>
        <time>2018-09-09T06:43:50Z</time>
      </trkpt>
      <trkpt lat="43.84744" lon="6.72928">
        <ele>1031.1</ele>
        <time>2018-09-09T06:43:54Z</time>
      </trkpt>
      <trkpt lat="43.84758" lon="6.72952">
        <ele>1031.2</ele>
        <time>2018-09-09T06:43:58Z</time>
      </trkpt>
      <trkpt lat="43.8477" lon="6.7297">
        <ele>1031.3</ele>
        <time>2018-09-09T06:44:01Z</time>
      </trkpt>
      <trkpt lat="43.84784" lon="6.7299">
        <ele>1031.5</ele>
        <time>2018-09-09T06:44:04Z</time>
      </trkpt>
      <trkpt lat="43.84799" lon="6.73012">
        <ele>1031.5</ele>
        <time>2018-09-09T06:44:07Z</time>
      </trkpt>
      <trkpt lat="43.84814" lon="6.73037">
        <ele>1031.5</ele>
        <time>2018-09-09T06:44:10Z</time>
      </trkpt>
      <trkpt lat="43.8483" lon="6.73063">
        <ele>1031.9</ele>
        <time>2018-09-09T06:44:13Z</time>
      </trkpt>
      <trkpt lat="43.8485" lon="6.73086">
        <ele>1028.3</ele>
        <time>2018-09-09T06:44:16Z</time>
      </trkpt>
      <trkpt lat="43.84865" lon="6.73097">
        <ele>1025</ele>
        <time>2018-09-09T06:44:18Z</time>
      </trkpt>
      <trkpt lat="43.84885" lon="6.73105">
        <ele>1020</ele>
        <time>2018-09-09T06:44:21Z</time>
      </trkpt>
      <trkpt lat="43.84897" lon="6.73132">
        <ele>1020</ele>
        <time>2018-09-09T06:44:25Z</time>
      </trkpt>
      <trkpt lat="43.84886" lon="6.73151">
        <ele>1020.2</ele>
        <time>2018-09-09T06:44:28Z</time>
      </trkpt>
      <trkpt lat="43.84868" lon="6.73153">
        <ele>1020.4</ele>
        <time>2018-09-09T06:44:31Z</time>
      </trkpt>
      <trkpt lat="43.84849" lon="6.73155">
        <ele>1020.6</ele>
        <time>2018-09-09T06:44:35Z</time>
      </trkpt>
      <trkpt lat="43.84829" lon="6.73157">
        <ele>1020.2</ele>
        <time>2018-09-09T06:44:41Z</time>
      </trkpt>
      <trkpt lat="43.8481" lon="6.73156">
        <ele>1019.5</ele>
        <time>2018-09-09T06:44:46Z</time>
      </trkpt>
      <trkpt lat="43.84789" lon="6.73154">
        <ele>1019.4</ele>
        <time>2018-09-09T06:44:52Z</time>
      </trkpt>
      <trkpt lat="43.84768" lon="6.73155">
        <ele>1020.5</ele>
        <time>2018-09-09T06:44:57Z</time>
      </trkpt>
      <trkpt lat="43.84753" lon="6.73168">
        <ele>1021.2</ele>
        <time>2018-09-09T06:45:02Z</time>
      </trkpt>
      <trkpt lat="43.84743" lon="6.73191">
        <ele>1021.2</ele>
        <time>2018-09-09T06:45:08Z</time>
      </trkpt>
      <trkpt lat="43.84735" lon="6.73217">
        <ele>1021.3</ele>
        <time>2018-09-09T06:45:14Z</time>
      </trkpt>
      <trkpt lat="43.84727" lon="6.73243">
        <ele>1021.5</ele>
        <time>2018-09-09T06:45:20Z</time>
      </trkpt>
      <trkpt lat="43.84718" lon="6.73265">
        <ele>1021.9</ele>
        <time>2018-09-09T06:45:25Z</time>
      </trkpt>
      <trkpt lat="43.84707" lon="6.7329">
        <ele>1022.8</ele>
        <time>2018-09-09T06:45:31Z</time>
      </trkpt>
      <trkpt lat="43.84699" lon="6.73316">
        <ele>1023.7</ele>
        <time>2018-09-09T06:45:37Z</time>
      </trkpt>
      <trkpt lat="43.84691" lon="6.73339">
        <ele>1024.3</ele>
        <time>2018-09-09T06:45:42Z</time>
      </trkpt>
      <trkpt lat="43.84685" lon="6.73362">
        <ele>1024.5</ele>
        <time>2018-09-09T06:45:47Z</time>
      </trkpt>
      <trkpt lat="43.8468" lon="6.73388">
        <ele>1024.6</ele>
        <time>2018-09-09T06:45:52Z</time>
      </trkpt>
      <trkpt lat="43.84674" lon="6.73414">
        <ele>1024.8</ele>
        <time>2018-09-09T06:45:57Z</time>
      </trkpt>
      <trkpt lat="43.84669" lon="6.7344">
        <ele>1025.2</ele>
        <time>2018-09-09T06:46:02Z</time>
      </trkpt>
      <trkpt lat="43.84663" lon="6.73467">
        <ele>1025.7</ele>
        <time>2018-09-09T06:46:07Z</time>
      </trkpt>
      <trkpt lat="43.84652" lon="6.73491">
        <ele>1026.3</ele>
        <time>2018-09-09T06:46:11Z</time>
      </trkpt>
      <trkpt lat="43.84645" lon="6.73514">
        <ele>1026.7</ele>
        <time>2018-09-09T06:46:15Z</time>
      </trkpt>
      <trkpt lat="43.84636" lon="6.73541">
        <ele>1027.2</ele>
        <time>2018-09-09T06:46:20Z</time>
      </trkpt>
      <trkpt lat="43.84627" lon="6.73568">
        <ele>1027.9</ele>
        <time>2018-09-09T06:46:25Z</time>
      </trkpt>
      <trkpt lat="43.84617" lon="6.73594">
        <ele>1029</ele>
        <time>2018-09-09T06:46:30Z</time>
      </trkpt>
      <trkpt lat="43.84607" lon="6.73616">
        <ele>1029.7</ele>
        <time>2018-09-09T06:46:34Z</time>
      </trkpt>
      <trkpt lat="43.84594" lon="6.7364">
        <ele>1029.5</ele>
        <time>2018-09-09T06:46:39Z</time>
      </trkpt>
      <trkpt lat="43.84581" lon="6.73663">
        <ele>1029.1</ele>
        <time>2018-09-09T06:46:44Z</time>
      </trkpt>
      <trkpt lat="43.84569" lon="6.73684">
        <ele>1029.2</ele>
        <time>2018-09-09T06:46:49Z</time>
      </trkpt>
      <trkpt lat="43.84555" lon="6.73704">
        <ele>1030.4</ele>
        <time>2018-09-09T06:46:54Z</time>
      </trkpt>
      <trkpt lat="43.84539" lon="6.73726">
        <ele>1031.3</ele>
        <time>2018-09-09T06:46:59Z</time>
      </trkpt>
      <trkpt lat="43.84526" lon="6.73746">
        <ele>1031.8</ele>
        <time>2018-09-09T06:47:03Z</time>
      </trkpt>
      <trkpt lat="43.84509" lon="6.73764">
        <ele>1032.4</ele>
        <time>2018-09-09T06:47:08Z</time>
      </trkpt>
      <trkpt lat="43.84492" lon="6.73779">
        <ele>1033.3</ele>
        <time>2018-09-09T06:47:13Z</time>
      </trkpt>
      <trkpt lat="43.84486" lon="6.73788">
        <ele>1033.5</ele>
        <time>2018-09-09T06:47:15Z</time>
      </trkpt>
      <trkpt lat="43.84482" lon="6.73815">
        <ele>1033.9</ele>
        <time>2018-09-09T06:47:20Z</time>
      </trkpt>
      <trkpt lat="43.84482" lon="6.7382">
        <ele>1034</ele>
        <time>2018-09-09T06:47:21Z</time>
      </trkpt>
      <trkpt lat="43.84482" lon="6.73846">
        <ele>1035.2</ele>
        <time>2018-09-09T06:47:26Z</time>
      </trkpt>
      <trkpt lat="43.84476" lon="6.73873">
        <ele>1037.6</ele>
        <time>2018-09-09T06:47:32Z</time>
      </trkpt>
      <trkpt lat="43.84464" lon="6.73896">
        <ele>1038.3</ele>
        <time>2018-09-09T06:47:38Z</time>
      </trkpt>
      <trkpt lat="43.84455" lon="6.73922">
        <ele>1039.4</ele>
        <time>2018-09-09T06:47:43Z</time>
      </trkpt>
      <trkpt lat="43.84445" lon="6.73949">
        <ele>1041</ele>
        <time>2018-09-09T06:47:48Z</time>
      </trkpt>
      <trkpt lat="43.84437" lon="6.73971">
        <ele>1043.7</ele>
        <time>2018-09-09T06:47:52Z</time>
      </trkpt>
      <trkpt lat="43.84431" lon="6.73995">
        <ele>1047.1</ele>
        <time>2018-09-09T06:47:56Z</time>
      </trkpt>
      <trkpt lat="43.84425" lon="6.74023">
        <ele>1049.6</ele>
        <time>2018-09-09T06:48:01Z</time>
      </trkpt>
      <trkpt lat="43.84419" lon="6.7405">
        <ele>1051.6</ele>
        <time>2018-09-09T06:48:06Z</time>
      </trkpt>
      <trkpt lat="43.84414" lon="6.74077">
        <ele>1051.6</ele>
        <time>2018-09-09T06:48:11Z</time>
      </trkpt>
      <trkpt lat="43.8441" lon="6.74108">
        <ele>1051.1</ele>
        <time>2018-09-09T06:48:16Z</time>
      </trkpt>
      <trkpt lat="43.84408" lon="6.74134">
        <ele>1050.7</ele>
        <time>2018-09-09T06:48:20Z</time>
      </trkpt>
      <trkpt lat="43.84406" lon="6.7416">
        <ele>1050.1</ele>
        <time>2018-09-09T06:48:24Z</time>
      </trkpt>
      <trkpt lat="43.84399" lon="6.74185">
        <ele>1049.4</ele>
        <time>2018-09-09T06:48:28Z</time>
      </trkpt>
      <trkpt lat="43.8439" lon="6.74206">
        <ele>1048.3</ele>
        <time>2018-09-09T06:48:32Z</time>
      </trkpt>
      <trkpt lat="43.84377" lon="6.74226">
        <ele>1047</ele>
        <time>2018-09-09T06:48:36Z</time>
      </trkpt>
      <trkpt lat="43.84363" lon="6.74246">
        <ele>1045.9</ele>
        <time>2018-09-09T06:48:40Z</time>
      </trkpt>
      <trkpt lat="43.84351" lon="6.74264">
        <ele>1045</ele>
        <time>2018-09-09T06:48:44Z</time>
      </trkpt>
      <trkpt lat="43.84337" lon="6.7428">
        <ele>1043.5</ele>
        <time>2018-09-09T06:48:48Z</time>
      </trkpt>
      <trkpt lat="43.84321" lon="6.74298">
        <ele>1041.1</ele>
        <time>2018-09-09T06:48:53Z</time>
      </trkpt>
      <trkpt lat="43.84306" lon="6.74314">
        <ele>1039.2</ele>
        <time>2018-09-09T06:48:58Z</time>
      </trkpt>
      <trkpt lat="43.84292" lon="6.74331">
        <ele>1037</ele>
        <time>2018-09-09T06:49:03Z</time>
      </trkpt>
      <trkpt lat="43.8428" lon="6.74353">
        <ele>1033</ele>
        <time>2018-09-09T06:49:08Z</time>
      </trkpt>
      <trkpt lat="43.84265" lon="6.74374">
        <ele>1033</ele>
        <time>2018-09-09T06:49:13Z</time>
      </trkpt>
      <trkpt lat="43.84246" lon="6.74389">
        <ele>1032.9</ele>
        <time>2018-09-09T06:49:18Z</time>
      </trkpt>
      <trkpt lat="43.84228" lon="6.74396">
        <ele>1033.1</ele>
        <time>2018-09-09T06:49:22Z</time>
      </trkpt>
      <trkpt lat="43.84208" lon="6.74402">
        <ele>1033.7</ele>
        <time>2018-09-09T06:49:26Z</time>
      </trkpt>
      <trkpt lat="43.84187" lon="6.74409">
        <ele>1034.4</ele>
        <time>2018-09-09T06:49:30Z</time>
      </trkpt>
      <trkpt lat="43.84167" lon="6.74416">
        <ele>1034.8</ele>
        <time>2018-09-09T06:49:34Z</time>
      </trkpt>
      <trkpt lat="43.8415" lon="6.74424">
        <ele>1035.4</ele>
        <time>2018-09-09T06:49:38Z</time>
      </trkpt>
      <trkpt lat="43.8413" lon="6.74434">
        <ele>1035.8</ele>
        <time>2018-09-09T06:49:43Z</time>
      </trkpt>
      <trkpt lat="43.84111" lon="6.74447">
        <ele>1036.1</ele>
        <time>2018-09-09T06:49:48Z</time>
      </trkpt>
      <trkpt lat="43.84091" lon="6.74459">
        <ele>1036.3</ele>
        <time>2018-09-09T06:49:53Z</time>
      </trkpt>
      <trkpt lat="43.84071" lon="6.74468">
        <ele>1036.6</ele>
        <time>2018-09-09T06:49:58Z</time>
      </trkpt>
      <trkpt lat="43.84054" lon="6.74477">
        <ele>1036.8</ele>
        <time>2018-09-09T06:50:02Z</time>
      </trkpt>
      <trkpt lat="43.84034" lon="6.74487">
        <ele>1037.5</ele>
        <time>2018-09-09T06:50:07Z</time>
      </trkpt>
      <trkpt lat="43.84016" lon="6.74495">
        <ele>1038.6</ele>
        <time>2018-09-09T06:50:11Z</time>
      </trkpt>
      <trkpt lat="43.83995" lon="6.74505">
        <ele>1040</ele>
        <time>2018-09-09T06:50:16Z</time>
      </trkpt>
      <trkpt lat="43.83976" lon="6.74512">
        <ele>1041.3</ele>
        <time>2018-09-09T06:50:21Z</time>
      </trkpt>
      <trkpt lat="43.83956" lon="6.74518">
        <ele>1042.3</ele>
        <time>2018-09-09T06:50:27Z</time>
      </trkpt>
      <trkpt lat="43.83937" lon="6.74519">
        <ele>1042.9</ele>
        <time>2018-09-09T06:50:34Z</time>
      </trkpt>
      <trkpt lat="43.83919" lon="6.74513">
        <ele>1043.1</ele>
        <time>2018-09-09T06:50:41Z</time>
      </trkpt>
      <trkpt lat="43.839" lon="6.74509">
        <ele>1043.1</ele>
        <time>2018-09-09T06:50:46Z</time>
      </trkpt>
      <trkpt lat="43.83882" lon="6.74502">
        <ele>1043.1</ele>
        <time>2018-09-09T06:50:51Z</time>
      </trkpt>
      <trkpt lat="43.83862" lon="6.74497">
        <ele>1043</ele>
        <time>2018-09-09T06:50:56Z</time>
      </trkpt>
      <trkpt lat="43.83844" lon="6.74493">
        <ele>1042.5</ele>
        <time>2018-09-09T06:51:00Z</time>
      </trkpt>
      <trkpt lat="43.83826" lon="6.7449">
        <ele>1041.9</ele>
        <time>2018-09-09T06:51:04Z</time>
      </trkpt>
      <trkpt lat="43.83803" lon="6.74487">
        <ele>1041.2</ele>
        <time>2018-09-09T06:51:09Z</time>
      </trkpt>
      <trkpt lat="43.83793" lon="6.74489">
        <ele>1040.7</ele>
        <time>2018-09-09T06:51:11Z</time>
      </trkpt>
      <trkpt lat="43.83789" lon="6.74509">
        <ele>1041.4</ele>
        <time>2018-09-09T06:51:16Z</time>
      </trkpt>
      <trkpt lat="43.83806" lon="6.7451">
        <ele>1042.8</ele>
        <time>2018-09-09T06:51:21Z</time>
      </trkpt>
      <trkpt lat="43.83825" lon="6.7451">
        <ele>1044.1</ele>
        <time>2018-09-09T06:51:28Z</time>
      </trkpt>
      <trkpt lat="43.83844" lon="6.7451">
        <ele>1045.9</ele>
        <time>2018-09-09T06:51:36Z</time>
      </trkpt>
      <trkpt lat="43.83862" lon="6.74513">
        <ele>1047.1</ele>
        <time>2018-09-09T06:51:44Z</time>
      </trkpt>
      <trkpt lat="43.83879" lon="6.7453">
        <ele>1048.7</ele>
        <time>2018-09-09T06:51:52Z</time>
      </trkpt>
      <trkpt lat="43.8389" lon="6.74551">
        <ele>1050</ele>
        <time>2018-09-09T06:51:58Z</time>
      </trkpt>
      <trkpt lat="43.83899" lon="6.74575">
        <ele>1051.2</ele>
        <time>2018-09-09T06:52:05Z</time>
      </trkpt>
      <trkpt lat="43.83909" lon="6.74597">
        <ele>1052.3</ele>
        <time>2018-09-09T06:52:13Z</time>
      </trkpt>
      <trkpt lat="43.83912" lon="6.74599">
        <ele>1052.5</ele>
        <time>2018-09-09T06:52:15Z</time>
      </trkpt>
      <trkpt lat="43.83915" lon="6.74601">
        <ele>1052.7</ele>
        <time>2018-09-09T06:52:18Z</time>
      </trkpt>
      <trkpt lat="43.83917" lon="6.74613">
        <ele>1053.1</ele>
        <time>2018-09-09T06:52:26Z</time>
      </trkpt>
      <trkpt lat="43.83924" lon="6.74637">
        <ele>1054.1</ele>
        <time>2018-09-09T06:52:35Z</time>
      </trkpt>
      <trkpt lat="43.83929" lon="6.74662">
        <ele>1055.7</ele>
        <time>2018-09-09T06:52:44Z</time>
      </trkpt>
      <trkpt lat="43.83934" lon="6.74687">
        <ele>1057.5</ele>
        <time>2018-09-09T06:52:54Z</time>
      </trkpt>
      <trkpt lat="43.83938" lon="6.74687">
        <ele>1057.8</ele>
        <time>2018-09-09T06:52:56Z</time>
      </trkpt>
      <trkpt lat="43.83939" lon="6.74669">
        <ele>1058.8</ele>
        <time>2018-09-09T06:53:38Z</time>
      </trkpt>
      <trkpt lat="43.83944" lon="6.74694">
        <ele>1060</ele>
        <time>2018-09-09T06:53:48Z</time>
      </trkpt>
      <trkpt lat="43.83952" lon="6.74718">
        <ele>1061.1</ele>
        <time>2018-09-09T06:53:56Z</time>
      </trkpt>
      <trkpt lat="43.83954" lon="6.74722">
        <ele>1061.3</ele>
        <time>2018-09-09T06:54:00Z</time>
      </trkpt>
      <trkpt lat="43.83973" lon="6.74744">
        <ele>1063.2</ele>
        <time>2018-09-09T06:55:51Z</time>
      </trkpt>
      <trkpt lat="43.83977" lon="6.74769">
        <ele>1064.6</ele>
        <time>2018-09-09T06:55:58Z</time>
      </trkpt>
      <trkpt lat="43.83984" lon="6.74793">
        <ele>1066.4</ele>
        <time>2018-09-09T06:56:06Z</time>
      </trkpt>
      <trkpt lat="43.83989" lon="6.74821">
        <ele>1068.1</ele>
        <time>2018-09-09T06:56:14Z</time>
      </trkpt>
      <trkpt lat="43.83997" lon="6.74848">
        <ele>1069.6</ele>
        <time>2018-09-09T06:56:24Z</time>
      </trkpt>
      <trkpt lat="43.84004" lon="6.74873">
        <ele>1071.4</ele>
        <time>2018-09-09T06:56:34Z</time>
      </trkpt>
      <trkpt lat="43.84005" lon="6.74875">
        <ele>1071.5</ele>
        <time>2018-09-09T06:56:35Z</time>
      </trkpt>
      <trkpt lat="43.84012" lon="6.74898">
        <ele>1072.5</ele>
        <time>2018-09-09T06:56:41Z</time>
      </trkpt>
      <trkpt lat="43.84024" lon="6.74919">
        <ele>1073.6</ele>
        <time>2018-09-09T06:56:48Z</time>
      </trkpt>
      <trkpt lat="43.84029" lon="6.7493">
        <ele>1087</ele>
      </trkpt>
      <trkpt lat="43.84033" lon="6.74944">
        <ele>1086.8</ele>
      </trkpt>
      <trkpt lat="43.8404" lon="6.74965">
        <ele>1086.7</ele>
      </trkpt>
      <trkpt lat="43.84042" lon="6.74978">
        <ele>1087</ele>
      </trkpt>
      <trkpt lat="43.84047" lon="6.75002">
        <ele>1091.4</ele>
      </trkpt>
      <trkpt lat="43.84049" lon="6.75022">
        <ele>1091.7</ele>
      </trkpt>
      <trkpt lat="43.84044" lon="6.75044">
        <ele>1093.7</ele>
      </trkpt>
      <trkpt lat="43.84038" lon="6.7506">
        <ele>1095.5</ele>
      </trkpt>
      <trkpt lat="43.84038" lon="6.75088">
        <ele>1100.7</ele>
      </trkpt>
      <trkpt lat="43.84043" lon="6.75119">
        <ele>1100.5</ele>
      </trkpt>
      <trkpt lat="43.84047" lon="6.75147">
        <ele>1100.9</ele>
      </trkpt>
      <trkpt lat="43.84051" lon="6.75174">
        <ele>1105.2</ele>
      </trkpt>
      <trkpt lat="43.84052" lon="6.75197">
        <ele>1106.5</ele>
      </trkpt>
      <trkpt lat="43.84055" lon="6.75226">
        <ele>1107.3</ele>
      </trkpt>
      <trkpt lat="43.84056" lon="6.75247">
        <ele>1106.9</ele>
      </trkpt>
      <trkpt lat="43.84056" lon="6.75275">
        <ele>1112.1</ele>
      </trkpt>
      <trkpt lat="43.84055" lon="6.753">
        <ele>1113.5</ele>
      </trkpt>
      <trkpt lat="43.84053" lon="6.7532">
        <ele>1113.7</ele>
      </trkpt>
      <trkpt lat="43.84048" lon="6.75346">
        <ele>1117.3</ele>
      </trkpt>
      <trkpt lat="43.84044" lon="6.75369">
        <ele>1118.8</ele>
      </trkpt>
      <trkpt lat="43.84038" lon="6.75398">
        <ele>1120.4</ele>
      </trkpt>
      <trkpt lat="43.84033" lon="6.7542">
        <ele>1122</ele>
      </trkpt>
      <trkpt lat="43.84029" lon="6.75438">
        <ele>1122.2</ele>
      </trkpt>
      <trkpt lat="43.84023" lon="6.75465">
        <ele>1122.4</ele>
      </trkpt>
      <trkpt lat="43.84015" lon="6.75489">
        <ele>1125.5</ele>
      </trkpt>
      <trkpt lat="43.84006" lon="6.75517">
        <ele>1124.7</ele>
      </trkpt>
      <trkpt lat="43.83997" lon="6.75535">
        <ele>1131.7</ele>
      </trkpt>
      <trkpt lat="43.83989" lon="6.75556">
        <ele>1131</ele>
      </trkpt>
      <trkpt lat="43.83985" lon="6.75579">
        <ele>1130.3</ele>
      </trkpt>
      <trkpt lat="43.83983" lon="6.75599">
        <ele>1128.6</ele>
      </trkpt>
      <trkpt lat="43.83981" lon="6.75625">
        <ele>1128.2</ele>
      </trkpt>
      <trkpt lat="43.83975" lon="6.75654">
        <ele>1127.7</ele>
      </trkpt>
      <trkpt lat="43.83967" lon="6.75679">
        <ele>1127.4</ele>
      </trkpt>
      <trkpt lat="43.83963" lon="6.75701">
        <ele>1127.6</ele>
      </trkpt>
      <trkpt lat="43.83958" lon="6.75719">
        <ele>1127.9</ele>
      </trkpt>
      <trkpt lat="43.83957" lon="6.75737">
        <ele>1128.2</ele>
      </trkpt>
      <trkpt lat="43.83955" lon="6.75758">
        <ele>1130.7</ele>
      </trkpt>
      <trkpt lat="43.83955" lon="6.75781">
        <ele>1131.9</ele>
        <time>2018-09-09T07:03:45Z</time>
      </trkpt>
      <trkpt lat="43.8395" lon="6.75807">
        <ele>1133.6</ele>
        <time>2018-09-09T07:03:57Z</time>
      </trkpt>
      <trkpt lat="43.83947" lon="6.75833">
        <ele>1135.5</ele>
        <time>2018-09-09T07:04:09Z</time>
      </trkpt>
      <trkpt lat="43.83945" lon="6.75859">
        <ele>1137.5</ele>
        <time>2018-09-09T07:04:21Z</time>
      </trkpt>
      <trkpt lat="43.83944" lon="6.75885">
        <ele>1139.5</ele>
        <time>2018-09-09T07:04:30Z</time>
      </trkpt>
      <trkpt lat="43.83947" lon="6.7591">
        <ele>1141.1</ele>
        <time>2018-09-09T07:04:39Z</time>
      </trkpt>
      <trkpt lat="43.83949" lon="6.75936">
        <ele>1142.4</ele>
        <time>2018-09-09T07:04:47Z</time>
      </trkpt>
      <trkpt lat="43.83952" lon="6.75964">
        <ele>1143.8</ele>
        <time>2018-09-09T07:04:57Z</time>
      </trkpt>
      <trkpt lat="43.83951" lon="6.75992">
        <ele>1150</ele>
        <time>2018-09-09T07:05:05Z</time>
      </trkpt>
      <trkpt lat="43.83949" lon="6.76019">
        <ele>1154.7</ele>
        <time>2018-09-09T07:05:13Z</time>
      </trkpt>
      <trkpt lat="43.83944" lon="6.76046">
        <ele>1158.5</ele>
        <time>2018-09-09T07:05:20Z</time>
      </trkpt>
      <trkpt lat="43.8394" lon="6.76075">
        <ele>1161.2</ele>
        <time>2018-09-09T07:05:27Z</time>
      </trkpt>
      <trkpt lat="43.8394" lon="6.76105">
        <ele>1163.6</ele>
        <time>2018-09-09T07:05:34Z</time>
      </trkpt>
      <trkpt lat="43.8394" lon="6.76133">
        <ele>1165.1</ele>
        <time>2018-09-09T07:05:39Z</time>
      </trkpt>
      <trkpt lat="43.83936" lon="6.7616">
        <ele>1167.4</ele>
        <time>2018-09-09T07:05:45Z</time>
      </trkpt>
      <trkpt lat="43.83937" lon="6.76188">
        <ele>1169.4</ele>
        <time>2018-09-09T07:05:53Z</time>
      </trkpt>
      <trkpt lat="43.83938" lon="6.76213">
        <ele>1171.1</ele>
        <time>2018-09-09T07:06:02Z</time>
      </trkpt>
      <trkpt lat="43.83937" lon="6.7624">
        <ele>1172.7</ele>
        <time>2018-09-09T07:06:10Z</time>
      </trkpt>
      <trkpt lat="43.83938" lon="6.76266">
        <ele>1174.1</ele>
        <time>2018-09-09T07:06:18Z</time>
      </trkpt>
      <trkpt lat="43.83939" lon="6.76292">
        <ele>1175.5</ele>
        <time>2018-09-09T07:06:27Z</time>
      </trkpt>
      <trkpt lat="43.83941" lon="6.76318">
        <ele>1176.6</ele>
        <time>2018-09-09T07:06:35Z</time>
      </trkpt>
      <trkpt lat="43.83941" lon="6.76346">
        <ele>1177.8</ele>
        <time>2018-09-09T07:06:44Z</time>
      </trkpt>
      <trkpt lat="43.83942" lon="6.76373">
        <ele>1179.1</ele>
        <time>2018-09-09T07:06:54Z</time>
      </trkpt>
      <trkpt lat="43.83944" lon="6.76399">
        <ele>1180.3</ele>
        <time>2018-09-09T07:07:01Z</time>
      </trkpt>
      <trkpt lat="43.83945" lon="6.76426">
        <ele>1182</ele>
        <time>2018-09-09T07:07:11Z</time>
      </trkpt>
      <trkpt lat="43.83945" lon="6.76453">
        <ele>1183.6</ele>
        <time>2018-09-09T07:07:20Z</time>
      </trkpt>
      <trkpt lat="43.83945" lon="6.76481">
        <ele>1185.7</ele>
        <time>2018-09-09T07:07:29Z</time>
      </trkpt>
      <trkpt lat="43.83952" lon="6.76506">
        <ele>1187.7</ele>
        <time>2018-09-09T07:07:38Z</time>
      </trkpt>
      <trkpt lat="43.83954" lon="6.76534">
        <ele>1189.3</ele>
        <time>2018-09-09T07:07:47Z</time>
      </trkpt>
      <trkpt lat="43.83956" lon="6.76561">
        <ele>1190.4</ele>
        <time>2018-09-09T07:07:55Z</time>
      </trkpt>
      <trkpt lat="43.83958" lon="6.76587">
        <ele>1191.7</ele>
        <time>2018-09-09T07:08:03Z</time>
      </trkpt>
      <trkpt lat="43.83959" lon="6.76613">
        <ele>1193.2</ele>
        <time>2018-09-09T07:08:11Z</time>
      </trkpt>
      <trkpt lat="43.83961" lon="6.76639">
        <ele>1194.6</ele>
        <time>2018-09-09T07:08:20Z</time>
      </trkpt>
      <trkpt lat="43.83965" lon="6.76665">
        <ele>1196</ele>
        <time>2018-09-09T07:08:28Z</time>
      </trkpt>
      <trkpt lat="43.83966" lon="6.76693">
        <ele>1197.1</ele>
        <time>2018-09-09T07:08:36Z</time>
      </trkpt>
      <trkpt lat="43.83971" lon="6.7672">
        <ele>1198.2</ele>
        <time>2018-09-09T07:08:44Z</time>
      </trkpt>
      <trkpt lat="43.83978" lon="6.76745">
        <ele>1199.5</ele>
        <time>2018-09-09T07:08:51Z</time>
      </trkpt>
      <trkpt lat="43.83985" lon="6.7677">
        <ele>1201</ele>
        <time>2018-09-09T07:09:01Z</time>
      </trkpt>
      <trkpt lat="43.83994" lon="6.76794">
        <ele>1202.3</ele>
        <time>2018-09-09T07:09:10Z</time>
      </trkpt>
      <trkpt lat="43.84003" lon="6.76816">
        <ele>1203.9</ele>
        <time>2018-09-09T07:09:19Z</time>
      </trkpt>
      <trkpt lat="43.84007" lon="6.76837">
        <ele>1205.1</ele>
        <time>2018-09-09T07:09:29Z</time>
      </trkpt>
      <trkpt lat="43.84013" lon="6.7685">
        <ele>1206.2</ele>
        <time>2018-09-09T07:09:36Z</time>
      </trkpt>
      <trkpt lat="43.84022" lon="6.76879">
        <ele>1209.9</ele>
        <time>2018-09-09T07:09:50Z</time>
      </trkpt>
      <trkpt lat="43.84026" lon="6.76903">
        <ele>1213.6</ele>
        <time>2018-09-09T07:10:01Z</time>
      </trkpt>
      <trkpt lat="43.84034" lon="6.76916">
        <ele>1216.1</ele>
        <time>2018-09-09T07:10:09Z</time>
      </trkpt>
      <trkpt lat="43.84036" lon="6.76945">
        <ele>1231</ele>
      </trkpt>
      <trkpt lat="43.84037" lon="6.7697">
        <ele>1232</ele>
      </trkpt>
      <trkpt lat="43.84037" lon="6.76991">
        <ele>1232.2</ele>
        <time>2018-09-09T07:11:33Z</time>
      </trkpt>
      <trkpt lat="43.84039" lon="6.77002">
        <ele>1231.6</ele>
        <time>2018-09-09T07:11:38Z</time>
      </trkpt>
      <trkpt lat="43.84042" lon="6.7701">
        <ele>1231.2</ele>
        <time>2018-09-09T07:11:42Z</time>
      </trkpt>
      <trkpt lat="43.84047" lon="6.77034">
        <ele>1230.2</ele>
        <time>2018-09-09T07:11:51Z</time>
      </trkpt>
      <trkpt lat="43.84049" lon="6.77043">
        <ele>1229.9</ele>
        <time>2018-09-09T07:11:55Z</time>
      </trkpt>
      <trkpt lat="43.84048" lon="6.77043">
        <ele>1229.9</ele>
        <time>2018-09-09T07:11:57Z</time>
      </trkpt>
      <trkpt lat="43.84043" lon="6.77038">
        <ele>1230.2</ele>
        <time>2018-09-09T07:12:01Z</time>
      </trkpt>
      <trkpt lat="43.84029" lon="6.77024">
        <ele>1231.3</ele>
        <time>2018-09-09T07:12:11Z</time>
      </trkpt>
      <trkpt lat="43.84014" lon="6.77007">
        <ele>1232.8</ele>
        <time>2018-09-09T07:12:20Z</time>
      </trkpt>
      <trkpt lat="43.83999" lon="6.76992">
        <ele>1234.2</ele>
        <time>2018-09-09T07:12:27Z</time>
      </trkpt>
      <trkpt lat="43.83983" lon="6.76974">
        <ele>1235.3</ele>
        <time>2018-09-09T07:12:35Z</time>
      </trkpt>
      <trkpt lat="43.83972" lon="6.76955">
        <ele>1236.3</ele>
        <time>2018-09-09T07:12:43Z</time>
      </trkpt>
      <trkpt lat="43.83961" lon="6.76934">
        <ele>1237.6</ele>
        <time>2018-09-09T07:12:53Z</time>
      </trkpt>
      <trkpt lat="43.83949" lon="6.76915">
        <ele>1238.9</ele>
        <time>2018-09-09T07:13:00Z</time>
      </trkpt>
      <trkpt lat="43.83936" lon="6.769">
        <ele>1242.9</ele>
        <time>2018-09-09T07:13:07Z</time>
      </trkpt>
      <trkpt lat="43.83938" lon="6.76925">
        <ele>1245.3</ele>
        <time>2018-09-09T07:13:18Z</time>
      </trkpt>
      <trkpt lat="43.83944" lon="6.76952">
        <ele>1248.1</ele>
        <time>2018-09-09T07:13:27Z</time>
      </trkpt>
      <trkpt lat="43.83949" lon="6.76976">
        <ele>1250.2</ele>
        <time>2018-09-09T07:13:35Z</time>
      </trkpt>
      <trkpt lat="43.83954" lon="6.77002">
        <ele>1252.5</ele>
        <time>2018-09-09T07:13:44Z</time>
      </trkpt>
      <trkpt lat="43.83961" lon="6.77027">
        <ele>1253.9</ele>
        <time>2018-09-09T07:13:51Z</time>
      </trkpt>
      <trkpt lat="43.8397" lon="6.77048">
        <ele>1255.1</ele>
        <time>2018-09-09T07:14:00Z</time>
      </trkpt>
      <trkpt lat="43.83982" lon="6.77069">
        <ele>1256.5</ele>
        <time>2018-09-09T07:14:09Z</time>
      </trkpt>
      <trkpt lat="43.83994" lon="6.77092">
        <ele>1259</ele>
        <time>2018-09-09T07:14:17Z</time>
      </trkpt>
      <trkpt lat="43.84006" lon="6.77113">
        <ele>1260.7</ele>
        <time>2018-09-09T07:14:23Z</time>
      </trkpt>
      <trkpt lat="43.84017" lon="6.77139">
        <ele>1261.6</ele>
        <time>2018-09-09T07:14:29Z</time>
      </trkpt>
      <trkpt lat="43.84027" lon="6.77167">
        <ele>1262.6</ele>
        <time>2018-09-09T07:14:35Z</time>
      </trkpt>
      <trkpt lat="43.84034" lon="6.77192">
        <ele>1263.7</ele>
        <time>2018-09-09T07:14:40Z</time>
      </trkpt>
      <trkpt lat="43.84041" lon="6.7722">
        <ele>1264.3</ele>
        <time>2018-09-09T07:14:46Z</time>
      </trkpt>
      <trkpt lat="43.8405" lon="6.77242">
        <ele>1264.7</ele>
        <time>2018-09-09T07:14:51Z</time>
      </trkpt>
      <trkpt lat="43.84063" lon="6.77268">
        <ele>1265</ele>
        <time>2018-09-09T07:14:56Z</time>
      </trkpt>
      <trkpt lat="43.84076" lon="6.77292">
        <ele>1265.4</ele>
        <time>2018-09-09T07:15:00Z</time>
      </trkpt>
      <trkpt lat="43.84089" lon="6.77319">
        <ele>1266</ele>
        <time>2018-09-09T07:15:04Z</time>
      </trkpt>
      <trkpt lat="43.84091" lon="6.77326">
        <ele>1266.1</ele>
        <time>2018-09-09T07:15:05Z</time>
      </trkpt>
      <trkpt lat="43.84099" lon="6.77354">
        <ele>1266.9</ele>
        <time>2018-09-09T07:15:10Z</time>
      </trkpt>
      <trkpt lat="43.84103" lon="6.77381">
        <ele>1267.4</ele>
        <time>2018-09-09T07:15:16Z</time>
      </trkpt>
      <trkpt lat="43.84101" lon="6.7741">
        <ele>1267.6</ele>
        <time>2018-09-09T07:15:26Z</time>
      </trkpt>
      <trkpt lat="43.84092" lon="6.77432">
        <ele>1267.5</ele>
        <time>2018-09-09T07:15:35Z</time>
      </trkpt>
      <trkpt lat="43.84088" lon="6.77458">
        <ele>1266.2</ele>
        <time>2018-09-09T07:15:43Z</time>
      </trkpt>
      <trkpt lat="43.8409" lon="6.77461">
        <ele>1266.1</ele>
        <time>2018-09-09T07:15:44Z</time>
      </trkpt>
      <trkpt lat="43.84099" lon="6.77463">
        <ele>1267.6</ele>
        <time>2018-09-09T07:15:48Z</time>
      </trkpt>
      <trkpt lat="43.84117" lon="6.77455">
        <ele>1271.9</ele>
        <time>2018-09-09T07:15:58Z</time>
      </trkpt>
      <trkpt lat="43.84135" lon="6.77458">
        <ele>1275.9</ele>
        <time>2018-09-09T07:16:08Z</time>
      </trkpt>
      <trkpt lat="43.84153" lon="6.77457">
        <ele>1279.6</ele>
        <time>2018-09-09T07:16:17Z</time>
      </trkpt>
      <trkpt lat="43.84172" lon="6.7746">
        <ele>1283</ele>
        <time>2018-09-09T07:16:27Z</time>
      </trkpt>
      <trkpt lat="43.84191" lon="6.77454">
        <ele>1285.9</ele>
        <time>2018-09-09T07:16:37Z</time>
      </trkpt>
      <trkpt lat="43.8421" lon="6.7745">
        <ele>1288.4</ele>
        <time>2018-09-09T07:16:45Z</time>
      </trkpt>
      <trkpt lat="43.84229" lon="6.77447">
        <ele>1290.4</ele>
        <time>2018-09-09T07:16:53Z</time>
      </trkpt>
      <trkpt lat="43.84247" lon="6.77435">
        <ele>1292</ele>
        <time>2018-09-09T07:17:00Z</time>
      </trkpt>
      <trkpt lat="43.84268" lon="6.77436">
        <ele>1294.5</ele>
        <time>2018-09-09T07:17:07Z</time>
      </trkpt>
      <trkpt lat="43.84285" lon="6.77445">
        <ele>1296.5</ele>
        <time>2018-09-09T07:17:13Z</time>
      </trkpt>
      <trkpt lat="43.84301" lon="6.77456">
        <ele>1298</ele>
        <time>2018-09-09T07:17:19Z</time>
      </trkpt>
      <trkpt lat="43.8432" lon="6.77461">
        <ele>1299.3</ele>
        <time>2018-09-09T07:17:26Z</time>
      </trkpt>
      <trkpt lat="43.84336" lon="6.77477">
        <ele>1300.6</ele>
        <time>2018-09-09T07:17:33Z</time>
      </trkpt>
      <trkpt lat="43.84349" lon="6.77496">
        <ele>1302.2</ele>
        <time>2018-09-09T07:17:40Z</time>
      </trkpt>
      <trkpt lat="43.84367" lon="6.77504">
        <ele>1303</ele>
        <time>2018-09-09T07:17:50Z</time>
      </trkpt>
      <trkpt lat="43.84371" lon="6.77522">
        <ele>1301</ele>
        <time>2018-09-09T07:19:57Z</time>
      </trkpt>
      <trkpt lat="43.84379" lon="6.77547">
        <ele>1298.7</ele>
        <time>2018-09-09T07:20:01Z</time>
      </trkpt>
      <trkpt lat="43.84387" lon="6.77572">
        <ele>1295.6</ele>
        <time>2018-09-09T07:20:04Z</time>
      </trkpt>
      <trkpt lat="43.84399" lon="6.77598">
        <ele>1291.9</ele>
        <time>2018-09-09T07:20:07Z</time>
      </trkpt>
      <trkpt lat="43.84411" lon="6.77623">
        <ele>1287.3</ele>
        <time>2018-09-09T07:20:10Z</time>
      </trkpt>
      <trkpt lat="43.84424" lon="6.77648">
        <ele>1283.8</ele>
        <time>2018-09-09T07:20:13Z</time>
      </trkpt>
      <trkpt lat="43.84437" lon="6.77677">
        <ele>1280.4</ele>
        <time>2018-09-09T07:20:16Z</time>
      </trkpt>
      <trkpt lat="43.8445" lon="6.77707">
        <ele>1276.8</ele>
        <time>2018-09-09T07:20:19Z</time>
      </trkpt>
      <trkpt lat="43.84469" lon="6.77723">
        <ele>1272.9</ele>
        <time>2018-09-09T07:20:22Z</time>
      </trkpt>
      <trkpt lat="43.8449" lon="6.7773">
        <ele>1270.6</ele>
        <time>2018-09-09T07:20:25Z</time>
      </trkpt>
      <trkpt lat="43.84509" lon="6.77734">
        <ele>1268.1</ele>
        <time>2018-09-09T07:20:28Z</time>
      </trkpt>
      <trkpt lat="43.84523" lon="6.77746">
        <ele>1265.8</ele>
        <time>2018-09-09T07:20:31Z</time>
      </trkpt>
      <trkpt lat="43.84525" lon="6.77751">
        <ele>1265.3</ele>
        <time>2018-09-09T07:20:32Z</time>
      </trkpt>
      <trkpt lat="43.8452" lon="6.77774">
        <ele>1270.9</ele>
        <time>2018-09-09T07:20:37Z</time>
      </trkpt>
      <trkpt lat="43.84502" lon="6.7777">
        <ele>1280.6</ele>
        <time>2018-09-09T07:20:40Z</time>
      </trkpt>
      <trkpt lat="43.84497" lon="6.77772">
        <ele>1283.1</ele>
        <time>2018-09-09T07:20:41Z</time>
      </trkpt>
      <trkpt lat="43.84494" lon="6.77777">
        <ele>1284.5</ele>
        <time>2018-09-09T07:20:42Z</time>
      </trkpt>
      <trkpt lat="43.84493" lon="6.77792">
        <ele>1286</ele>
        <time>2018-09-09T07:20:46Z</time>
      </trkpt>
      <trkpt lat="43.84497" lon="6.77818">
        <ele>1284.9</ele>
        <time>2018-09-09T07:20:52Z</time>
      </trkpt>
      <trkpt lat="43.84498" lon="6.77847">
        <ele>1283.7</ele>
        <time>2018-09-09T07:20:58Z</time>
      </trkpt>
      <trkpt lat="43.845" lon="6.77876">
        <ele>1281.9</ele>
        <time>2018-09-09T07:21:03Z</time>
      </trkpt>
      <trkpt lat="43.84507" lon="6.77901">
        <ele>1280.5</ele>
        <time>2018-09-09T07:21:08Z</time>
      </trkpt>
      <trkpt lat="43.84514" lon="6.7793">
        <ele>1278.9</ele>
        <time>2018-09-09T07:21:13Z</time>
      </trkpt>
      <trkpt lat="43.84524" lon="6.77954">
        <ele>1276.9</ele>
        <time>2018-09-09T07:21:18Z</time>
      </trkpt>
      <trkpt lat="43.84536" lon="6.77973">
        <ele>1273.2</ele>
        <time>2018-09-09T07:21:22Z</time>
      </trkpt>
      <trkpt lat="43.84547" lon="6.77994">
        <ele>1270.5</ele>
        <time>2018-09-09T07:21:25Z</time>
      </trkpt>
      <trkpt lat="43.84562" lon="6.78014">
        <ele>1267.5</ele>
        <time>2018-09-09T07:21:28Z</time>
      </trkpt>
      <trkpt lat="43.84581" lon="6.78032">
        <ele>1265.6</ele>
        <time>2018-09-09T07:21:30Z</time>
      </trkpt>
      <trkpt lat="43.84603" lon="6.7805">
        <ele>1262.8</ele>
        <time>2018-09-09T07:21:33Z</time>
      </trkpt>
      <trkpt lat="43.84621" lon="6.78063">
        <ele>1260.7</ele>
        <time>2018-09-09T07:21:36Z</time>
      </trkpt>
      <trkpt lat="43.84627" lon="6.78066">
        <ele>1260</ele>
        <time>2018-09-09T07:21:37Z</time>
      </trkpt>
      <trkpt lat="43.84647" lon="6.7807">
        <ele>1257.8</ele>
        <time>2018-09-09T07:21:41Z</time>
      </trkpt>
      <trkpt lat="43.84667" lon="6.78073">
        <ele>1256.3</ele>
        <time>2018-09-09T07:21:46Z</time>
      </trkpt>
      <trkpt lat="43.84684" lon="6.78081">
        <ele>1254.7</ele>
        <time>2018-09-09T07:21:51Z</time>
      </trkpt>
      <trkpt lat="43.84701" lon="6.78098">
        <ele>1253.3</ele>
        <time>2018-09-09T07:21:56Z</time>
      </trkpt>
      <trkpt lat="43.84717" lon="6.78115">
        <ele>1253.1</ele>
        <time>2018-09-09T07:22:01Z</time>
      </trkpt>
      <trkpt lat="43.84731" lon="6.78135">
        <ele>1253.2</ele>
        <time>2018-09-09T07:22:06Z</time>
      </trkpt>
      <trkpt lat="43.84745" lon="6.78148">
        <ele>1253</ele>
        <time>2018-09-09T07:22:10Z</time>
      </trkpt>
      <trkpt lat="43.84772" lon="6.78146">
        <ele>1251</ele>
        <time>2018-09-09T07:22:14Z</time>
      </trkpt>
      <trkpt lat="43.84779" lon="6.78148">
        <ele>1250.5</ele>
        <time>2018-09-09T07:22:15Z</time>
      </trkpt>
      <trkpt lat="43.84797" lon="6.78172">
        <ele>1249.1</ele>
        <time>2018-09-09T07:22:18Z</time>
      </trkpt>
      <trkpt lat="43.84803" lon="6.78182">
        <ele>1248.4</ele>
        <time>2018-09-09T07:22:19Z</time>
      </trkpt>
      <trkpt lat="43.84816" lon="6.78202">
        <ele>1246.1</ele>
        <time>2018-09-09T07:22:21Z</time>
      </trkpt>
      <trkpt lat="43.8483" lon="6.78224">
        <ele>1243.5</ele>
        <time>2018-09-09T07:22:23Z</time>
      </trkpt>
      <trkpt lat="43.84843" lon="6.78251">
        <ele>1241.2</ele>
        <time>2018-09-09T07:22:25Z</time>
      </trkpt>
      <trkpt lat="43.84847" lon="6.78264">
        <ele>1240</ele>
        <time>2018-09-09T07:22:26Z</time>
      </trkpt>
      <trkpt lat="43.84854" lon="6.78293">
        <ele>1237.4</ele>
        <time>2018-09-09T07:22:28Z</time>
      </trkpt>
      <trkpt lat="43.84862" lon="6.78323">
        <ele>1235.4</ele>
        <time>2018-09-09T07:22:30Z</time>
      </trkpt>
      <trkpt lat="43.84871" lon="6.78353">
        <ele>1234.3</ele>
        <time>2018-09-09T07:22:32Z</time>
      </trkpt>
      <trkpt lat="43.84877" lon="6.78386">
        <ele>1233.1</ele>
        <time>2018-09-09T07:22:34Z</time>
      </trkpt>
      <trkpt lat="43.84885" lon="6.78418">
        <ele>1231.4</ele>
        <time>2018-09-09T07:22:36Z</time>
      </trkpt>
      <trkpt lat="43.8489" lon="6.78433">
        <ele>1230.6</ele>
        <time>2018-09-09T07:22:37Z</time>
      </trkpt>
      <trkpt lat="43.84898" lon="6.78458">
        <ele>1229.6</ele>
        <time>2018-09-09T07:22:39Z</time>
      </trkpt>
      <trkpt lat="43.8491" lon="6.78482">
        <ele>1228.6</ele>
        <time>2018-09-09T07:22:42Z</time>
      </trkpt>
      <trkpt lat="43.84915" lon="6.78488">
        <ele>1228.3</ele>
        <time>2018-09-09T07:22:43Z</time>
      </trkpt>
      <trkpt lat="43.84931" lon="6.78506">
        <ele>1227.2</ele>
        <time>2018-09-09T07:22:46Z</time>
      </trkpt>
      <trkpt lat="43.84944" lon="6.78526">
        <ele>1226.2</ele>
        <time>2018-09-09T07:22:49Z</time>
      </trkpt>
      <trkpt lat="43.84958" lon="6.78549">
        <ele>1225</ele>
        <time>2018-09-09T07:22:52Z</time>
      </trkpt>
      <trkpt lat="43.8497" lon="6.78574">
        <ele>1224.2</ele>
        <time>2018-09-09T07:22:55Z</time>
      </trkpt>
      <trkpt lat="43.84991" lon="6.78585">
        <ele>1222.6</ele>
        <time>2018-09-09T07:22:58Z</time>
      </trkpt>
      <trkpt lat="43.85007" lon="6.78583">
        <ele>1221.8</ele>
        <time>2018-09-09T07:23:01Z</time>
      </trkpt>
      <trkpt lat="43.85027" lon="6.78579">
        <ele>1220</ele>
        <time>2018-09-09T07:23:05Z</time>
      </trkpt>
      <trkpt lat="43.85042" lon="6.78575">
        <ele>1217.9</ele>
        <time>2018-09-09T07:23:08Z</time>
      </trkpt>
      <trkpt lat="43.85059" lon="6.78566">
        <ele>1214.3</ele>
        <time>2018-09-09T07:23:12Z</time>
      </trkpt>
      <trkpt lat="43.85077" lon="6.78549">
        <ele>1210.1</ele>
        <time>2018-09-09T07:23:17Z</time>
      </trkpt>
      <trkpt lat="43.85091" lon="6.78526">
        <ele>1205.5</ele>
        <time>2018-09-09T07:23:23Z</time>
      </trkpt>
      <trkpt lat="43.85091" lon="6.78526">
        <ele>1205.5</ele>
        <time>2018-09-09T07:23:24Z</time>
      </trkpt>
      <trkpt lat="43.85098" lon="6.7855">
        <ele>1206.6</ele>
        <time>2018-09-09T07:23:29Z</time>
      </trkpt>
      <trkpt lat="43.85109" lon="6.78572">
        <ele>1205.9</ele>
        <time>2018-09-09T07:23:33Z</time>
      </trkpt>
      <trkpt lat="43.85109" lon="6.78597">
        <ele>1203.4</ele>
        <time>2018-09-09T07:23:37Z</time>
      </trkpt>
      <trkpt lat="43.85109" lon="6.78605">
        <ele>1204.1</ele>
        <time>2018-09-09T07:23:38Z</time>
      </trkpt>
      <trkpt lat="43.85115" lon="6.78633">
        <ele>1205.6</ele>
        <time>2018-09-09T07:23:42Z</time>
      </trkpt>
      <trkpt lat="43.85114" lon="6.78638">
        <ele>1205.5</ele>
        <time>2018-09-09T07:23:45Z</time>
      </trkpt>
      <trkpt lat="43.85117" lon="6.78649">
        <ele>1205.2</ele>
        <time>2018-09-09T07:24:13Z</time>
      </trkpt>
      <trkpt lat="43.85124" lon="6.78659">
        <ele>1204.3</ele>
        <time>2018-09-09T07:24:16Z</time>
      </trkpt>
      <trkpt lat="43.85125" lon="6.78646">
        <ele>1203.3</ele>
        <time>2018-09-09T07:24:21Z</time>
      </trkpt>
      <trkpt lat="43.85128" lon="6.78649">
        <ele>1202.8</ele>
        <time>2018-09-09T07:24:25Z</time>
      </trkpt>
      <trkpt lat="43.85139" lon="6.78679">
        <ele>1198.1</ele>
        <time>2018-09-09T07:24:30Z</time>
      </trkpt>
      <trkpt lat="43.85147" lon="6.78704">
        <ele>1193.2</ele>
        <time>2018-09-09T07:24:33Z</time>
      </trkpt>
      <trkpt lat="43.85157" lon="6.78732">
        <ele>1189.8</ele>
        <time>2018-09-09T07:24:36Z</time>
      </trkpt>
      <trkpt lat="43.85173" lon="6.7875">
        <ele>1185.6</ele>
        <time>2018-09-09T07:24:40Z</time>
      </trkpt>
      <trkpt lat="43.85179" lon="6.78747">
        <ele>1182.6</ele>
        <time>2018-09-09T07:24:45Z</time>
      </trkpt>
      <trkpt lat="43.85183" lon="6.7872">
        <ele>1177</ele>
        <time>2018-09-09T07:24:49Z</time>
      </trkpt>
      <trkpt lat="43.85188" lon="6.78703">
        <ele>1174.8</ele>
        <time>2018-09-09T07:24:51Z</time>
      </trkpt>
      <trkpt lat="43.85189" lon="6.78693">
        <ele>1174.1</ele>
        <time>2018-09-09T07:24:52Z</time>
      </trkpt>
      <trkpt lat="43.85192" lon="6.78664">
        <ele>1168.5</ele>
        <time>2018-09-09T07:24:55Z</time>
      </trkpt>
      <trkpt lat="43.85191" lon="6.78649">
        <ele>1167.7</ele>
        <time>2018-09-09T07:24:57Z</time>
      </trkpt>
      <trkpt lat="43.8519" lon="6.78619">
        <ele>1165.2</ele>
        <time>2018-09-09T07:25:00Z</time>
      </trkpt>
      <trkpt lat="43.85193" lon="6.78594">
        <ele>1161.5</ele>
        <time>2018-09-09T07:25:03Z</time>
      </trkpt>
      <trkpt lat="43.85194" lon="6.78589">
        <ele>1161.9</ele>
        <time>2018-09-09T07:25:04Z</time>
      </trkpt>
      <trkpt lat="43.85194" lon="6.78587">
        <ele>1162.5</ele>
        <time>2018-09-09T07:25:05Z</time>
      </trkpt>
      <trkpt lat="43.85194" lon="6.78603">
        <ele>1161.8</ele>
        <time>2018-09-09T07:25:09Z</time>
      </trkpt>
      <trkpt lat="43.85197" lon="6.78618">
        <ele>1157.2</ele>
        <time>2018-09-09T07:25:11Z</time>
      </trkpt>
      <trkpt lat="43.85213" lon="6.78642">
        <ele>1144.6</ele>
        <time>2018-09-09T07:25:15Z</time>
      </trkpt>
      <trkpt lat="43.85229" lon="6.78664">
        <ele>1137.8</ele>
        <time>2018-09-09T07:25:19Z</time>
      </trkpt>
      <trkpt lat="43.85236" lon="6.78675">
        <ele>1135.9</ele>
        <time>2018-09-09T07:25:21Z</time>
      </trkpt>
      <trkpt lat="43.85241" lon="6.78706">
        <ele>1131.1</ele>
        <time>2018-09-09T07:25:25Z</time>
      </trkpt>
      <trkpt lat="43.85243" lon="6.78714">
        <ele>1131.1</ele>
        <time>2018-09-09T07:25:26Z</time>
      </trkpt>
      <trkpt lat="43.85252" lon="6.78742">
        <ele>1122.5</ele>
        <time>2018-09-09T07:25:30Z</time>
      </trkpt>
      <trkpt lat="43.85255" lon="6.78755">
        <ele>1118</ele>
        <time>2018-09-09T07:25:32Z</time>
      </trkpt>
      <trkpt lat="43.85263" lon="6.78771">
        <ele>1108.7</ele>
        <time>2018-09-09T07:25:35Z</time>
      </trkpt>
      <trkpt lat="43.85281" lon="6.78781">
        <ele>1099.7</ele>
        <time>2018-09-09T07:25:41Z</time>
      </trkpt>
      <trkpt lat="43.85291" lon="6.78807">
        <ele>1092.2</ele>
        <time>2018-09-09T07:25:46Z</time>
      </trkpt>
      <trkpt lat="43.85294" lon="6.78813">
        <ele>1089.7</ele>
        <time>2018-09-09T07:25:47Z</time>
      </trkpt>
      <trkpt lat="43.85304" lon="6.78833">
        <ele>1087.2</ele>
        <time>2018-09-09T07:25:50Z</time>
      </trkpt>
      <trkpt lat="43.85304" lon="6.78858">
        <ele>1088.2</ele>
        <time>2018-09-09T07:25:55Z</time>
      </trkpt>
      <trkpt lat="43.85303" lon="6.78862">
        <ele>1086.3</ele>
        <time>2018-09-09T07:25:59Z</time>
      </trkpt>
      <trkpt lat="43.85311" lon="6.78864">
        <ele>1081.7</ele>
        <time>2018-09-09T07:26:02Z</time>
      </trkpt>
      <trkpt lat="43.85319" lon="6.7885">
        <ele>1079</ele>
        <time>2018-09-09T07:26:08Z</time>
      </trkpt>
      <trkpt lat="43.85318" lon="6.78854">
        <ele>1078.3</ele>
        <time>2018-09-09T07:26:11Z</time>
      </trkpt>
      <trkpt lat="43.85321" lon="6.78872">
        <ele>1076.1</ele>
        <time>2018-09-09T07:26:17Z</time>
      </trkpt>
      <trkpt lat="43.85328" lon="6.7886">
        <ele>1073.2</ele>
        <time>2018-09-09T07:26:21Z</time>
      </trkpt>
      <trkpt lat="43.8533" lon="6.78882">
        <ele>1068.9</ele>
        <time>2018-09-09T07:26:27Z</time>
      </trkpt>
      <trkpt lat="43.85331" lon="6.78879">
        <ele>1068.1</ele>
        <time>2018-09-09T07:26:29Z</time>
      </trkpt>
      <trkpt lat="43.8534" lon="6.78862">
        <ele>1066.2</ele>
        <time>2018-09-09T07:26:36Z</time>
      </trkpt>
      <trkpt lat="43.85349" lon="6.78877">
        <ele>1061.6</ele>
        <time>2018-09-09T07:26:39Z</time>
      </trkpt>
      <trkpt lat="43.85358" lon="6.78891">
        <ele>1056.2</ele>
        <time>2018-09-09T07:26:42Z</time>
      </trkpt>
      <trkpt lat="43.85362" lon="6.78899">
        <ele>1052.4</ele>
        <time>2018-09-09T07:26:50Z</time>
      </trkpt>
      <trkpt lat="43.85366" lon="6.78901">
        <ele>1050.9</ele>
        <time>2018-09-09T07:26:53Z</time>
      </trkpt>
      <trkpt lat="43.85375" lon="6.78886">
        <ele>1047.4</ele>
        <time>2018-09-09T07:26:59Z</time>
      </trkpt>
      <trkpt lat="43.85381" lon="6.78903">
        <ele>1041.1</ele>
        <time>2018-09-09T07:27:02Z</time>
      </trkpt>
      <trkpt lat="43.85393" lon="6.78915">
        <ele>1039.1</ele>
        <time>2018-09-09T07:27:07Z</time>
      </trkpt>
      <trkpt lat="43.85399" lon="6.78893">
        <ele>1031.9</ele>
        <time>2018-09-09T07:27:10Z</time>
      </trkpt>
      <trkpt lat="43.85402" lon="6.78881">
        <ele>1027.6</ele>
        <time>2018-09-09T07:27:14Z</time>
      </trkpt>
      <trkpt lat="43.85411" lon="6.78908">
        <ele>1025</ele>
        <time>2018-09-09T07:27:18Z</time>
      </trkpt>
      <trkpt lat="43.85418" lon="6.78921">
        <ele>1024.7</ele>
        <time>2018-09-09T07:27:22Z</time>
      </trkpt>
      <trkpt lat="43.85423" lon="6.78905">
        <ele>1019.6</ele>
        <time>2018-09-09T07:27:25Z</time>
      </trkpt>
      <trkpt lat="43.85427" lon="6.78879">
        <ele>1011.8</ele>
        <time>2018-09-09T07:27:28Z</time>
      </trkpt>
      <trkpt lat="43.85429" lon="6.7886">
        <ele>1010.4</ele>
        <time>2018-09-09T07:27:31Z</time>
      </trkpt>
      <trkpt lat="43.85436" lon="6.78885">
        <ele>1009.4</ele>
        <time>2018-09-09T07:27:37Z</time>
      </trkpt>
      <trkpt lat="43.85439" lon="6.78894">
        <ele>1008.4</ele>
        <time>2018-09-09T07:27:38Z</time>
      </trkpt>
      <trkpt lat="43.85448" lon="6.7892">
        <ele>1004.1</ele>
        <time>2018-09-09T07:27:41Z</time>
      </trkpt>
      <trkpt lat="43.85451" lon="6.78927">
        <ele>1001.4</ele>
        <time>2018-09-09T07:27:43Z</time>
      </trkpt>
      <trkpt lat="43.85462" lon="6.78907">
        <ele>995.3</ele>
        <time>2018-09-09T07:27:48Z</time>
      </trkpt>
      <trkpt lat="43.85463" lon="6.789">
        <ele>993.7</ele>
        <time>2018-09-09T07:27:49Z</time>
      </trkpt>
      <trkpt lat="43.85467" lon="6.78903">
        <ele>991.8</ele>
        <time>2018-09-09T07:27:54Z</time>
      </trkpt>
      <trkpt lat="43.85475" lon="6.78934">
        <ele>990.1</ele>
        <time>2018-09-09T07:27:58Z</time>
      </trkpt>
      <trkpt lat="43.85482" lon="6.78947">
        <ele>987.4</ele>
        <time>2018-09-09T07:28:03Z</time>
      </trkpt>
      <trkpt lat="43.85491" lon="6.78924">
        <ele>979.8</ele>
        <time>2018-09-09T07:28:07Z</time>
      </trkpt>
      <trkpt lat="43.85498" lon="6.78896">
        <ele>974.8</ele>
        <time>2018-09-09T07:28:11Z</time>
      </trkpt>
      <trkpt lat="43.85503" lon="6.78881">
        <ele>973.9</ele>
        <time>2018-09-09T07:28:16Z</time>
      </trkpt>
      <trkpt lat="43.85513" lon="6.78903">
        <ele>974.2</ele>
        <time>2018-09-09T07:28:21Z</time>
      </trkpt>
      <trkpt lat="43.85528" lon="6.78927">
        <ele>973</ele>
        <time>2018-09-09T07:28:24Z</time>
      </trkpt>
      <trkpt lat="43.85542" lon="6.78953">
        <ele>967.6</ele>
        <time>2018-09-09T07:28:27Z</time>
      </trkpt>
      <trkpt lat="43.85544" lon="6.78978">
        <ele>963.3</ele>
        <time>2018-09-09T07:28:31Z</time>
      </trkpt>
      <trkpt lat="43.85529" lon="6.78996">
        <ele>958.9</ele>
        <time>2018-09-09T07:28:37Z</time>
      </trkpt>
      <trkpt lat="43.85515" lon="6.79003">
        <ele>959</ele>
        <time>2018-09-09T07:28:40Z</time>
      </trkpt>
      <trkpt lat="43.85502" lon="6.79009">
        <ele>961.1</ele>
        <time>2018-09-09T07:28:42Z</time>
      </trkpt>
      <trkpt lat="43.85483" lon="6.79016">
        <ele>963.3</ele>
        <time>2018-09-09T07:28:45Z</time>
      </trkpt>
      <trkpt lat="43.85476" lon="6.7902">
        <ele>963.7</ele>
        <time>2018-09-09T07:28:46Z</time>
      </trkpt>
      <trkpt lat="43.85455" lon="6.79035">
        <ele>965.6</ele>
        <time>2018-09-09T07:28:49Z</time>
      </trkpt>
      <trkpt lat="43.85449" lon="6.7904">
        <ele>966.3</ele>
        <time>2018-09-09T07:28:50Z</time>
      </trkpt>
      <trkpt lat="43.85432" lon="6.79056">
        <ele>968</ele>
        <time>2018-09-09T07:28:53Z</time>
      </trkpt>
      <trkpt lat="43.85412" lon="6.79072">
        <ele>969.6</ele>
        <time>2018-09-09T07:28:56Z</time>
      </trkpt>
      <trkpt lat="43.85402" lon="6.79082">
        <ele>972</ele>
        <time>2018-09-09T07:28:58Z</time>
      </trkpt>
      <trkpt lat="43.8538" lon="6.79094">
        <ele>975.1</ele>
        <time>2018-09-09T07:29:02Z</time>
      </trkpt>
      <trkpt lat="43.85374" lon="6.79118">
        <ele>978.7</ele>
        <time>2018-09-09T07:29:08Z</time>
      </trkpt>
      <trkpt lat="43.85374" lon="6.79123">
        <ele>979.5</ele>
        <time>2018-09-09T07:29:09Z</time>
      </trkpt>
      <trkpt lat="43.85365" lon="6.79145">
        <ele>982.6</ele>
        <time>2018-09-09T07:29:16Z</time>
      </trkpt>
      <trkpt lat="43.85371" lon="6.79152">
        <ele>980.4</ele>
        <time>2018-09-09T07:29:20Z</time>
      </trkpt>
      <trkpt lat="43.85394" lon="6.79168">
        <ele>974.2</ele>
        <time>2018-09-09T07:29:23Z</time>
      </trkpt>
      <trkpt lat="43.85402" lon="6.79174">
        <ele>974.6</ele>
        <time>2018-09-09T07:29:24Z</time>
      </trkpt>
      <trkpt lat="43.85411" lon="6.79181">
        <ele>973.2</ele>
        <time>2018-09-09T07:29:25Z</time>
      </trkpt>
      <trkpt lat="43.8543" lon="6.79199">
        <ele>964.2</ele>
        <time>2018-09-09T07:29:28Z</time>
      </trkpt>
      <trkpt lat="43.85432" lon="6.79204">
        <ele>963.3</ele>
        <time>2018-09-09T07:29:29Z</time>
      </trkpt>
      <trkpt lat="43.85441" lon="6.79227">
        <ele>958.3</ele>
        <time>2018-09-09T07:29:34Z</time>
      </trkpt>
      <trkpt lat="43.85461" lon="6.79244">
        <ele>957.4</ele>
        <time>2018-09-09T07:29:38Z</time>
      </trkpt>
      <trkpt lat="43.85485" lon="6.79266">
        <ele>958.5</ele>
        <time>2018-09-09T07:29:43Z</time>
      </trkpt>
      <trkpt lat="43.85503" lon="6.79283">
        <ele>961.7</ele>
        <time>2018-09-09T07:29:46Z</time>
      </trkpt>
      <trkpt lat="43.85508" lon="6.79288">
        <ele>961.8</ele>
        <time>2018-09-09T07:29:47Z</time>
      </trkpt>
      <trkpt lat="43.85528" lon="6.79302">
        <ele>960.9</ele>
        <time>2018-09-09T07:29:50Z</time>
      </trkpt>
      <trkpt lat="43.85534" lon="6.79306">
        <ele>959.6</ele>
        <time>2018-09-09T07:29:51Z</time>
      </trkpt>
      <trkpt lat="43.85551" lon="6.79319">
        <ele>959.4</ele>
        <time>2018-09-09T07:29:54Z</time>
      </trkpt>
      <trkpt lat="43.85567" lon="6.79333">
        <ele>960.4</ele>
        <time>2018-09-09T07:29:58Z</time>
      </trkpt>
      <trkpt lat="43.85583" lon="6.79349">
        <ele>962.7</ele>
        <time>2018-09-09T07:30:03Z</time>
      </trkpt>
      <trkpt lat="43.85601" lon="6.79355">
        <ele>962.3</ele>
        <time>2018-09-09T07:30:07Z</time>
      </trkpt>
      <trkpt lat="43.85617" lon="6.79369">
        <ele>960.4</ele>
        <time>2018-09-09T07:30:11Z</time>
      </trkpt>
      <trkpt lat="43.85627" lon="6.79377">
        <ele>961.6</ele>
        <time>2018-09-09T07:30:13Z</time>
      </trkpt>
      <trkpt lat="43.85647" lon="6.79386">
        <ele>960.2</ele>
        <time>2018-09-09T07:30:16Z</time>
      </trkpt>
      <trkpt lat="43.85654" lon="6.79387">
        <ele>957.5</ele>
        <time>2018-09-09T07:30:17Z</time>
      </trkpt>
      <trkpt lat="43.85678" lon="6.79395">
        <ele>946.8</ele>
        <time>2018-09-09T07:30:20Z</time>
      </trkpt>
      <trkpt lat="43.85694" lon="6.79397">
        <ele>939.9</ele>
        <time>2018-09-09T07:30:22Z</time>
      </trkpt>
      <trkpt lat="43.85714" lon="6.79399">
        <ele>931</ele>
        <time>2018-09-09T07:30:25Z</time>
      </trkpt>
      <trkpt lat="43.85718" lon="6.79401">
        <ele>929</ele>
        <time>2018-09-09T07:30:26Z</time>
      </trkpt>
      <trkpt lat="43.85728" lon="6.79404">
        <ele>923.5</ele>
        <time>2018-09-09T07:30:29Z</time>
      </trkpt>
      <trkpt lat="43.85747" lon="6.79394">
        <ele>915.5</ele>
        <time>2018-09-09T07:30:34Z</time>
      </trkpt>
      <trkpt lat="43.85766" lon="6.79386">
        <ele>908.1</ele>
        <time>2018-09-09T07:30:37Z</time>
      </trkpt>
      <trkpt lat="43.8578" lon="6.79371">
        <ele>902.3</ele>
        <time>2018-09-09T07:30:40Z</time>
      </trkpt>
      <trkpt lat="43.85792" lon="6.79389">
        <ele>901.8</ele>
        <time>2018-09-09T07:30:45Z</time>
      </trkpt>
      <trkpt lat="43.85806" lon="6.79381">
        <ele>897.4</ele>
        <time>2018-09-09T07:30:50Z</time>
      </trkpt>
      <trkpt lat="43.85824" lon="6.79379">
        <ele>894.4</ele>
        <time>2018-09-09T07:30:55Z</time>
      </trkpt>
      <trkpt lat="43.85829" lon="6.79391">
        <ele>894.3</ele>
        <time>2018-09-09T07:30:57Z</time>
      </trkpt>
      <trkpt lat="43.85833" lon="6.79396">
        <ele>893.8</ele>
        <time>2018-09-09T07:30:59Z</time>
      </trkpt>
      <trkpt lat="43.85851" lon="6.79377">
        <ele>889.2</ele>
        <time>2018-09-09T07:31:03Z</time>
      </trkpt>
      <trkpt lat="43.85863" lon="6.79364">
        <ele>886.8</ele>
        <time>2018-09-09T07:31:06Z</time>
      </trkpt>
      <trkpt lat="43.85872" lon="6.79389">
        <ele>889.3</ele>
        <time>2018-09-09T07:31:10Z</time>
      </trkpt>
      <trkpt lat="43.85876" lon="6.79405">
        <ele>889</ele>
        <time>2018-09-09T07:31:12Z</time>
      </trkpt>
      <trkpt lat="43.8588" lon="6.79409">
        <ele>888</ele>
        <time>2018-09-09T07:31:14Z</time>
      </trkpt>
      <trkpt lat="43.85897" lon="6.79391">
        <ele>883.6</ele>
        <time>2018-09-09T07:31:18Z</time>
      </trkpt>
      <trkpt lat="43.85906" lon="6.79383">
        <ele>884.7</ele>
        <time>2018-09-09T07:31:21Z</time>
      </trkpt>
      <trkpt lat="43.85913" lon="6.7941">
        <ele>885.4</ele>
        <time>2018-09-09T07:31:25Z</time>
      </trkpt>
      <trkpt lat="43.85919" lon="6.79436">
        <ele>884.1</ele>
        <time>2018-09-09T07:31:28Z</time>
      </trkpt>
      <trkpt lat="43.85926" lon="6.79444">
        <ele>882.2</ele>
        <time>2018-09-09T07:31:33Z</time>
      </trkpt>
      <trkpt lat="43.85938" lon="6.79441">
        <ele>879.9</ele>
        <time>2018-09-09T07:31:37Z</time>
      </trkpt>
      <trkpt lat="43.85958" lon="6.79439">
        <ele>875.9</ele>
        <time>2018-09-09T07:31:42Z</time>
      </trkpt>
      <trkpt lat="43.85978" lon="6.79446">
        <ele>871.6</ele>
        <time>2018-09-09T07:31:48Z</time>
      </trkpt>
      <trkpt lat="43.85996" lon="6.79456">
        <ele>867.1</ele>
        <time>2018-09-09T07:31:52Z</time>
      </trkpt>
      <trkpt lat="43.86002" lon="6.7946">
        <ele>865.3</ele>
        <time>2018-09-09T07:31:53Z</time>
      </trkpt>
      <trkpt lat="43.86023" lon="6.79468">
        <ele>859.5</ele>
        <time>2018-09-09T07:31:56Z</time>
      </trkpt>
      <trkpt lat="43.86028" lon="6.79471">
        <ele>858</ele>
        <time>2018-09-09T07:31:57Z</time>
      </trkpt>
      <trkpt lat="43.86048" lon="6.79484">
        <ele>851.5</ele>
        <time>2018-09-09T07:32:01Z</time>
      </trkpt>
      <trkpt lat="43.86061" lon="6.7951">
        <ele>844</ele>
        <time>2018-09-09T07:32:05Z</time>
      </trkpt>
      <trkpt lat="43.8607" lon="6.79535">
        <ele>836</ele>
        <time>2018-09-09T07:32:08Z</time>
      </trkpt>
      <trkpt lat="43.8608" lon="6.79557">
        <ele>836.3</ele>
        <time>2018-09-09T07:32:11Z</time>
      </trkpt>
      <trkpt lat="43.86083" lon="6.7957">
        <ele>838.4</ele>
        <time>2018-09-09T07:32:16Z</time>
      </trkpt>
      <trkpt lat="43.86082" lon="6.79573">
        <ele>837.5</ele>
        <time>2018-09-09T07:32:20Z</time>
      </trkpt>
      <trkpt lat="43.86089" lon="6.79593">
        <ele>831</ele>
        <time>2018-09-09T07:32:25Z</time>
      </trkpt>
      <trkpt lat="43.86087" lon="6.796">
        <ele>830.3</ele>
        <time>2018-09-09T07:32:29Z</time>
      </trkpt>
      <trkpt lat="43.86074" lon="6.79595">
        <ele>834.9</ele>
        <time>2018-09-09T07:32:33Z</time>
      </trkpt>
      <trkpt lat="43.86072" lon="6.79599">
        <ele>835.5</ele>
        <time>2018-09-09T07:32:35Z</time>
      </trkpt>
      <trkpt lat="43.86075" lon="6.79615">
        <ele>831.8</ele>
        <time>2018-09-09T07:32:39Z</time>
      </trkpt>
      <trkpt lat="43.8609" lon="6.79634">
        <ele>823.6</ele>
        <time>2018-09-09T07:32:45Z</time>
      </trkpt>
      <trkpt lat="43.86105" lon="6.79647">
        <ele>816.8</ele>
        <time>2018-09-09T07:32:50Z</time>
      </trkpt>
      <trkpt lat="43.86104" lon="6.79649">
        <ele>816.2</ele>
        <time>2018-09-09T07:32:51Z</time>
      </trkpt>
      <trkpt lat="43.86102" lon="6.79649">
        <ele>816</ele>
        <time>2018-09-09T07:32:52Z</time>
      </trkpt>
      <trkpt lat="43.86084" lon="6.79658">
        <ele>818.2</ele>
        <time>2018-09-09T07:32:59Z</time>
      </trkpt>
      <trkpt lat="43.86082" lon="6.7966">
        <ele>818.5</ele>
        <time>2018-09-09T07:33:00Z</time>
      </trkpt>
      <trkpt lat="43.8608" lon="6.79681">
        <ele>819.4</ele>
        <time>2018-09-09T07:33:08Z</time>
      </trkpt>
      <trkpt lat="43.86088" lon="6.79705">
        <ele>812.9</ele>
        <time>2018-09-09T07:33:12Z</time>
      </trkpt>
      <trkpt lat="43.8609" lon="6.79713">
        <ele>810.4</ele>
        <time>2018-09-09T07:33:14Z</time>
      </trkpt>
      <trkpt lat="43.86101" lon="6.79741">
        <ele>801.5</ele>
        <time>2018-09-09T07:33:19Z</time>
      </trkpt>
      <trkpt lat="43.86106" lon="6.79753">
        <ele>797.1</ele>
        <time>2018-09-09T07:33:21Z</time>
      </trkpt>
      <trkpt lat="43.86116" lon="6.79775">
        <ele>789.8</ele>
        <time>2018-09-09T07:33:26Z</time>
      </trkpt>
      <trkpt lat="43.86115" lon="6.79777">
        <ele>789.2</ele>
        <time>2018-09-09T07:33:29Z</time>
      </trkpt>
      <trkpt lat="43.86098" lon="6.79769">
        <ele>788.5</ele>
        <time>2018-09-09T07:33:36Z</time>
      </trkpt>
      <trkpt lat="43.86098" lon="6.79774">
        <ele>789.8</ele>
        <time>2018-09-09T07:33:37Z</time>
      </trkpt>
      <trkpt lat="43.86092" lon="6.79781">
        <ele>791.7</ele>
        <time>2018-09-09T07:33:41Z</time>
      </trkpt>
      <trkpt lat="43.86095" lon="6.79787">
        <ele>791</ele>
        <time>2018-09-09T07:33:44Z</time>
      </trkpt>
      <trkpt lat="43.86111" lon="6.79807">
        <ele>789.4</ele>
        <time>2018-09-09T07:33:51Z</time>
      </trkpt>
      <trkpt lat="43.86121" lon="6.79833">
        <ele>782.3</ele>
        <time>2018-09-09T07:33:56Z</time>
      </trkpt>
      <trkpt lat="43.86135" lon="6.7986">
        <ele>776.8</ele>
        <time>2018-09-09T07:34:00Z</time>
      </trkpt>
      <trkpt lat="43.86148" lon="6.79884">
        <ele>772.3</ele>
        <time>2018-09-09T07:34:04Z</time>
      </trkpt>
      <trkpt lat="43.86151" lon="6.79892">
        <ele>771.5</ele>
        <time>2018-09-09T07:34:05Z</time>
      </trkpt>
      <trkpt lat="43.86156" lon="6.79916">
        <ele>769.1</ele>
        <time>2018-09-09T07:34:08Z</time>
      </trkpt>
      <trkpt lat="43.86174" lon="6.79932">
        <ele>768.8</ele>
        <time>2018-09-09T07:34:12Z</time>
      </trkpt>
      <trkpt lat="43.86187" lon="6.79952">
        <ele>765</ele>
        <time>2018-09-09T07:34:15Z</time>
      </trkpt>
      <trkpt lat="43.86194" lon="6.79977">
        <ele>763.5</ele>
        <time>2018-09-09T07:34:18Z</time>
      </trkpt>
      <trkpt lat="43.86196" lon="6.79984">
        <ele>763.4</ele>
        <time>2018-09-09T07:34:19Z</time>
      </trkpt>
      <trkpt lat="43.86199" lon="6.8">
        <ele>763.1</ele>
        <time>2018-09-09T07:34:21Z</time>
      </trkpt>
      <trkpt lat="43.86207" lon="6.80023">
        <ele>763.9</ele>
        <time>2018-09-09T07:34:25Z</time>
      </trkpt>
      <trkpt lat="43.86216" lon="6.80048">
        <ele>761.5</ele>
        <time>2018-09-09T07:34:29Z</time>
      </trkpt>
      <trkpt lat="43.86217" lon="6.80056">
        <ele>760.2</ele>
        <time>2018-09-09T07:34:30Z</time>
      </trkpt>
      <trkpt lat="43.86222" lon="6.80088">
        <ele>758.7</ele>
        <time>2018-09-09T07:34:34Z</time>
      </trkpt>
      <trkpt lat="43.86224" lon="6.80119">
        <ele>757.9</ele>
        <time>2018-09-09T07:34:37Z</time>
      </trkpt>
      <trkpt lat="43.86227" lon="6.80148">
        <ele>758.7</ele>
        <time>2018-09-09T07:34:40Z</time>
      </trkpt>
      <trkpt lat="43.86232" lon="6.80181">
        <ele>758.9</ele>
        <time>2018-09-09T07:34:43Z</time>
      </trkpt>
      <trkpt lat="43.86237" lon="6.80214">
        <ele>757.7</ele>
        <time>2018-09-09T07:34:46Z</time>
      </trkpt>
      <trkpt lat="43.86263" lon="6.80222">
        <ele>747.1</ele>
        <time>2018-09-09T07:34:49Z</time>
      </trkpt>
      <trkpt lat="43.86278" lon="6.80242">
        <ele>744.1</ele>
        <time>2018-09-09T07:34:53Z</time>
      </trkpt>
      <trkpt lat="43.86277" lon="6.80269">
        <ele>744.5</ele>
        <time>2018-09-09T07:34:56Z</time>
      </trkpt>
      <trkpt lat="43.86275" lon="6.803">
        <ele>741</ele>
        <time>2018-09-09T07:35:00Z</time>
      </trkpt>
      <trkpt lat="43.86267" lon="6.8033">
        <ele>739.3</ele>
        <time>2018-09-09T07:35:04Z</time>
      </trkpt>
      <trkpt lat="43.86258" lon="6.80357">
        <ele>740</ele>
        <time>2018-09-09T07:35:08Z</time>
      </trkpt>
      <trkpt lat="43.86257" lon="6.80365">
        <ele>740.3</ele>
        <time>2018-09-09T07:35:09Z</time>
      </trkpt>
      <trkpt lat="43.86252" lon="6.80389">
        <ele>741</ele>
        <time>2018-09-09T07:35:12Z</time>
      </trkpt>
      <trkpt lat="43.86245" lon="6.80418">
        <ele>741.9</ele>
        <time>2018-09-09T07:35:16Z</time>
      </trkpt>
      <trkpt lat="43.86238" lon="6.80441">
        <ele>742.8</ele>
        <time>2018-09-09T07:35:19Z</time>
      </trkpt>
      <trkpt lat="43.86231" lon="6.80463">
        <ele>745.7</ele>
        <time>2018-09-09T07:35:22Z</time>
      </trkpt>
      <trkpt lat="43.86221" lon="6.8049">
        <ele>749</ele>
        <time>2018-09-09T07:35:26Z</time>
      </trkpt>
      <trkpt lat="43.86219" lon="6.80507">
        <ele>749.4</ele>
        <time>2018-09-09T07:35:28Z</time>
      </trkpt>
      <trkpt lat="43.86227" lon="6.80537">
        <ele>744.3</ele>
        <time>2018-09-09T07:35:32Z</time>
      </trkpt>
      <trkpt lat="43.86225" lon="6.80563">
        <ele>745.1</ele>
        <time>2018-09-09T07:35:36Z</time>
      </trkpt>
      <trkpt lat="43.86223" lon="6.80591">
        <ele>744.8</ele>
        <time>2018-09-09T07:35:40Z</time>
      </trkpt>
      <trkpt lat="43.86225" lon="6.8061">
        <ele>743.1</ele>
        <time>2018-09-09T07:35:43Z</time>
      </trkpt>
      <trkpt lat="43.8623" lon="6.80641">
        <ele>740.4</ele>
        <time>2018-09-09T07:35:47Z</time>
      </trkpt>
      <trkpt lat="43.86234" lon="6.80655">
        <ele>739.2</ele>
        <time>2018-09-09T07:35:52Z</time>
      </trkpt>
      <trkpt lat="43.8623" lon="6.80661">
        <ele>740</ele>
        <time>2018-09-09T07:37:02Z</time>
      </trkpt>
      <trkpt lat="43.86224" lon="6.8068">
        <ele>740.8</ele>
        <time>2018-09-09T07:37:07Z</time>
      </trkpt>
      <trkpt lat="43.86212" lon="6.80702">
        <ele>742</ele>
        <time>2018-09-09T07:37:13Z</time>
      </trkpt>
      <trkpt lat="43.86212" lon="6.80707">
        <ele>741.4</ele>
        <time>2018-09-09T07:37:20Z</time>
      </trkpt>
      <trkpt lat="43.86207" lon="6.80705">
        <ele>742.6</ele>
        <time>2018-09-09T07:37:25Z</time>
      </trkpt>
      <trkpt lat="43.86189" lon="6.80697">
        <ele>744.3</ele>
        <time>2018-09-09T07:37:40Z</time>
      </trkpt>
      <trkpt lat="43.86185" lon="6.80708">
        <ele>744.9</ele>
        <time>2018-09-09T07:37:46Z</time>
      </trkpt>
      <trkpt lat="43.86184" lon="6.80733">
        <ele>741.2</ele>
        <time>2018-09-09T07:37:56Z</time>
      </trkpt>
      <trkpt lat="43.86179" lon="6.80756">
        <ele>737.4</ele>
        <time>2018-09-09T07:38:08Z</time>
      </trkpt>
      <trkpt lat="43.86178" lon="6.80757">
        <ele>737.4</ele>
        <time>2018-09-09T07:38:09Z</time>
      </trkpt>
      <trkpt lat="43.86167" lon="6.8076">
        <ele>738.1</ele>
        <time>2018-09-09T07:38:19Z</time>
      </trkpt>
      <trkpt lat="43.86157" lon="6.80773">
        <ele>739</ele>
        <time>2018-09-09T07:38:24Z</time>
      </trkpt>
      <trkpt lat="43.86151" lon="6.80787">
        <ele>740.4</ele>
        <time>2018-09-09T07:38:26Z</time>
      </trkpt>
      <trkpt lat="43.86136" lon="6.80803">
        <ele>740.1</ele>
        <time>2018-09-09T07:38:30Z</time>
      </trkpt>
      <trkpt lat="43.86118" lon="6.80819">
        <ele>738</ele>
        <time>2018-09-09T07:38:35Z</time>
      </trkpt>
      <trkpt lat="43.86105" lon="6.80836">
        <ele>737.1</ele>
        <time>2018-09-09T07:38:43Z</time>
      </trkpt>
      <trkpt lat="43.86088" lon="6.8085">
        <ele>736.5</ele>
        <time>2018-09-09T07:38:52Z</time>
      </trkpt>
      <trkpt lat="43.86072" lon="6.80868">
        <ele>740</ele>
        <time>2018-09-09T07:39:02Z</time>
      </trkpt>
      <trkpt lat="43.86056" lon="6.80883">
        <ele>743.9</ele>
        <time>2018-09-09T07:39:08Z</time>
      </trkpt>
      <trkpt lat="43.86042" lon="6.80904">
        <ele>749.4</ele>
        <time>2018-09-09T07:39:18Z</time>
      </trkpt>
      <trkpt lat="43.86027" lon="6.8092">
        <ele>755</ele>
        <time>2018-09-09T07:39:26Z</time>
      </trkpt>
      <trkpt lat="43.86016" lon="6.8094">
        <ele>760.2</ele>
        <time>2018-09-09T07:39:35Z</time>
      </trkpt>
      <trkpt lat="43.86018" lon="6.80965">
        <ele>763.7</ele>
        <time>2018-09-09T07:39:43Z</time>
      </trkpt>
      <trkpt lat="43.86022" lon="6.80991">
        <ele>759.8</ele>
        <time>2018-09-09T07:39:51Z</time>
      </trkpt>
      <trkpt lat="43.86019" lon="6.81">
        <ele>759.8</ele>
        <time>2018-09-09T07:39:54Z</time>
      </trkpt>
      <trkpt lat="43.86003" lon="6.8102">
        <ele>760.5</ele>
        <time>2018-09-09T07:40:01Z</time>
      </trkpt>
      <trkpt lat="43.85992" lon="6.81042">
        <ele>762.3</ele>
        <time>2018-09-09T07:40:10Z</time>
      </trkpt>
      <trkpt lat="43.85988" lon="6.8107">
        <ele>763.9</ele>
        <time>2018-09-09T07:40:22Z</time>
      </trkpt>
      <trkpt lat="43.85979" lon="6.81094">
        <ele>764.6</ele>
        <time>2018-09-09T07:40:31Z</time>
      </trkpt>
      <trkpt lat="43.85971" lon="6.8112">
        <ele>765.6</ele>
        <time>2018-09-09T07:40:40Z</time>
      </trkpt>
      <trkpt lat="43.85968" lon="6.81125">
        <ele>765.7</ele>
        <time>2018-09-09T07:40:42Z</time>
      </trkpt>
      <trkpt lat="43.85966" lon="6.81152">
        <ele>762.2</ele>
        <time>2018-09-09T07:40:49Z</time>
      </trkpt>
      <trkpt lat="43.85966" lon="6.81171">
        <ele>760.1</ele>
        <time>2018-09-09T07:40:52Z</time>
      </trkpt>
      <trkpt lat="43.85961" lon="6.81199">
        <ele>763.6</ele>
        <time>2018-09-09T07:40:59Z</time>
      </trkpt>
      <trkpt lat="43.85946" lon="6.81219">
        <ele>771.7</ele>
        <time>2018-09-09T07:41:04Z</time>
      </trkpt>
      <trkpt lat="43.85933" lon="6.81242">
        <ele>775.7</ele>
        <time>2018-09-09T07:41:09Z</time>
      </trkpt>
      <trkpt lat="43.85925" lon="6.81267">
        <ele>773.2</ele>
        <time>2018-09-09T07:41:14Z</time>
      </trkpt>
      <trkpt lat="43.85915" lon="6.81288">
        <ele>770.8</ele>
        <time>2018-09-09T07:41:22Z</time>
      </trkpt>
      <trkpt lat="43.85889" lon="6.81288">
        <ele>773.3</ele>
        <time>2018-09-09T07:41:26Z</time>
      </trkpt>
      <trkpt lat="43.85871" lon="6.81283">
        <ele>776.2</ele>
        <time>2018-09-09T07:41:28Z</time>
      </trkpt>
      <trkpt lat="43.85853" lon="6.81271">
        <ele>780.6</ele>
        <time>2018-09-09T07:41:31Z</time>
      </trkpt>
      <trkpt lat="43.85847" lon="6.81268">
        <ele>782.2</ele>
        <time>2018-09-09T07:41:32Z</time>
      </trkpt>
      <trkpt lat="43.85831" lon="6.81264">
        <ele>786.1</ele>
        <time>2018-09-09T07:41:35Z</time>
      </trkpt>
      <trkpt lat="43.85826" lon="6.81274">
        <ele>787.6</ele>
        <time>2018-09-09T07:41:39Z</time>
      </trkpt>
      <trkpt lat="43.8583" lon="6.8129">
        <ele>788.7</ele>
        <time>2018-09-09T07:41:44Z</time>
      </trkpt>
      <trkpt lat="43.85838" lon="6.81314">
        <ele>785.9</ele>
        <time>2018-09-09T07:41:50Z</time>
      </trkpt>
      <trkpt lat="43.8584" lon="6.81343">
        <ele>781.5</ele>
        <time>2018-09-09T07:41:56Z</time>
      </trkpt>
      <trkpt lat="43.85842" lon="6.81369">
        <ele>777.1</ele>
        <time>2018-09-09T07:42:00Z</time>
      </trkpt>
      <trkpt lat="43.85845" lon="6.81393">
        <ele>776</ele>
        <time>2018-09-09T07:42:05Z</time>
      </trkpt>
      <trkpt lat="43.85845" lon="6.81419">
        <ele>773.7</ele>
        <time>2018-09-09T07:42:10Z</time>
      </trkpt>
      <trkpt lat="43.85851" lon="6.81449">
        <ele>771.1</ele>
        <time>2018-09-09T07:42:14Z</time>
      </trkpt>
      <trkpt lat="43.8586" lon="6.8148">
        <ele>767.6</ele>
        <time>2018-09-09T07:42:18Z</time>
      </trkpt>
      <trkpt lat="43.85863" lon="6.81496">
        <ele>766.1</ele>
        <time>2018-09-09T07:42:20Z</time>
      </trkpt>
      <trkpt lat="43.85866" lon="6.81524">
        <ele>764.8</ele>
        <time>2018-09-09T07:42:24Z</time>
      </trkpt>
      <trkpt lat="43.85865" lon="6.81539">
        <ele>764.6</ele>
        <time>2018-09-09T07:42:26Z</time>
      </trkpt>
      <trkpt lat="43.85864" lon="6.81565">
        <ele>764.8</ele>
        <time>2018-09-09T07:42:29Z</time>
      </trkpt>
      <trkpt lat="43.85863" lon="6.81593">
        <ele>764.3</ele>
        <time>2018-09-09T07:42:32Z</time>
      </trkpt>
      <trkpt lat="43.85859" lon="6.81621">
        <ele>763</ele>
        <time>2018-09-09T07:42:36Z</time>
      </trkpt>
      <trkpt lat="43.85858" lon="6.81649">
        <ele>760</ele>
        <time>2018-09-09T07:42:42Z</time>
      </trkpt>
      <trkpt lat="43.85855" lon="6.81678">
        <ele>756.1</ele>
        <time>2018-09-09T07:42:47Z</time>
      </trkpt>
      <trkpt lat="43.85852" lon="6.81705">
        <ele>753.8</ele>
        <time>2018-09-09T07:42:51Z</time>
      </trkpt>
      <trkpt lat="43.85846" lon="6.81714">
        <ele>754.7</ele>
        <time>2018-09-09T07:42:52Z</time>
      </trkpt>
      <trkpt lat="43.85835" lon="6.81743">
        <ele>755.3</ele>
        <time>2018-09-09T07:42:55Z</time>
      </trkpt>
      <trkpt lat="43.85831" lon="6.81769">
        <ele>753.3</ele>
        <time>2018-09-09T07:42:58Z</time>
      </trkpt>
      <trkpt lat="43.85813" lon="6.81801">
        <ele>756.1</ele>
        <time>2018-09-09T07:43:01Z</time>
      </trkpt>
      <trkpt lat="43.85805" lon="6.81817">
        <ele>757.7</ele>
        <time>2018-09-09T07:43:03Z</time>
      </trkpt>
      <trkpt lat="43.85796" lon="6.81833">
        <ele>757.7</ele>
        <time>2018-09-09T07:43:07Z</time>
      </trkpt>
      <trkpt lat="43.85779" lon="6.81852">
        <ele>760.4</ele>
        <time>2018-09-09T07:43:12Z</time>
      </trkpt>
      <trkpt lat="43.8577" lon="6.81866">
        <ele>761.8</ele>
        <time>2018-09-09T07:43:16Z</time>
      </trkpt>
      <trkpt lat="43.85765" lon="6.81894">
        <ele>760.9</ele>
        <time>2018-09-09T07:43:24Z</time>
      </trkpt>
      <trkpt lat="43.85759" lon="6.81917">
        <ele>761.8</ele>
        <time>2018-09-09T07:43:31Z</time>
      </trkpt>
      <trkpt lat="43.85755" lon="6.81942">
        <ele>761.6</ele>
        <time>2018-09-09T07:43:38Z</time>
      </trkpt>
      <trkpt lat="43.85761" lon="6.81965">
        <ele>760.9</ele>
        <time>2018-09-09T07:43:42Z</time>
      </trkpt>
      <trkpt lat="43.85766" lon="6.81993">
        <ele>758.7</ele>
        <time>2018-09-09T07:43:46Z</time>
      </trkpt>
      <trkpt lat="43.8577" lon="6.82011">
        <ele>757.5</ele>
        <time>2018-09-09T07:43:48Z</time>
      </trkpt>
      <trkpt lat="43.85778" lon="6.82047">
        <ele>755.2</ele>
        <time>2018-09-09T07:43:51Z</time>
      </trkpt>
      <trkpt lat="43.85783" lon="6.82073">
        <ele>754.3</ele>
        <time>2018-09-09T07:43:53Z</time>
      </trkpt>
      <trkpt lat="43.85786" lon="6.82105">
        <ele>753.6</ele>
        <time>2018-09-09T07:43:56Z</time>
      </trkpt>
      <trkpt lat="43.85788" lon="6.82132">
        <ele>752.9</ele>
        <time>2018-09-09T07:43:59Z</time>
      </trkpt>
      <trkpt lat="43.85791" lon="6.82148">
        <ele>752.3</ele>
        <time>2018-09-09T07:44:01Z</time>
      </trkpt>
      <trkpt lat="43.85798" lon="6.8218">
        <ele>751.2</ele>
        <time>2018-09-09T07:44:05Z</time>
      </trkpt>
      <trkpt lat="43.85799" lon="6.82189">
        <ele>750.9</ele>
        <time>2018-09-09T07:44:06Z</time>
      </trkpt>
      <trkpt lat="43.85798" lon="6.82212">
        <ele>750.6</ele>
        <time>2018-09-09T07:44:09Z</time>
      </trkpt>
      <trkpt lat="43.85798" lon="6.8224">
        <ele>750.2</ele>
        <time>2018-09-09T07:44:13Z</time>
      </trkpt>
      <trkpt lat="43.85797" lon="6.82259">
        <ele>749.9</ele>
        <time>2018-09-09T07:44:16Z</time>
      </trkpt>
      <trkpt lat="43.85794" lon="6.82273">
        <ele>749.3</ele>
        <time>2018-09-09T07:44:18Z</time>
      </trkpt>
      <trkpt lat="43.85793" lon="6.823">
        <ele>748.3</ele>
        <time>2018-09-09T07:44:21Z</time>
      </trkpt>
      <trkpt lat="43.85792" lon="6.82334">
        <ele>747.1</ele>
        <time>2018-09-09T07:44:25Z</time>
      </trkpt>
      <trkpt lat="43.85787" lon="6.8235">
        <ele>747.1</ele>
        <time>2018-09-09T07:44:27Z</time>
      </trkpt>
      <trkpt lat="43.8579" lon="6.82373">
        <ele>747.4</ele>
        <time>2018-09-09T07:44:32Z</time>
      </trkpt>
      <trkpt lat="43.85796" lon="6.82401">
        <ele>747.9</ele>
        <time>2018-09-09T07:44:39Z</time>
      </trkpt>
      <trkpt lat="43.858" lon="6.82416">
        <ele>747.9</ele>
        <time>2018-09-09T07:44:42Z</time>
      </trkpt>
      <trkpt lat="43.858" lon="6.82442">
        <ele>747.3</ele>
        <time>2018-09-09T07:44:45Z</time>
      </trkpt>
      <trkpt lat="43.85799" lon="6.82458">
        <ele>746.7</ele>
        <time>2018-09-09T07:44:47Z</time>
      </trkpt>
      <trkpt lat="43.85795" lon="6.82485">
        <ele>746.2</ele>
        <time>2018-09-09T07:44:51Z</time>
      </trkpt>
      <trkpt lat="43.85789" lon="6.82504">
        <ele>745.9</ele>
        <time>2018-09-09T07:44:54Z</time>
      </trkpt>
      <trkpt lat="43.85775" lon="6.82523">
        <ele>745.6</ele>
        <time>2018-09-09T07:44:58Z</time>
      </trkpt>
      <trkpt lat="43.85768" lon="6.8255">
        <ele>745.4</ele>
        <time>2018-09-09T07:45:04Z</time>
      </trkpt>
      <trkpt lat="43.85769" lon="6.82554">
        <ele>745.4</ele>
        <time>2018-09-09T07:45:05Z</time>
      </trkpt>
      <trkpt lat="43.85778" lon="6.82572">
        <ele>745.2</ele>
        <time>2018-09-09T07:45:08Z</time>
      </trkpt>
      <trkpt lat="43.8579" lon="6.82599">
        <ele>744.3</ele>
        <time>2018-09-09T07:45:12Z</time>
      </trkpt>
      <trkpt lat="43.85803" lon="6.82621">
        <ele>742.9</ele>
        <time>2018-09-09T07:45:15Z</time>
      </trkpt>
      <trkpt lat="43.85822" lon="6.82646">
        <ele>741.2</ele>
        <time>2018-09-09T07:45:18Z</time>
      </trkpt>
      <trkpt lat="43.85841" lon="6.82669">
        <ele>739</ele>
        <time>2018-09-09T07:45:21Z</time>
      </trkpt>
      <trkpt lat="43.85852" lon="6.82688">
        <ele>737.9</ele>
        <time>2018-09-09T07:45:23Z</time>
      </trkpt>
      <trkpt lat="43.85862" lon="6.82719">
        <ele>734.5</ele>
        <time>2018-09-09T07:45:26Z</time>
      </trkpt>
      <trkpt lat="43.85864" lon="6.82729">
        <ele>733.1</ele>
        <time>2018-09-09T07:45:27Z</time>
      </trkpt>
      <trkpt lat="43.85866" lon="6.82739">
        <ele>731.8</ele>
        <time>2018-09-09T07:45:28Z</time>
      </trkpt>
      <trkpt lat="43.85869" lon="6.82761">
        <ele>729.7</ele>
        <time>2018-09-09T07:45:31Z</time>
      </trkpt>
      <trkpt lat="43.85883" lon="6.82782">
        <ele>728.4</ele>
        <time>2018-09-09T07:45:35Z</time>
      </trkpt>
      <trkpt lat="43.85886" lon="6.828">
        <ele>727.6</ele>
        <time>2018-09-09T07:45:37Z</time>
      </trkpt>
      <trkpt lat="43.85889" lon="6.82808">
        <ele>727.2</ele>
        <time>2018-09-09T07:45:38Z</time>
      </trkpt>
      <trkpt lat="43.85905" lon="6.82831">
        <ele>725.7</ele>
        <time>2018-09-09T07:45:41Z</time>
      </trkpt>
      <trkpt lat="43.85912" lon="6.82838">
        <ele>725.2</ele>
        <time>2018-09-09T07:45:42Z</time>
      </trkpt>
      <trkpt lat="43.85925" lon="6.82855">
        <ele>724.1</ele>
        <time>2018-09-09T07:45:44Z</time>
      </trkpt>
      <trkpt lat="43.8593" lon="6.82864">
        <ele>723.6</ele>
        <time>2018-09-09T07:45:45Z</time>
      </trkpt>
      <trkpt lat="43.85945" lon="6.82892">
        <ele>722</ele>
        <time>2018-09-09T07:45:48Z</time>
      </trkpt>
      <trkpt lat="43.8596" lon="6.82913">
        <ele>720.6</ele>
        <time>2018-09-09T07:45:50Z</time>
      </trkpt>
      <trkpt lat="43.85973" lon="6.82933">
        <ele>719.4</ele>
        <time>2018-09-09T07:45:52Z</time>
      </trkpt>
      <trkpt lat="43.85986" lon="6.82954">
        <ele>718.2</ele>
        <time>2018-09-09T07:45:54Z</time>
      </trkpt>
      <trkpt lat="43.85998" lon="6.82973">
        <ele>717</ele>
        <time>2018-09-09T07:45:56Z</time>
      </trkpt>
      <trkpt lat="43.86017" lon="6.82998">
        <ele>715.4</ele>
        <time>2018-09-09T07:45:59Z</time>
      </trkpt>
      <trkpt lat="43.86033" lon="6.83017">
        <ele>714</ele>
        <time>2018-09-09T07:46:02Z</time>
      </trkpt>
      <trkpt lat="43.86047" lon="6.8304">
        <ele>712.6</ele>
        <time>2018-09-09T07:46:06Z</time>
      </trkpt>
      <trkpt lat="43.86063" lon="6.83063">
        <ele>711.2</ele>
        <time>2018-09-09T07:46:09Z</time>
      </trkpt>
      <trkpt lat="43.86068" lon="6.8307">
        <ele>710.8</ele>
        <time>2018-09-09T07:46:10Z</time>
      </trkpt>
      <trkpt lat="43.86087" lon="6.8309">
        <ele>709.3</ele>
        <time>2018-09-09T07:46:13Z</time>
      </trkpt>
      <trkpt lat="43.86099" lon="6.83111">
        <ele>708.2</ele>
        <time>2018-09-09T07:46:16Z</time>
      </trkpt>
      <trkpt lat="43.86108" lon="6.83127">
        <ele>707.4</ele>
        <time>2018-09-09T07:46:18Z</time>
      </trkpt>
      <trkpt lat="43.86117" lon="6.83156">
        <ele>706.2</ele>
        <time>2018-09-09T07:46:21Z</time>
      </trkpt>
      <trkpt lat="43.86121" lon="6.83185">
        <ele>705.1</ele>
        <time>2018-09-09T07:46:24Z</time>
      </trkpt>
      <trkpt lat="43.86124" lon="6.83211">
        <ele>704</ele>
        <time>2018-09-09T07:46:27Z</time>
      </trkpt>
      <trkpt lat="43.86126" lon="6.83236">
        <ele>703.1</ele>
        <time>2018-09-09T07:46:30Z</time>
      </trkpt>
      <trkpt lat="43.86126" lon="6.83267">
        <ele>701.9</ele>
        <time>2018-09-09T07:46:34Z</time>
      </trkpt>
      <trkpt lat="43.86122" lon="6.83298">
        <ele>699.8</ele>
        <time>2018-09-09T07:46:38Z</time>
      </trkpt>
      <trkpt lat="43.86125" lon="6.8332">
        <ele>699.1</ele>
        <time>2018-09-09T07:46:41Z</time>
      </trkpt>
      <trkpt lat="43.86134" lon="6.83345">
        <ele>698.3</ele>
        <time>2018-09-09T07:46:45Z</time>
      </trkpt>
      <trkpt lat="43.86141" lon="6.83369">
        <ele>698</ele>
        <time>2018-09-09T07:46:48Z</time>
      </trkpt>
      <trkpt lat="43.86139" lon="6.83401">
        <ele>699</ele>
        <time>2018-09-09T07:46:52Z</time>
      </trkpt>
      <trkpt lat="43.86139" lon="6.83421">
        <ele>700.3</ele>
        <time>2018-09-09T07:46:55Z</time>
      </trkpt>
      <trkpt lat="43.86131" lon="6.83441">
        <ele>702</ele>
        <time>2018-09-09T07:47:04Z</time>
      </trkpt>
      <trkpt lat="43.86132" lon="6.83453">
        <ele>702.4</ele>
        <time>2018-09-09T07:47:59Z</time>
      </trkpt>
      <trkpt lat="43.86133" lon="6.83481">
        <ele>702.6</ele>
        <time>2018-09-09T07:48:08Z</time>
      </trkpt>
      <trkpt lat="43.86133" lon="6.83487">
        <ele>702.7</ele>
        <time>2018-09-09T07:48:10Z</time>
      </trkpt>
      <trkpt lat="43.86137" lon="6.83513">
        <ele>703.8</ele>
        <time>2018-09-09T07:48:16Z</time>
      </trkpt>
      <trkpt lat="43.86142" lon="6.8354">
        <ele>704.4</ele>
        <time>2018-09-09T07:48:20Z</time>
      </trkpt>
      <trkpt lat="43.86144" lon="6.83567">
        <ele>705.4</ele>
        <time>2018-09-09T07:48:26Z</time>
      </trkpt>
      <trkpt lat="43.8615" lon="6.83594">
        <ele>705.8</ele>
        <time>2018-09-09T07:48:33Z</time>
      </trkpt>
      <trkpt lat="43.86157" lon="6.83618">
        <ele>705.2</ele>
        <time>2018-09-09T07:48:39Z</time>
      </trkpt>
      <trkpt lat="43.86157" lon="6.83635">
        <ele>705.5</ele>
        <time>2018-09-09T07:48:43Z</time>
      </trkpt>
      <trkpt lat="43.86154" lon="6.8365">
        <ele>705.8</ele>
        <time>2018-09-09T07:48:48Z</time>
      </trkpt>
      <trkpt lat="43.86162" lon="6.83674">
        <ele>707.2</ele>
        <time>2018-09-09T07:48:54Z</time>
      </trkpt>
      <trkpt lat="43.86163" lon="6.83682">
        <ele>706.8</ele>
        <time>2018-09-09T07:48:56Z</time>
      </trkpt>
      <trkpt lat="43.8617" lon="6.83708">
        <ele>704.8</ele>
        <time>2018-09-09T07:49:05Z</time>
      </trkpt>
      <trkpt lat="43.86173" lon="6.83714">
        <ele>704.3</ele>
        <time>2018-09-09T07:49:09Z</time>
      </trkpt>
      <trkpt lat="43.86188" lon="6.83728">
        <ele>703.4</ele>
        <time>2018-09-09T07:49:20Z</time>
      </trkpt>
      <trkpt lat="43.86192" lon="6.83741">
        <ele>702.7</ele>
        <time>2018-09-09T07:49:24Z</time>
      </trkpt>
      <trkpt lat="43.86213" lon="6.83741">
        <ele>700.8</ele>
        <time>2018-09-09T07:49:31Z</time>
      </trkpt>
      <trkpt lat="43.86218" lon="6.83743">
        <ele>700.5</ele>
        <time>2018-09-09T07:49:33Z</time>
      </trkpt>
      <trkpt lat="43.86233" lon="6.83759">
        <ele>699.4</ele>
        <time>2018-09-09T07:49:41Z</time>
      </trkpt>
      <trkpt lat="43.86234" lon="6.83761">
        <ele>699.3</ele>
        <time>2018-09-09T07:49:43Z</time>
      </trkpt>
      <trkpt lat="43.86238" lon="6.83772">
        <ele>699.1</ele>
        <time>2018-09-09T07:49:47Z</time>
      </trkpt>
      <trkpt lat="43.86251" lon="6.83795">
        <ele>698.6</ele>
        <time>2018-09-09T07:49:54Z</time>
      </trkpt>
      <trkpt lat="43.86267" lon="6.83815">
        <ele>698.5</ele>
        <time>2018-09-09T07:49:59Z</time>
      </trkpt>
      <trkpt lat="43.86278" lon="6.83839">
        <ele>698.8</ele>
        <time>2018-09-09T07:50:04Z</time>
      </trkpt>
      <trkpt lat="43.86287" lon="6.83861">
        <ele>698.9</ele>
        <time>2018-09-09T07:50:09Z</time>
      </trkpt>
      <trkpt lat="43.86295" lon="6.83886">
        <ele>699.5</ele>
        <time>2018-09-09T07:50:15Z</time>
      </trkpt>
      <trkpt lat="43.86297" lon="6.83912">
        <ele>699.7</ele>
        <time>2018-09-09T07:50:21Z</time>
      </trkpt>
      <trkpt lat="43.86285" lon="6.83933">
        <ele>699.4</ele>
        <time>2018-09-09T07:50:31Z</time>
      </trkpt>
      <trkpt lat="43.86285" lon="6.83939">
        <ele>699.3</ele>
        <time>2018-09-09T07:50:35Z</time>
      </trkpt>
      <trkpt lat="43.86285" lon="6.83944">
        <ele>699.2</ele>
        <time>2018-09-09T07:50:37Z</time>
      </trkpt>
      <trkpt lat="43.86294" lon="6.83969">
        <ele>698.5</ele>
        <time>2018-09-09T07:50:43Z</time>
      </trkpt>
      <trkpt lat="43.86303" lon="6.83991">
        <ele>698.2</ele>
        <time>2018-09-09T07:50:47Z</time>
      </trkpt>
      <trkpt lat="43.86311" lon="6.84014">
        <ele>698.8</ele>
        <time>2018-09-09T07:50:52Z</time>
      </trkpt>
      <trkpt lat="43.86317" lon="6.84042">
        <ele>699.6</ele>
        <time>2018-09-09T07:51:02Z</time>
      </trkpt>
      <trkpt lat="43.8632" lon="6.84061">
        <ele>699.5</ele>
        <time>2018-09-09T07:51:08Z</time>
      </trkpt>
      <trkpt lat="43.86336" lon="6.8408">
        <ele>698.3</ele>
        <time>2018-09-09T07:51:22Z</time>
      </trkpt>
      <trkpt lat="43.86351" lon="6.84099">
        <ele>697.2</ele>
        <time>2018-09-09T07:51:27Z</time>
      </trkpt>
      <trkpt lat="43.86358" lon="6.84119">
        <ele>696.8</ele>
        <time>2018-09-09T07:51:38Z</time>
      </trkpt>
      <trkpt lat="43.86361" lon="6.84124">
        <ele>696.7</ele>
        <time>2018-09-09T07:52:29Z</time>
      </trkpt>
      <trkpt lat="43.86369" lon="6.84146">
        <ele>696.4</ele>
        <time>2018-09-09T07:52:34Z</time>
      </trkpt>
      <trkpt lat="43.86383" lon="6.84168">
        <ele>696</ele>
        <time>2018-09-09T07:52:38Z</time>
      </trkpt>
      <trkpt lat="43.86395" lon="6.84188">
        <ele>695.8</ele>
        <time>2018-09-09T07:52:41Z</time>
      </trkpt>
      <trkpt lat="43.86409" lon="6.84216">
        <ele>695.9</ele>
        <time>2018-09-09T07:52:45Z</time>
      </trkpt>
      <trkpt lat="43.86423" lon="6.84232">
        <ele>695.6</ele>
        <time>2018-09-09T07:52:50Z</time>
      </trkpt>
      <trkpt lat="43.86435" lon="6.84254">
        <ele>694.8</ele>
        <time>2018-09-09T07:52:58Z</time>
      </trkpt>
      <trkpt lat="43.86451" lon="6.84275">
        <ele>694.3</ele>
        <time>2018-09-09T07:53:03Z</time>
      </trkpt>
      <trkpt lat="43.86461" lon="6.84297">
        <ele>693.7</ele>
        <time>2018-09-09T07:53:09Z</time>
      </trkpt>
      <trkpt lat="43.86475" lon="6.84319">
        <ele>693.2</ele>
        <time>2018-09-09T07:53:15Z</time>
      </trkpt>
      <trkpt lat="43.86488" lon="6.84337">
        <ele>693</ele>
        <time>2018-09-09T07:53:20Z</time>
      </trkpt>
      <trkpt lat="43.86507" lon="6.84347">
        <ele>693.1</ele>
        <time>2018-09-09T07:53:25Z</time>
      </trkpt>
      <trkpt lat="43.86518" lon="6.84364">
        <ele>694.5</ele>
        <time>2018-09-09T07:53:31Z</time>
      </trkpt>
      <trkpt lat="43.86522" lon="6.84389">
        <ele>695.8</ele>
        <time>2018-09-09T07:53:39Z</time>
      </trkpt>
      <trkpt lat="43.86528" lon="6.84415">
        <ele>697.6</ele>
        <time>2018-09-09T07:53:47Z</time>
      </trkpt>
      <trkpt lat="43.86527" lon="6.84425">
        <ele>698.1</ele>
        <time>2018-09-09T07:53:50Z</time>
      </trkpt>
      <trkpt lat="43.86531" lon="6.84434">
        <ele>698.6</ele>
        <time>2018-09-09T07:53:54Z</time>
      </trkpt>
      <trkpt lat="43.86527" lon="6.84461">
        <ele>700</ele>
        <time>2018-09-09T07:54:03Z</time>
      </trkpt>
      <trkpt lat="43.86527" lon="6.84478">
        <ele>701.1</ele>
        <time>2018-09-09T07:54:09Z</time>
      </trkpt>
      <trkpt lat="43.86527" lon="6.84503">
        <ele>703.2</ele>
        <time>2018-09-09T07:54:16Z</time>
      </trkpt>
      <trkpt lat="43.86529" lon="6.84531">
        <ele>705.6</ele>
        <time>2018-09-09T07:54:26Z</time>
      </trkpt>
      <trkpt lat="43.86529" lon="6.84543">
        <ele>706.4</ele>
        <time>2018-09-09T07:54:30Z</time>
      </trkpt>
      <trkpt lat="43.86532" lon="6.84555">
        <ele>707.4</ele>
        <time>2018-09-09T07:54:36Z</time>
      </trkpt>
      <trkpt lat="43.86525" lon="6.846">
        <ele>710.9</ele>
        <time>2018-09-09T07:55:12Z</time>
      </trkpt>
      <trkpt lat="43.86517" lon="6.84612">
        <ele>712.1</ele>
        <time>2018-09-09T07:55:16Z</time>
      </trkpt>
      <trkpt lat="43.86504" lon="6.84636">
        <ele>714.1</ele>
        <time>2018-09-09T07:55:25Z</time>
      </trkpt>
      <trkpt lat="43.86502" lon="6.84649">
        <ele>714.9</ele>
        <time>2018-09-09T07:55:31Z</time>
      </trkpt>
      <trkpt lat="43.86501" lon="6.84659">
        <ele>715.5</ele>
        <time>2018-09-09T07:55:37Z</time>
      </trkpt>
      <trkpt lat="43.86496" lon="6.84688">
        <ele>717.3</ele>
        <time>2018-09-09T07:55:48Z</time>
      </trkpt>
      <trkpt lat="43.86496" lon="6.84713">
        <ele>718.4</ele>
        <time>2018-09-09T07:55:58Z</time>
      </trkpt>
      <trkpt lat="43.86493" lon="6.8474">
        <ele>720.1</ele>
        <time>2018-09-09T07:56:09Z</time>
      </trkpt>
      <trkpt lat="43.86494" lon="6.84749">
        <ele>720.6</ele>
        <time>2018-09-09T07:56:12Z</time>
      </trkpt>
      <trkpt lat="43.86499" lon="6.84775">
        <ele>722.5</ele>
        <time>2018-09-09T07:56:20Z</time>
      </trkpt>
      <trkpt lat="43.86497" lon="6.84788">
        <ele>723.5</ele>
        <time>2018-09-09T07:56:25Z</time>
      </trkpt>
      <trkpt lat="43.86497" lon="6.84811">
        <ele>726.1</ele>
        <time>2018-09-09T07:56:32Z</time>
      </trkpt>
      <trkpt lat="43.86493" lon="6.84835">
        <ele>728.6</ele>
        <time>2018-09-09T07:56:38Z</time>
      </trkpt>
      <trkpt lat="43.86486" lon="6.84859">
        <ele>732</ele>
        <time>2018-09-09T07:56:46Z</time>
      </trkpt>
      <trkpt lat="43.86479" lon="6.84883">
        <ele>735.5</ele>
        <time>2018-09-09T07:56:55Z</time>
      </trkpt>
      <trkpt lat="43.86474" lon="6.84907">
        <ele>739.1</ele>
        <time>2018-09-09T07:57:05Z</time>
      </trkpt>
      <trkpt lat="43.86468" lon="6.84933">
        <ele>742.6</ele>
        <time>2018-09-09T07:57:14Z</time>
      </trkpt>
      <trkpt lat="43.86462" lon="6.84946">
        <ele>743.6</ele>
        <time>2018-09-09T07:57:18Z</time>
      </trkpt>
      <trkpt lat="43.86472" lon="6.84971">
        <ele>746</ele>
        <time>2018-09-09T07:57:25Z</time>
      </trkpt>
      <trkpt lat="43.86481" lon="6.84993">
        <ele>747.7</ele>
        <time>2018-09-09T07:57:30Z</time>
      </trkpt>
      <trkpt lat="43.86484" lon="6.85017">
        <ele>748.8</ele>
        <time>2018-09-09T07:57:36Z</time>
      </trkpt>
      <trkpt lat="43.86484" lon="6.85045">
        <ele>749.9</ele>
        <time>2018-09-09T07:57:44Z</time>
      </trkpt>
      <trkpt lat="43.86488" lon="6.85071">
        <ele>751.9</ele>
        <time>2018-09-09T07:57:51Z</time>
      </trkpt>
      <trkpt lat="43.86488" lon="6.85098">
        <ele>751.4</ele>
        <time>2018-09-09T07:57:59Z</time>
      </trkpt>
      <trkpt lat="43.86483" lon="6.85121">
        <ele>750.3</ele>
        <time>2018-09-09T07:58:06Z</time>
      </trkpt>
      <trkpt lat="43.86495" lon="6.85127">
        <ele>749.5</ele>
        <time>2018-09-09T07:58:33Z</time>
      </trkpt>
      <trkpt lat="43.86514" lon="6.85133">
        <ele>750.4</ele>
        <time>2018-09-09T07:58:39Z</time>
      </trkpt>
      <trkpt lat="43.86532" lon="6.85141">
        <ele>753.7</ele>
        <time>2018-09-09T07:58:45Z</time>
      </trkpt>
      <trkpt lat="43.86543" lon="6.85142">
        <ele>756.8</ele>
        <time>2018-09-09T07:58:51Z</time>
      </trkpt>
      <trkpt lat="43.86552" lon="6.85164">
        <ele>760.7</ele>
        <time>2018-09-09T07:58:59Z</time>
      </trkpt>
      <trkpt lat="43.86559" lon="6.85183">
        <ele>764.7</ele>
        <time>2018-09-09T07:59:07Z</time>
      </trkpt>
      <trkpt lat="43.86566" lon="6.8521">
        <ele>755</ele>
      </trkpt>
      <trkpt lat="43.86566" lon="6.85249">
        <ele>770.8</ele>
        <time>2018-09-09T08:00:19Z</time>
      </trkpt>
      <trkpt lat="43.86556" lon="6.85269">
        <ele>775.1</ele>
        <time>2018-09-09T08:00:29Z</time>
      </trkpt>
      <trkpt lat="43.8655" lon="6.85283">
        <ele>776.1</ele>
        <time>2018-09-09T08:00:37Z</time>
      </trkpt>
      <trkpt lat="43.86544" lon="6.85305">
        <ele>777</ele>
        <time>2018-09-09T08:00:45Z</time>
      </trkpt>
      <trkpt lat="43.86537" lon="6.85331">
        <ele>778.2</ele>
        <time>2018-09-09T08:00:56Z</time>
      </trkpt>
      <trkpt lat="43.86535" lon="6.85358">
        <ele>779.8</ele>
        <time>2018-09-09T08:01:07Z</time>
      </trkpt>
      <trkpt lat="43.86534" lon="6.85359">
        <ele>779.7</ele>
        <time>2018-09-09T08:01:08Z</time>
      </trkpt>
      <trkpt lat="43.8653" lon="6.85385">
        <ele>779.9</ele>
        <time>2018-09-09T08:01:16Z</time>
      </trkpt>
      <trkpt lat="43.86518" lon="6.85405">
        <ele>780.4</ele>
        <time>2018-09-09T08:01:24Z</time>
      </trkpt>
      <trkpt lat="43.86512" lon="6.85429">
        <ele>780.6</ele>
        <time>2018-09-09T08:01:32Z</time>
      </trkpt>
      <trkpt lat="43.86508" lon="6.85457">
        <ele>781.3</ele>
        <time>2018-09-09T08:01:41Z</time>
      </trkpt>
      <trkpt lat="43.86502" lon="6.85483">
        <ele>782.1</ele>
        <time>2018-09-09T08:01:46Z</time>
      </trkpt>
      <trkpt lat="43.86496" lon="6.8551">
        <ele>783.3</ele>
        <time>2018-09-09T08:01:52Z</time>
      </trkpt>
      <trkpt lat="43.86489" lon="6.85537">
        <ele>784</ele>
        <time>2018-09-09T08:01:59Z</time>
      </trkpt>
      <trkpt lat="43.86497" lon="6.85563">
        <ele>784.5</ele>
        <time>2018-09-09T08:02:06Z</time>
      </trkpt>
      <trkpt lat="43.86509" lon="6.85582">
        <ele>785.5</ele>
        <time>2018-09-09T08:02:13Z</time>
      </trkpt>
      <trkpt lat="43.86512" lon="6.85612">
        <ele>786.4</ele>
        <time>2018-09-09T08:02:28Z</time>
      </trkpt>
      <trkpt lat="43.86525" lon="6.8563">
        <ele>787.3</ele>
        <time>2018-09-09T08:02:37Z</time>
      </trkpt>
      <trkpt lat="43.86543" lon="6.85651">
        <ele>789.1</ele>
        <time>2018-09-09T08:02:41Z</time>
      </trkpt>
      <trkpt lat="43.8655" lon="6.8566">
        <ele>788.5</ele>
        <time>2018-09-09T08:02:43Z</time>
      </trkpt>
      <trkpt lat="43.86562" lon="6.85679">
        <ele>787.3</ele>
        <time>2018-09-09T08:02:48Z</time>
      </trkpt>
      <trkpt lat="43.86568" lon="6.85705">
        <ele>787</ele>
        <time>2018-09-09T08:02:52Z</time>
      </trkpt>
      <trkpt lat="43.86576" lon="6.8573">
        <ele>787.3</ele>
        <time>2018-09-09T08:02:55Z</time>
      </trkpt>
      <trkpt lat="43.86582" lon="6.85746">
        <ele>788.3</ele>
        <time>2018-09-09T08:02:57Z</time>
      </trkpt>
      <trkpt lat="43.86578" lon="6.85776">
        <ele>782.6</ele>
        <time>2018-09-09T08:03:02Z</time>
      </trkpt>
      <trkpt lat="43.8658" lon="6.85808">
        <ele>780</ele>
        <time>2018-09-09T08:03:11Z</time>
      </trkpt>
      <trkpt lat="43.86589" lon="6.85831">
        <ele>780.6</ele>
        <time>2018-09-09T08:03:16Z</time>
      </trkpt>
      <trkpt lat="43.86604" lon="6.85843">
        <ele>785</ele>
        <time>2018-09-09T08:03:21Z</time>
      </trkpt>
      <trkpt lat="43.86606" lon="6.85854">
        <ele>782.8</ele>
        <time>2018-09-09T08:03:26Z</time>
      </trkpt>
      <trkpt lat="43.86612" lon="6.85878">
        <ele>781</ele>
        <time>2018-09-09T08:03:31Z</time>
      </trkpt>
      <trkpt lat="43.86619" lon="6.85906">
        <ele>777.9</ele>
        <time>2018-09-09T08:03:35Z</time>
      </trkpt>
      <trkpt lat="43.86624" lon="6.85934">
        <ele>774</ele>
        <time>2018-09-09T08:03:39Z</time>
      </trkpt>
      <trkpt lat="43.86632" lon="6.85961">
        <ele>770.3</ele>
        <time>2018-09-09T08:03:43Z</time>
      </trkpt>
      <trkpt lat="43.86626" lon="6.85972">
        <ele>766.4</ele>
        <time>2018-09-09T08:03:50Z</time>
      </trkpt>
      <trkpt lat="43.8661" lon="6.85957">
        <ele>763.8</ele>
        <time>2018-09-09T08:03:57Z</time>
      </trkpt>
      <trkpt lat="43.86605" lon="6.8596">
        <ele>760.2</ele>
        <time>2018-09-09T08:04:00Z</time>
      </trkpt>
      <trkpt lat="43.86604" lon="6.85986">
        <ele>753.7</ele>
        <time>2018-09-09T08:04:03Z</time>
      </trkpt>
      <trkpt lat="43.86604" lon="6.85995">
        <ele>751.5</ele>
        <time>2018-09-09T08:04:04Z</time>
      </trkpt>
      <trkpt lat="43.86608" lon="6.86003">
        <ele>750.7</ele>
        <time>2018-09-09T08:04:05Z</time>
      </trkpt>
      <trkpt lat="43.8661" lon="6.86025">
        <ele>746.7</ele>
        <time>2018-09-09T08:04:08Z</time>
      </trkpt>
      <trkpt lat="43.86627" lon="6.86036">
        <ele>749.4</ele>
        <time>2018-09-09T08:04:15Z</time>
      </trkpt>
      <trkpt lat="43.86643" lon="6.86052">
        <ele>748.8</ele>
        <time>2018-09-09T08:04:21Z</time>
      </trkpt>
      <trkpt lat="43.86656" lon="6.86072">
        <ele>745.5</ele>
        <time>2018-09-09T08:04:26Z</time>
      </trkpt>
      <trkpt lat="43.86671" lon="6.86092">
        <ele>742.4</ele>
        <time>2018-09-09T08:04:33Z</time>
      </trkpt>
      <trkpt lat="43.86663" lon="6.86103">
        <ele>739.3</ele>
        <time>2018-09-09T08:04:35Z</time>
      </trkpt>
      <trkpt lat="43.86647" lon="6.86114">
        <ele>734.6</ele>
        <time>2018-09-09T08:04:38Z</time>
      </trkpt>
      <trkpt lat="43.86644" lon="6.86114">
        <ele>734.1</ele>
        <time>2018-09-09T08:04:39Z</time>
      </trkpt>
      <trkpt lat="43.86635" lon="6.86121">
        <ele>731.4</ele>
        <time>2018-09-09T08:04:46Z</time>
      </trkpt>
      <trkpt lat="43.86635" lon="6.86128">
        <ele>729.6</ele>
        <time>2018-09-09T08:04:50Z</time>
      </trkpt>
      <trkpt lat="43.86637" lon="6.86148">
        <ele>726.2</ele>
        <time>2018-09-09T08:04:57Z</time>
      </trkpt>
      <trkpt lat="43.86638" lon="6.86156">
        <ele>725</ele>
        <time>2018-09-09T08:05:00Z</time>
      </trkpt>
      <trkpt lat="43.86647" lon="6.86182">
        <ele>719.7</ele>
        <time>2018-09-09T08:05:06Z</time>
      </trkpt>
      <trkpt lat="43.86654" lon="6.86208">
        <ele>717</ele>
        <time>2018-09-09T08:05:10Z</time>
      </trkpt>
      <trkpt lat="43.86664" lon="6.86216">
        <ele>714.7</ele>
        <time>2018-09-09T08:05:13Z</time>
      </trkpt>
      <trkpt lat="43.86686" lon="6.86223">
        <ele>708.8</ele>
        <time>2018-09-09T08:05:18Z</time>
      </trkpt>
      <trkpt lat="43.86702" lon="6.86237">
        <ele>709.8</ele>
        <time>2018-09-09T08:05:23Z</time>
      </trkpt>
      <trkpt lat="43.86701" lon="6.86242">
        <ele>710.3</ele>
        <time>2018-09-09T08:05:25Z</time>
      </trkpt>
      <trkpt lat="43.86718" lon="6.86257">
        <ele>715.2</ele>
        <time>2018-09-09T08:05:29Z</time>
      </trkpt>
      <trkpt lat="43.86726" lon="6.86266">
        <ele>710.3</ele>
        <time>2018-09-09T08:05:31Z</time>
      </trkpt>
      <trkpt lat="43.86732" lon="6.86267">
        <ele>708.2</ele>
        <time>2018-09-09T08:05:32Z</time>
      </trkpt>
      <trkpt lat="43.8675" lon="6.86258">
        <ele>699</ele>
        <time>2018-09-09T08:05:36Z</time>
      </trkpt>
      <trkpt lat="43.86757" lon="6.86234">
        <ele>703.7</ele>
        <time>2018-09-09T08:05:40Z</time>
      </trkpt>
      <trkpt lat="43.86759" lon="6.86225">
        <ele>706.1</ele>
        <time>2018-09-09T08:05:43Z</time>
      </trkpt>
      <trkpt lat="43.86763" lon="6.86247">
        <ele>699.5</ele>
        <time>2018-09-09T08:05:49Z</time>
      </trkpt>
      <trkpt lat="43.86771" lon="6.86274">
        <ele>692.1</ele>
        <time>2018-09-09T08:05:53Z</time>
      </trkpt>
      <trkpt lat="43.86786" lon="6.86295">
        <ele>686.7</ele>
        <time>2018-09-09T08:05:57Z</time>
      </trkpt>
      <trkpt lat="43.86794" lon="6.86303">
        <ele>684.5</ele>
        <time>2018-09-09T08:05:59Z</time>
      </trkpt>
      <trkpt lat="43.8681" lon="6.86321">
        <ele>681.2</ele>
        <time>2018-09-09T08:06:04Z</time>
      </trkpt>
      <trkpt lat="43.86815" lon="6.86324">
        <ele>680.7</ele>
        <time>2018-09-09T08:06:05Z</time>
      </trkpt>
      <trkpt lat="43.86824" lon="6.86333">
        <ele>679.9</ele>
        <time>2018-09-09T08:06:07Z</time>
      </trkpt>
      <trkpt lat="43.86842" lon="6.86353">
        <ele>677.7</ele>
        <time>2018-09-09T08:06:11Z</time>
      </trkpt>
      <trkpt lat="43.86846" lon="6.86356">
        <ele>676.9</ele>
        <time>2018-09-09T08:06:12Z</time>
      </trkpt>
      <trkpt lat="43.86858" lon="6.86371">
        <ele>675.2</ele>
        <time>2018-09-09T08:06:19Z</time>
      </trkpt>
      <trkpt lat="43.86867" lon="6.86395">
        <ele>674.5</ele>
        <time>2018-09-09T08:06:25Z</time>
      </trkpt>
      <trkpt lat="43.86876" lon="6.86407">
        <ele>674.1</ele>
        <time>2018-09-09T08:06:28Z</time>
      </trkpt>
      <trkpt lat="43.86894" lon="6.86424">
        <ele>674.1</ele>
        <time>2018-09-09T08:06:32Z</time>
      </trkpt>
      <trkpt lat="43.86902" lon="6.86431">
        <ele>673.6</ele>
        <time>2018-09-09T08:06:34Z</time>
      </trkpt>
      <trkpt lat="43.86917" lon="6.86446">
        <ele>672.3</ele>
        <time>2018-09-09T08:06:38Z</time>
      </trkpt>
      <trkpt lat="43.86934" lon="6.86465">
        <ele>671.7</ele>
        <time>2018-09-09T08:06:42Z</time>
      </trkpt>
      <trkpt lat="43.86947" lon="6.86482">
        <ele>670.3</ele>
        <time>2018-09-09T08:06:46Z</time>
      </trkpt>
      <trkpt lat="43.86962" lon="6.86498">
        <ele>669.3</ele>
        <time>2018-09-09T08:06:49Z</time>
      </trkpt>
      <trkpt lat="43.86982" lon="6.86506">
        <ele>670.9</ele>
        <time>2018-09-09T08:06:53Z</time>
      </trkpt>
      <trkpt lat="43.86995" lon="6.86515">
        <ele>668.2</ele>
        <time>2018-09-09T08:06:57Z</time>
      </trkpt>
      <trkpt lat="43.87008" lon="6.86535">
        <ele>664.3</ele>
        <time>2018-09-09T08:07:01Z</time>
      </trkpt>
      <trkpt lat="43.87016" lon="6.86544">
        <ele>663.5</ele>
        <time>2018-09-09T08:07:03Z</time>
      </trkpt>
      <trkpt lat="43.87025" lon="6.86557">
        <ele>659.6</ele>
        <time>2018-09-09T08:07:06Z</time>
      </trkpt>
      <trkpt lat="43.87033" lon="6.86574">
        <ele>656</ele>
        <time>2018-09-09T08:07:09Z</time>
      </trkpt>
      <trkpt lat="43.87039" lon="6.86584">
        <ele>656.4</ele>
        <time>2018-09-09T08:07:11Z</time>
      </trkpt>
      <trkpt lat="43.87058" lon="6.86587">
        <ele>658.4</ele>
        <time>2018-09-09T08:07:16Z</time>
      </trkpt>
      <trkpt lat="43.87062" lon="6.86588">
        <ele>659.2</ele>
        <time>2018-09-09T08:07:17Z</time>
      </trkpt>
      <trkpt lat="43.87066" lon="6.86588">
        <ele>660.2</ele>
        <time>2018-09-09T08:07:18Z</time>
      </trkpt>
      <trkpt lat="43.87082" lon="6.8658">
        <ele>658</ele>
        <time>2018-09-09T08:07:25Z</time>
      </trkpt>
      <trkpt lat="43.87083" lon="6.86584">
        <ele>657.2</ele>
        <time>2018-09-09T08:07:27Z</time>
      </trkpt>
      <trkpt lat="43.87087" lon="6.86609">
        <ele>651.6</ele>
        <time>2018-09-09T08:07:35Z</time>
      </trkpt>
      <trkpt lat="43.87091" lon="6.86634">
        <ele>648.1</ele>
        <time>2018-09-09T08:07:41Z</time>
      </trkpt>
      <trkpt lat="43.87094" lon="6.86641">
        <ele>647.8</ele>
        <time>2018-09-09T08:07:43Z</time>
      </trkpt>
      <trkpt lat="43.8711" lon="6.86645">
        <ele>644.5</ele>
        <time>2018-09-09T08:07:52Z</time>
      </trkpt>
      <trkpt lat="43.87124" lon="6.86664">
        <ele>638.2</ele>
        <time>2018-09-09T08:07:58Z</time>
      </trkpt>
      <trkpt lat="43.8713" lon="6.86671">
        <ele>635.9</ele>
        <time>2018-09-09T08:08:00Z</time>
      </trkpt>
      <trkpt lat="43.87137" lon="6.86677">
        <ele>633.7</ele>
        <time>2018-09-09T08:08:06Z</time>
      </trkpt>
      <trkpt lat="43.87143" lon="6.86694">
        <ele>628.4</ele>
        <time>2018-09-09T08:08:15Z</time>
      </trkpt>
      <trkpt lat="43.87146" lon="6.86721">
        <ele>622</ele>
        <time>2018-09-09T08:08:19Z</time>
      </trkpt>
      <trkpt lat="43.87148" lon="6.86727">
        <ele>620.8</ele>
        <time>2018-09-09T08:08:20Z</time>
      </trkpt>
      <trkpt lat="43.87157" lon="6.8675">
        <ele>614.6</ele>
        <time>2018-09-09T08:08:24Z</time>
      </trkpt>
      <trkpt lat="43.87171" lon="6.86775">
        <ele>609</ele>
        <time>2018-09-09T08:08:28Z</time>
      </trkpt>
      <trkpt lat="43.87178" lon="6.86792">
        <ele>606.5</ele>
        <time>2018-09-09T08:08:31Z</time>
      </trkpt>
      <trkpt lat="43.87184" lon="6.86821">
        <ele>602.9</ele>
        <time>2018-09-09T08:08:37Z</time>
      </trkpt>
      <trkpt lat="43.87187" lon="6.86836">
        <ele>601.9</ele>
        <time>2018-09-09T08:08:39Z</time>
      </trkpt>
      <trkpt lat="43.87195" lon="6.86864">
        <ele>600.6</ele>
        <time>2018-09-09T08:08:43Z</time>
      </trkpt>
      <trkpt lat="43.87202" lon="6.86891">
        <ele>600</ele>
        <time>2018-09-09T08:08:50Z</time>
      </trkpt>
      <trkpt lat="43.87204" lon="6.86901">
        <ele>598.3</ele>
        <time>2018-09-09T08:08:56Z</time>
      </trkpt>
      <trkpt lat="43.87208" lon="6.86897">
        <ele>597.3</ele>
        <time>2018-09-09T08:10:56Z</time>
      </trkpt>
      <trkpt lat="43.87226" lon="6.86888">
        <ele>594.5</ele>
        <time>2018-09-09T08:11:01Z</time>
      </trkpt>
      <trkpt lat="43.87246" lon="6.86881">
        <ele>592.6</ele>
        <time>2018-09-09T08:11:06Z</time>
      </trkpt>
      <trkpt lat="43.87264" lon="6.86874">
        <ele>591.5</ele>
        <time>2018-09-09T08:11:12Z</time>
      </trkpt>
      <trkpt lat="43.87282" lon="6.86864">
        <ele>590.6</ele>
        <time>2018-09-09T08:11:19Z</time>
      </trkpt>
      <trkpt lat="43.87289" lon="6.8686">
        <ele>589.8</ele>
        <time>2018-09-09T08:11:25Z</time>
      </trkpt>
      <trkpt lat="43.87299" lon="6.86851">
        <ele>589.2</ele>
        <time>2018-09-09T08:17:38Z</time>
      </trkpt>
      <trkpt lat="43.87318" lon="6.86842">
        <ele>588.9</ele>
        <time>2018-09-09T08:17:45Z</time>
      </trkpt>
      <trkpt lat="43.87336" lon="6.86836">
        <ele>589.3</ele>
        <time>2018-09-09T08:17:52Z</time>
      </trkpt>
      <trkpt lat="43.87356" lon="6.86836">
        <ele>590.6</ele>
        <time>2018-09-09T08:18:00Z</time>
      </trkpt>
      <trkpt lat="43.87376" lon="6.86839">
        <ele>591.7</ele>
        <time>2018-09-09T08:18:07Z</time>
      </trkpt>
      <trkpt lat="43.87396" lon="6.86836">
        <ele>592.9</ele>
        <time>2018-09-09T08:18:15Z</time>
      </trkpt>
      <trkpt lat="43.87415" lon="6.86827">
        <ele>594</ele>
        <time>2018-09-09T08:18:22Z</time>
      </trkpt>
      <trkpt lat="43.87433" lon="6.8682">
        <ele>594.6</ele>
        <time>2018-09-09T08:18:28Z</time>
      </trkpt>
      <trkpt lat="43.87451" lon="6.86812">
        <ele>595.6</ele>
        <time>2018-09-09T08:18:32Z</time>
      </trkpt>
      <trkpt lat="43.87467" lon="6.86797">
        <ele>597</ele>
        <time>2018-09-09T08:18:38Z</time>
      </trkpt>
      <trkpt lat="43.87484" lon="6.86782">
        <ele>598.7</ele>
        <time>2018-09-09T08:18:44Z</time>
      </trkpt>
      <trkpt lat="43.87501" lon="6.86769">
        <ele>599.9</ele>
        <time>2018-09-09T08:18:51Z</time>
      </trkpt>
      <trkpt lat="43.87514" lon="6.86751">
        <ele>600</ele>
        <time>2018-09-09T08:18:59Z</time>
      </trkpt>
      <trkpt lat="43.87515" lon="6.86747">
        <ele>600</ele>
        <time>2018-09-09T08:19:02Z</time>
      </trkpt>
      <trkpt lat="43.87526" lon="6.86741">
        <ele>599.8</ele>
        <time>2018-09-09T08:19:10Z</time>
      </trkpt>
      <trkpt lat="43.87537" lon="6.86721">
        <ele>599.4</ele>
        <time>2018-09-09T08:19:16Z</time>
      </trkpt>
      <trkpt lat="43.87538" lon="6.86716">
        <ele>599.3</ele>
        <time>2018-09-09T08:19:17Z</time>
      </trkpt>
      <trkpt lat="43.87543" lon="6.86687">
        <ele>598.9</ele>
        <time>2018-09-09T08:19:21Z</time>
      </trkpt>
      <trkpt lat="43.87545" lon="6.86661">
        <ele>598.9</ele>
        <time>2018-09-09T08:19:25Z</time>
      </trkpt>
      <trkpt lat="43.87546" lon="6.86632">
        <ele>598.9</ele>
        <time>2018-09-09T08:19:29Z</time>
      </trkpt>
      <trkpt lat="43.87547" lon="6.86626">
        <ele>598.9</ele>
        <time>2018-09-09T08:19:30Z</time>
      </trkpt>
      <trkpt lat="43.87551" lon="6.866">
        <ele>599.2</ele>
        <time>2018-09-09T08:19:35Z</time>
      </trkpt>
      <trkpt lat="43.87562" lon="6.86574">
        <ele>599.5</ele>
        <time>2018-09-09T08:19:41Z</time>
      </trkpt>
      <trkpt lat="43.87575" lon="6.86553">
        <ele>599.2</ele>
        <time>2018-09-09T08:19:46Z</time>
      </trkpt>
      <trkpt lat="43.87587" lon="6.86528">
        <ele>598.4</ele>
        <time>2018-09-09T08:19:51Z</time>
      </trkpt>
      <trkpt lat="43.8759" lon="6.86511">
        <ele>598.1</ele>
        <time>2018-09-09T08:19:53Z</time>
      </trkpt>
      <trkpt lat="43.87595" lon="6.86486">
        <ele>597.8</ele>
        <time>2018-09-09T08:19:56Z</time>
      </trkpt>
      <trkpt lat="43.87596" lon="6.86479">
        <ele>597.7</ele>
        <time>2018-09-09T08:19:57Z</time>
      </trkpt>
      <trkpt lat="43.87593" lon="6.86448">
        <ele>597</ele>
        <time>2018-09-09T08:20:01Z</time>
      </trkpt>
      <trkpt lat="43.87592" lon="6.8642">
        <ele>596.5</ele>
        <time>2018-09-09T08:20:05Z</time>
      </trkpt>
      <trkpt lat="43.87593" lon="6.86393">
        <ele>596.2</ele>
        <time>2018-09-09T08:20:09Z</time>
      </trkpt>
      <trkpt lat="43.87595" lon="6.86388">
        <ele>596.2</ele>
        <time>2018-09-09T08:20:10Z</time>
      </trkpt>
      <trkpt lat="43.87601" lon="6.8636">
        <ele>596</ele>
        <time>2018-09-09T08:20:15Z</time>
      </trkpt>
      <trkpt lat="43.87604" lon="6.86332">
        <ele>596</ele>
        <time>2018-09-09T08:20:20Z</time>
      </trkpt>
      <trkpt lat="43.87605" lon="6.86306">
        <ele>596</ele>
        <time>2018-09-09T08:20:24Z</time>
      </trkpt>
      <trkpt lat="43.87606" lon="6.8628">
        <ele>596.4</ele>
        <time>2018-09-09T08:20:28Z</time>
      </trkpt>
      <trkpt lat="43.87609" lon="6.86253">
        <ele>597.4</ele>
        <time>2018-09-09T08:20:32Z</time>
      </trkpt>
      <trkpt lat="43.87615" lon="6.8623">
        <ele>598.8</ele>
        <time>2018-09-09T08:20:36Z</time>
      </trkpt>
      <trkpt lat="43.87623" lon="6.86207">
        <ele>600</ele>
        <time>2018-09-09T08:20:41Z</time>
      </trkpt>
      <trkpt lat="43.87636" lon="6.86187">
        <ele>600.7</ele>
        <time>2018-09-09T08:20:46Z</time>
      </trkpt>
      <trkpt lat="43.87652" lon="6.86167">
        <ele>602</ele>
        <time>2018-09-09T08:20:51Z</time>
      </trkpt>
      <trkpt lat="43.87665" lon="6.86147">
        <ele>603.4</ele>
        <time>2018-09-09T08:20:56Z</time>
      </trkpt>
      <trkpt lat="43.87672" lon="6.86123">
        <ele>605</ele>
        <time>2018-09-09T08:21:03Z</time>
      </trkpt>
      <trkpt lat="43.87681" lon="6.86099">
        <ele>607</ele>
        <time>2018-09-09T08:21:11Z</time>
      </trkpt>
      <trkpt lat="43.87691" lon="6.86075">
        <ele>608.9</ele>
        <time>2018-09-09T08:21:19Z</time>
      </trkpt>
      <trkpt lat="43.87701" lon="6.86051">
        <ele>611</ele>
        <time>2018-09-09T08:21:27Z</time>
      </trkpt>
      <trkpt lat="43.8771" lon="6.86027">
        <ele>612.4</ele>
        <time>2018-09-09T08:21:35Z</time>
      </trkpt>
      <trkpt lat="43.87712" lon="6.85999">
        <ele>612.8</ele>
        <time>2018-09-09T08:21:43Z</time>
      </trkpt>
      <trkpt lat="43.87707" lon="6.85972">
        <ele>612.5</ele>
        <time>2018-09-09T08:21:49Z</time>
      </trkpt>
      <trkpt lat="43.87705" lon="6.85944">
        <ele>612.7</ele>
        <time>2018-09-09T08:21:56Z</time>
      </trkpt>
      <trkpt lat="43.87703" lon="6.85918">
        <ele>613</ele>
        <time>2018-09-09T08:22:02Z</time>
      </trkpt>
      <trkpt lat="43.87702" lon="6.85889">
        <ele>613.3</ele>
        <time>2018-09-09T08:22:08Z</time>
      </trkpt>
      <trkpt lat="43.87699" lon="6.85861">
        <ele>613.8</ele>
        <time>2018-09-09T08:22:14Z</time>
      </trkpt>
      <trkpt lat="43.87699" lon="6.85835">
        <ele>614.2</ele>
        <time>2018-09-09T08:22:19Z</time>
      </trkpt>
      <trkpt lat="43.87702" lon="6.85809">
        <ele>615.4</ele>
        <time>2018-09-09T08:22:24Z</time>
      </trkpt>
      <trkpt lat="43.87713" lon="6.85783">
        <ele>617</ele>
        <time>2018-09-09T08:22:30Z</time>
      </trkpt>
      <trkpt lat="43.87716" lon="6.85757">
        <ele>617.9</ele>
        <time>2018-09-09T08:22:35Z</time>
      </trkpt>
      <trkpt lat="43.87708" lon="6.85728">
        <ele>617</ele>
        <time>2018-09-09T08:22:41Z</time>
      </trkpt>
      <trkpt lat="43.87705" lon="6.85698">
        <ele>615.8</ele>
        <time>2018-09-09T08:22:47Z</time>
      </trkpt>
      <trkpt lat="43.87702" lon="6.85672">
        <ele>615.6</ele>
        <time>2018-09-09T08:22:51Z</time>
      </trkpt>
      <trkpt lat="43.87702" lon="6.85642">
        <ele>615.9</ele>
        <time>2018-09-09T08:22:56Z</time>
      </trkpt>
      <trkpt lat="43.87702" lon="6.85615">
        <ele>616.3</ele>
        <time>2018-09-09T08:23:00Z</time>
      </trkpt>
      <trkpt lat="43.87703" lon="6.8559">
        <ele>616</ele>
        <time>2018-09-09T08:23:04Z</time>
      </trkpt>
      <trkpt lat="43.87704" lon="6.8556">
        <ele>616.2</ele>
        <time>2018-09-09T08:23:09Z</time>
      </trkpt>
      <trkpt lat="43.87709" lon="6.85536">
        <ele>616.4</ele>
        <time>2018-09-09T08:23:13Z</time>
      </trkpt>
      <trkpt lat="43.87716" lon="6.85512">
        <ele>616.7</ele>
        <time>2018-09-09T08:23:17Z</time>
      </trkpt>
      <trkpt lat="43.87726" lon="6.85491">
        <ele>617.7</ele>
        <time>2018-09-09T08:23:22Z</time>
      </trkpt>
      <trkpt lat="43.87743" lon="6.85476">
        <ele>618.5</ele>
        <time>2018-09-09T08:23:27Z</time>
      </trkpt>
      <trkpt lat="43.87751" lon="6.85466">
        <ele>619</ele>
        <time>2018-09-09T08:23:29Z</time>
      </trkpt>
      <trkpt lat="43.87764" lon="6.85441">
        <ele>620.1</ele>
        <time>2018-09-09T08:23:33Z</time>
      </trkpt>
      <trkpt lat="43.8777" lon="6.85428">
        <ele>620.6</ele>
        <time>2018-09-09T08:23:35Z</time>
      </trkpt>
      <trkpt lat="43.8778" lon="6.85407">
        <ele>621.2</ele>
        <time>2018-09-09T08:23:39Z</time>
      </trkpt>
      <trkpt lat="43.87782" lon="6.85394">
        <ele>620.9</ele>
        <time>2018-09-09T08:23:41Z</time>
      </trkpt>
      <trkpt lat="43.87783" lon="6.85367">
        <ele>620.7</ele>
        <time>2018-09-09T08:23:45Z</time>
      </trkpt>
      <trkpt lat="43.87785" lon="6.85339">
        <ele>621</ele>
        <time>2018-09-09T08:23:49Z</time>
      </trkpt>
      <trkpt lat="43.87785" lon="6.85308">
        <ele>620.5</ele>
        <time>2018-09-09T08:23:54Z</time>
      </trkpt>
      <trkpt lat="43.87783" lon="6.85295">
        <ele>620.5</ele>
        <time>2018-09-09T08:23:56Z</time>
      </trkpt>
      <trkpt lat="43.8778" lon="6.85266">
        <ele>620.3</ele>
        <time>2018-09-09T08:24:01Z</time>
      </trkpt>
      <trkpt lat="43.87784" lon="6.85239">
        <ele>620.7</ele>
        <time>2018-09-09T08:24:06Z</time>
      </trkpt>
      <trkpt lat="43.87782" lon="6.85231">
        <ele>620.9</ele>
        <time>2018-09-09T08:24:07Z</time>
      </trkpt>
      <trkpt lat="43.87771" lon="6.85209">
        <ele>620</ele>
        <time>2018-09-09T08:24:10Z</time>
      </trkpt>
      <trkpt lat="43.87768" lon="6.85203">
        <ele>619.6</ele>
        <time>2018-09-09T08:24:11Z</time>
      </trkpt>
      <trkpt lat="43.87752" lon="6.8518">
        <ele>617.7</ele>
        <time>2018-09-09T08:24:15Z</time>
      </trkpt>
      <trkpt lat="43.87738" lon="6.85159">
        <ele>616.7</ele>
        <time>2018-09-09T08:24:19Z</time>
      </trkpt>
      <trkpt lat="43.87723" lon="6.85143">
        <ele>616.5</ele>
        <time>2018-09-09T08:24:23Z</time>
      </trkpt>
      <trkpt lat="43.87715" lon="6.85126">
        <ele>617.6</ele>
        <time>2018-09-09T08:24:27Z</time>
      </trkpt>
      <trkpt lat="43.87717" lon="6.85099">
        <ele>619.7</ele>
        <time>2018-09-09T08:24:31Z</time>
      </trkpt>
      <trkpt lat="43.87703" lon="6.85085">
        <ele>622.7</ele>
        <time>2018-09-09T08:24:35Z</time>
      </trkpt>
      <trkpt lat="43.87694" lon="6.85082">
        <ele>622</ele>
        <time>2018-09-09T08:24:37Z</time>
      </trkpt>
      <trkpt lat="43.87675" lon="6.85079">
        <ele>620.8</ele>
        <time>2018-09-09T08:24:41Z</time>
      </trkpt>
      <trkpt lat="43.87658" lon="6.8507">
        <ele>620.8</ele>
        <time>2018-09-09T08:24:46Z</time>
      </trkpt>
      <trkpt lat="43.87642" lon="6.85053">
        <ele>622.1</ele>
        <time>2018-09-09T08:24:51Z</time>
      </trkpt>
      <trkpt lat="43.87626" lon="6.85043">
        <ele>624.3</ele>
        <time>2018-09-09T08:24:56Z</time>
      </trkpt>
      <trkpt lat="43.87604" lon="6.85042">
        <ele>623</ele>
        <time>2018-09-09T08:25:01Z</time>
      </trkpt>
      <trkpt lat="43.87583" lon="6.85045">
        <ele>621.7</ele>
        <time>2018-09-09T08:25:06Z</time>
      </trkpt>
      <trkpt lat="43.87565" lon="6.85043">
        <ele>621.9</ele>
        <time>2018-09-09T08:25:11Z</time>
      </trkpt>
      <trkpt lat="43.87545" lon="6.85038">
        <ele>622.6</ele>
        <time>2018-09-09T08:25:18Z</time>
      </trkpt>
      <trkpt lat="43.87527" lon="6.85032">
        <ele>623.4</ele>
        <time>2018-09-09T08:25:25Z</time>
      </trkpt>
      <trkpt lat="43.8751" lon="6.85037">
        <ele>621.5</ele>
        <time>2018-09-09T08:25:33Z</time>
      </trkpt>
      <trkpt lat="43.87491" lon="6.85046">
        <ele>619.3</ele>
        <time>2018-09-09T08:25:42Z</time>
      </trkpt>
      <trkpt lat="43.87473" lon="6.85034">
        <ele>618.8</ele>
        <time>2018-09-09T08:25:51Z</time>
      </trkpt>
      <trkpt lat="43.87466" lon="6.85008">
        <ele>620.4</ele>
        <time>2018-09-09T08:26:00Z</time>
      </trkpt>
      <trkpt lat="43.8747" lon="6.84989">
        <ele>622.4</ele>
        <time>2018-09-09T08:26:10Z</time>
      </trkpt>
      <trkpt lat="43.87489" lon="6.84992">
        <ele>625.6</ele>
        <time>2018-09-09T08:26:18Z</time>
      </trkpt>
      <trkpt lat="43.87507" lon="6.84986">
        <ele>626.9</ele>
        <time>2018-09-09T08:26:24Z</time>
      </trkpt>
      <trkpt lat="43.87527" lon="6.8498">
        <ele>629.3</ele>
        <time>2018-09-09T08:26:30Z</time>
      </trkpt>
      <trkpt lat="43.87544" lon="6.84965">
        <ele>632.3</ele>
        <time>2018-09-09T08:26:37Z</time>
      </trkpt>
      <trkpt lat="43.87555" lon="6.84944">
        <ele>636.5</ele>
        <time>2018-09-09T08:26:44Z</time>
      </trkpt>
      <trkpt lat="43.87566" lon="6.84924">
        <ele>640.6</ele>
        <time>2018-09-09T08:26:51Z</time>
      </trkpt>
      <trkpt lat="43.87577" lon="6.84903">
        <ele>644.5</ele>
        <time>2018-09-09T08:26:59Z</time>
      </trkpt>
      <trkpt lat="43.87591" lon="6.84885">
        <ele>648</ele>
        <time>2018-09-09T08:27:07Z</time>
      </trkpt>
      <trkpt lat="43.87602" lon="6.8486">
        <ele>649.9</ele>
        <time>2018-09-09T08:27:15Z</time>
      </trkpt>
      <trkpt lat="43.87614" lon="6.84841">
        <ele>652</ele>
        <time>2018-09-09T08:27:23Z</time>
      </trkpt>
      <trkpt lat="43.8762" lon="6.84815">
        <ele>654.5</ele>
        <time>2018-09-09T08:27:32Z</time>
      </trkpt>
      <trkpt lat="43.87622" lon="6.84788">
        <ele>656.2</ele>
        <time>2018-09-09T08:27:41Z</time>
      </trkpt>
      <trkpt lat="43.87624" lon="6.84762">
        <ele>657.9</ele>
        <time>2018-09-09T08:27:49Z</time>
      </trkpt>
      <trkpt lat="43.87631" lon="6.84737">
        <ele>659.3</ele>
        <time>2018-09-09T08:27:59Z</time>
      </trkpt>
      <trkpt lat="43.87638" lon="6.84711">
        <ele>660.3</ele>
        <time>2018-09-09T08:28:08Z</time>
      </trkpt>
      <trkpt lat="43.87647" lon="6.84688">
        <ele>662</ele>
        <time>2018-09-09T08:28:16Z</time>
      </trkpt>
      <trkpt lat="43.87661" lon="6.84672">
        <ele>664.4</ele>
        <time>2018-09-09T08:28:24Z</time>
      </trkpt>
      <trkpt lat="43.87673" lon="6.84651">
        <ele>667.5</ele>
        <time>2018-09-09T08:28:31Z</time>
      </trkpt>
      <trkpt lat="43.8767" lon="6.84625">
        <ele>669.2</ele>
        <time>2018-09-09T08:28:37Z</time>
      </trkpt>
      <trkpt lat="43.87674" lon="6.84599">
        <ele>670.9</ele>
        <time>2018-09-09T08:28:42Z</time>
      </trkpt>
      <trkpt lat="43.87666" lon="6.84574">
        <ele>672.6</ele>
        <time>2018-09-09T08:28:47Z</time>
      </trkpt>
      <trkpt lat="43.8766" lon="6.84548">
        <ele>672.8</ele>
        <time>2018-09-09T08:28:53Z</time>
      </trkpt>
      <trkpt lat="43.87654" lon="6.84521">
        <ele>672.8</ele>
        <time>2018-09-09T08:28:59Z</time>
      </trkpt>
      <trkpt lat="43.87651" lon="6.84496">
        <ele>672.4</ele>
        <time>2018-09-09T08:29:05Z</time>
      </trkpt>
      <trkpt lat="43.87647" lon="6.8447">
        <ele>671.6</ele>
        <time>2018-09-09T08:29:11Z</time>
      </trkpt>
      <trkpt lat="43.87649" lon="6.84443">
        <ele>670.6</ele>
        <time>2018-09-09T08:29:19Z</time>
      </trkpt>
      <trkpt lat="43.87658" lon="6.84419">
        <ele>670.7</ele>
        <time>2018-09-09T08:29:26Z</time>
      </trkpt>
      <trkpt lat="43.8766" lon="6.84393">
        <ele>671</ele>
        <time>2018-09-09T08:29:33Z</time>
      </trkpt>
      <trkpt lat="43.87671" lon="6.84372">
        <ele>671.6</ele>
        <time>2018-09-09T08:29:41Z</time>
      </trkpt>
      <trkpt lat="43.87685" lon="6.84352">
        <ele>674</ele>
        <time>2018-09-09T08:29:50Z</time>
      </trkpt>
      <trkpt lat="43.87695" lon="6.8433">
        <ele>675.9</ele>
        <time>2018-09-09T08:29:57Z</time>
      </trkpt>
      <trkpt lat="43.87708" lon="6.84311">
        <ele>678</ele>
        <time>2018-09-09T08:30:03Z</time>
      </trkpt>
      <trkpt lat="43.87715" lon="6.84286">
        <ele>680.5</ele>
        <time>2018-09-09T08:30:09Z</time>
      </trkpt>
      <trkpt lat="43.87712" lon="6.84278">
        <ele>681.4</ele>
        <time>2018-09-09T08:30:10Z</time>
      </trkpt>
      <trkpt lat="43.87705" lon="6.84251">
        <ele>683.3</ele>
        <time>2018-09-09T08:30:16Z</time>
      </trkpt>
      <trkpt lat="43.87697" lon="6.84226">
        <ele>684.3</ele>
        <time>2018-09-09T08:30:22Z</time>
      </trkpt>
      <trkpt lat="43.87692" lon="6.84198">
        <ele>684.7</ele>
        <time>2018-09-09T08:30:28Z</time>
      </trkpt>
      <trkpt lat="43.87688" lon="6.84173">
        <ele>684.7</ele>
        <time>2018-09-09T08:30:33Z</time>
      </trkpt>
      <trkpt lat="43.87686" lon="6.84144">
        <ele>684.7</ele>
        <time>2018-09-09T08:30:39Z</time>
      </trkpt>
      <trkpt lat="43.8768" lon="6.84119">
        <ele>685.2</ele>
        <time>2018-09-09T08:30:44Z</time>
      </trkpt>
      <trkpt lat="43.87669" lon="6.84096">
        <ele>684.9</ele>
        <time>2018-09-09T08:30:49Z</time>
      </trkpt>
      <trkpt lat="43.87669" lon="6.84085">
        <ele>684.6</ele>
        <time>2018-09-09T08:30:51Z</time>
      </trkpt>
      <trkpt lat="43.87674" lon="6.8406">
        <ele>685.8</ele>
        <time>2018-09-09T08:30:55Z</time>
      </trkpt>
      <trkpt lat="43.87681" lon="6.84037">
        <ele>688.1</ele>
        <time>2018-09-09T08:30:59Z</time>
      </trkpt>
      <trkpt lat="43.87687" lon="6.84009">
        <ele>690.9</ele>
        <time>2018-09-09T08:31:04Z</time>
      </trkpt>
      <trkpt lat="43.87688" lon="6.83983">
        <ele>693.3</ele>
        <time>2018-09-09T08:31:09Z</time>
      </trkpt>
      <trkpt lat="43.87688" lon="6.83957">
        <ele>694</ele>
        <time>2018-09-09T08:31:14Z</time>
      </trkpt>
      <trkpt lat="43.87686" lon="6.83932">
        <ele>695.1</ele>
        <time>2018-09-09T08:31:19Z</time>
      </trkpt>
      <trkpt lat="43.87676" lon="6.83908">
        <ele>694.5</ele>
        <time>2018-09-09T08:31:24Z</time>
      </trkpt>
      <trkpt lat="43.87663" lon="6.83888">
        <ele>691.7</ele>
        <time>2018-09-09T08:31:30Z</time>
      </trkpt>
      <trkpt lat="43.87658" lon="6.83864">
        <ele>689.3</ele>
        <time>2018-09-09T08:31:36Z</time>
      </trkpt>
      <trkpt lat="43.87666" lon="6.83838">
        <ele>688.7</ele>
        <time>2018-09-09T08:31:42Z</time>
      </trkpt>
      <trkpt lat="43.8768" lon="6.83822">
        <ele>689.8</ele>
        <time>2018-09-09T08:31:51Z</time>
      </trkpt>
      <trkpt lat="43.87688" lon="6.83819">
        <ele>690.1</ele>
        <time>2018-09-09T08:31:58Z</time>
      </trkpt>
      <trkpt lat="43.87685" lon="6.83812">
        <ele>689.6</ele>
        <time>2018-09-09T08:32:36Z</time>
      </trkpt>
      <trkpt lat="43.87676" lon="6.8379">
        <ele>687.8</ele>
        <time>2018-09-09T08:32:48Z</time>
      </trkpt>
      <trkpt lat="43.8767" lon="6.83777">
        <ele>686.8</ele>
        <time>2018-09-09T08:32:57Z</time>
      </trkpt>
      <trkpt lat="43.8766" lon="6.83751">
        <ele>685.8</ele>
        <time>2018-09-09T08:33:40Z</time>
      </trkpt>
      <trkpt lat="43.87652" lon="6.83728">
        <ele>685.9</ele>
        <time>2018-09-09T08:33:49Z</time>
      </trkpt>
      <trkpt lat="43.87648" lon="6.83701">
        <ele>687.2</ele>
        <time>2018-09-09T08:33:56Z</time>
      </trkpt>
      <trkpt lat="43.87648" lon="6.83676">
        <ele>688.9</ele>
        <time>2018-09-09T08:34:02Z</time>
      </trkpt>
      <trkpt lat="43.8765" lon="6.8365">
        <ele>689.9</ele>
        <time>2018-09-09T08:34:08Z</time>
      </trkpt>
      <trkpt lat="43.87633" lon="6.83635">
        <ele>688.1</ele>
        <time>2018-09-09T08:34:15Z</time>
      </trkpt>
      <trkpt lat="43.87616" lon="6.83622">
        <ele>686.6</ele>
        <time>2018-09-09T08:34:21Z</time>
      </trkpt>
      <trkpt lat="43.87604" lon="6.83597">
        <ele>686.7</ele>
        <time>2018-09-09T08:34:27Z</time>
      </trkpt>
      <trkpt lat="43.87595" lon="6.83571">
        <ele>686.1</ele>
        <time>2018-09-09T08:34:33Z</time>
      </trkpt>
      <trkpt lat="43.87585" lon="6.83557">
        <ele>686.5</ele>
        <time>2018-09-09T08:34:36Z</time>
      </trkpt>
      <trkpt lat="43.87577" lon="6.83547">
        <ele>687.7</ele>
        <time>2018-09-09T08:34:38Z</time>
      </trkpt>
      <trkpt lat="43.8757" lon="6.83516">
        <ele>690</ele>
        <time>2018-09-09T08:34:42Z</time>
      </trkpt>
      <trkpt lat="43.87564" lon="6.83491">
        <ele>691.4</ele>
        <time>2018-09-09T08:34:45Z</time>
      </trkpt>
      <trkpt lat="43.87542" lon="6.83483">
        <ele>690.7</ele>
        <time>2018-09-09T08:34:48Z</time>
      </trkpt>
      <trkpt lat="43.87522" lon="6.83487">
        <ele>686.7</ele>
        <time>2018-09-09T08:34:51Z</time>
      </trkpt>
      <trkpt lat="43.87502" lon="6.83492">
        <ele>688.1</ele>
        <time>2018-09-09T08:34:57Z</time>
      </trkpt>
      <trkpt lat="43.87484" lon="6.83488">
        <ele>693.3</ele>
        <time>2018-09-09T08:35:04Z</time>
      </trkpt>
      <trkpt lat="43.87465" lon="6.83482">
        <ele>700.7</ele>
        <time>2018-09-09T08:35:13Z</time>
      </trkpt>
      <trkpt lat="43.8745" lon="6.83469">
        <ele>706.8</ele>
        <time>2018-09-09T08:35:21Z</time>
      </trkpt>
      <trkpt lat="43.87441" lon="6.83448">
        <ele>710.7</ele>
        <time>2018-09-09T08:35:29Z</time>
      </trkpt>
      <trkpt lat="43.87453" lon="6.83429">
        <ele>708</ele>
        <time>2018-09-09T08:35:38Z</time>
      </trkpt>
      <trkpt lat="43.8747" lon="6.83413">
        <ele>701.9</ele>
        <time>2018-09-09T08:35:47Z</time>
      </trkpt>
      <trkpt lat="43.8748" lon="6.83392">
        <ele>700.4</ele>
        <time>2018-09-09T08:35:55Z</time>
      </trkpt>
      <trkpt lat="43.87489" lon="6.83368">
        <ele>702.3</ele>
        <time>2018-09-09T08:36:06Z</time>
      </trkpt>
      <trkpt lat="43.87494" lon="6.83342">
        <ele>705.2</ele>
        <time>2018-09-09T08:36:15Z</time>
      </trkpt>
      <trkpt lat="43.87489" lon="6.83314">
        <ele>708.4</ele>
        <time>2018-09-09T08:36:22Z</time>
      </trkpt>
      <trkpt lat="43.87488" lon="6.83288">
        <ele>711.6</ele>
        <time>2018-09-09T08:36:30Z</time>
      </trkpt>
      <trkpt lat="43.87499" lon="6.83263">
        <ele>715.7</ele>
        <time>2018-09-09T08:36:39Z</time>
      </trkpt>
      <trkpt lat="43.87505" lon="6.83238">
        <ele>720.4</ele>
        <time>2018-09-09T08:36:45Z</time>
      </trkpt>
      <trkpt lat="43.87511" lon="6.83214">
        <ele>721.3</ele>
        <time>2018-09-09T08:36:51Z</time>
      </trkpt>
      <trkpt lat="43.8752" lon="6.83191">
        <ele>721.5</ele>
        <time>2018-09-09T08:36:58Z</time>
      </trkpt>
      <trkpt lat="43.87526" lon="6.83164">
        <ele>722</ele>
        <time>2018-09-09T08:37:05Z</time>
      </trkpt>
      <trkpt lat="43.87532" lon="6.8314">
        <ele>721.2</ele>
        <time>2018-09-09T08:37:13Z</time>
      </trkpt>
      <trkpt lat="43.87535" lon="6.83113">
        <ele>722.2</ele>
        <time>2018-09-09T08:37:20Z</time>
      </trkpt>
      <trkpt lat="43.87538" lon="6.83088">
        <ele>724</ele>
        <time>2018-09-09T08:37:28Z</time>
      </trkpt>
      <trkpt lat="43.87543" lon="6.83063">
        <ele>724.6</ele>
        <time>2018-09-09T08:37:36Z</time>
      </trkpt>
      <trkpt lat="43.87547" lon="6.83037">
        <ele>726.4</ele>
        <time>2018-09-09T08:37:44Z</time>
      </trkpt>
      <trkpt lat="43.8755" lon="6.83011">
        <ele>728.2</ele>
        <time>2018-09-09T08:37:52Z</time>
      </trkpt>
      <trkpt lat="43.87551" lon="6.82985">
        <ele>728.7</ele>
        <time>2018-09-09T08:37:58Z</time>
      </trkpt>
      <trkpt lat="43.8755" lon="6.82956">
        <ele>730.3</ele>
        <time>2018-09-09T08:38:05Z</time>
      </trkpt>
      <trkpt lat="43.87551" lon="6.82931">
        <ele>730.9</ele>
        <time>2018-09-09T08:38:12Z</time>
      </trkpt>
      <trkpt lat="43.87549" lon="6.82903">
        <ele>734.1</ele>
        <time>2018-09-09T08:38:19Z</time>
      </trkpt>
      <trkpt lat="43.87551" lon="6.82877">
        <ele>736.1</ele>
        <time>2018-09-09T08:38:26Z</time>
      </trkpt>
      <trkpt lat="43.87556" lon="6.82852">
        <ele>739.4</ele>
        <time>2018-09-09T08:38:34Z</time>
      </trkpt>
      <trkpt lat="43.87566" lon="6.8283">
        <ele>741.8</ele>
        <time>2018-09-09T08:38:43Z</time>
      </trkpt>
      <trkpt lat="43.8757" lon="6.82802">
        <ele>742.1</ele>
        <time>2018-09-09T08:38:51Z</time>
      </trkpt>
      <trkpt lat="43.87567" lon="6.82773">
        <ele>746.5</ele>
        <time>2018-09-09T08:38:58Z</time>
      </trkpt>
      <trkpt lat="43.87563" lon="6.82746">
        <ele>749.2</ele>
        <time>2018-09-09T08:39:05Z</time>
      </trkpt>
      <trkpt lat="43.87561" lon="6.8272">
        <ele>750.6</ele>
        <time>2018-09-09T08:39:13Z</time>
      </trkpt>
      <trkpt lat="43.87562" lon="6.82694">
        <ele>752.3</ele>
        <time>2018-09-09T08:39:22Z</time>
      </trkpt>
      <trkpt lat="43.87554" lon="6.8267">
        <ele>753.1</ele>
        <time>2018-09-09T08:39:30Z</time>
      </trkpt>
      <trkpt lat="43.87544" lon="6.82647">
        <ele>755.1</ele>
        <time>2018-09-09T08:39:38Z</time>
      </trkpt>
      <trkpt lat="43.87539" lon="6.8262">
        <ele>755.7</ele>
        <time>2018-09-09T08:39:47Z</time>
      </trkpt>
      <trkpt lat="43.87533" lon="6.82596">
        <ele>756.3</ele>
        <time>2018-09-09T08:39:55Z</time>
      </trkpt>
      <trkpt lat="43.87525" lon="6.82573">
        <ele>757.5</ele>
        <time>2018-09-09T08:40:02Z</time>
      </trkpt>
      <trkpt lat="43.87515" lon="6.8255">
        <ele>758.2</ele>
        <time>2018-09-09T08:40:10Z</time>
      </trkpt>
      <trkpt lat="43.87505" lon="6.82527">
        <ele>760.7</ele>
        <time>2018-09-09T08:40:18Z</time>
      </trkpt>
      <trkpt lat="43.87496" lon="6.82501">
        <ele>762.6</ele>
        <time>2018-09-09T08:40:25Z</time>
      </trkpt>
      <trkpt lat="43.87489" lon="6.82479">
        <ele>764.1</ele>
        <time>2018-09-09T08:40:31Z</time>
      </trkpt>
      <trkpt lat="43.87478" lon="6.82456">
        <ele>766.4</ele>
        <time>2018-09-09T08:40:38Z</time>
      </trkpt>
      <trkpt lat="43.87468" lon="6.82433">
        <ele>768.3</ele>
        <time>2018-09-09T08:40:45Z</time>
      </trkpt>
      <trkpt lat="43.87464" lon="6.82409">
        <ele>767.6</ele>
        <time>2018-09-09T08:40:50Z</time>
      </trkpt>
      <trkpt lat="43.87464" lon="6.82381">
        <ele>767.6</ele>
        <time>2018-09-09T08:40:55Z</time>
      </trkpt>
      <trkpt lat="43.87462" lon="6.82351">
        <ele>767.1</ele>
        <time>2018-09-09T08:41:00Z</time>
      </trkpt>
      <trkpt lat="43.87461" lon="6.82324">
        <ele>767.6</ele>
        <time>2018-09-09T08:41:04Z</time>
      </trkpt>
      <trkpt lat="43.8746" lon="6.82299">
        <ele>765.9</ele>
        <time>2018-09-09T08:41:08Z</time>
      </trkpt>
      <trkpt lat="43.87462" lon="6.8227">
        <ele>764.6</ele>
        <time>2018-09-09T08:41:13Z</time>
      </trkpt>
      <trkpt lat="43.8746" lon="6.82244">
        <ele>764.2</ele>
        <time>2018-09-09T08:41:19Z</time>
      </trkpt>
      <trkpt lat="43.87456" lon="6.8222">
        <ele>765.8</ele>
        <time>2018-09-09T08:41:24Z</time>
      </trkpt>
      <trkpt lat="43.87451" lon="6.82194">
        <ele>769.4</ele>
        <time>2018-09-09T08:41:30Z</time>
      </trkpt>
      <trkpt lat="43.87447" lon="6.82167">
        <ele>772</ele>
        <time>2018-09-09T08:41:36Z</time>
      </trkpt>
      <trkpt lat="43.87442" lon="6.82141">
        <ele>773.8</ele>
        <time>2018-09-09T08:41:41Z</time>
      </trkpt>
      <trkpt lat="43.87437" lon="6.82117">
        <ele>774.9</ele>
        <time>2018-09-09T08:41:46Z</time>
      </trkpt>
      <trkpt lat="43.87434" lon="6.82089">
        <ele>776.7</ele>
        <time>2018-09-09T08:41:52Z</time>
      </trkpt>
      <trkpt lat="43.87431" lon="6.82062">
        <ele>775.9</ele>
        <time>2018-09-09T08:41:58Z</time>
      </trkpt>
      <trkpt lat="43.87429" lon="6.82034">
        <ele>777.2</ele>
        <time>2018-09-09T08:42:04Z</time>
      </trkpt>
      <trkpt lat="43.87428" lon="6.82009">
        <ele>777.2</ele>
        <time>2018-09-09T08:42:10Z</time>
      </trkpt>
      <trkpt lat="43.87419" lon="6.81987">
        <ele>782.9</ele>
        <time>2018-09-09T08:42:15Z</time>
      </trkpt>
      <trkpt lat="43.87426" lon="6.81965">
        <ele>777.8</ele>
        <time>2018-09-09T08:42:20Z</time>
      </trkpt>
      <trkpt lat="43.8743" lon="6.8196">
        <ele>777.2</ele>
        <time>2018-09-09T08:42:22Z</time>
      </trkpt>
      <trkpt lat="43.87441" lon="6.81938">
        <ele>775.6</ele>
        <time>2018-09-09T08:42:28Z</time>
      </trkpt>
      <trkpt lat="43.87442" lon="6.81909">
        <ele>775.4</ele>
        <time>2018-09-09T08:42:33Z</time>
      </trkpt>
      <trkpt lat="43.87437" lon="6.81881">
        <ele>777.4</ele>
        <time>2018-09-09T08:42:39Z</time>
      </trkpt>
      <trkpt lat="43.87434" lon="6.81856">
        <ele>779.2</ele>
        <time>2018-09-09T08:42:45Z</time>
      </trkpt>
      <trkpt lat="43.87429" lon="6.81827">
        <ele>782.6</ele>
        <time>2018-09-09T08:42:52Z</time>
      </trkpt>
      <trkpt lat="43.87424" lon="6.81803">
        <ele>785.9</ele>
        <time>2018-09-09T08:42:58Z</time>
      </trkpt>
      <trkpt lat="43.8742" lon="6.81778">
        <ele>789.3</ele>
        <time>2018-09-09T08:43:04Z</time>
      </trkpt>
      <trkpt lat="43.87415" lon="6.81753">
        <ele>790.8</ele>
        <time>2018-09-09T08:43:10Z</time>
      </trkpt>
      <trkpt lat="43.87421" lon="6.8173">
        <ele>790.7</ele>
        <time>2018-09-09T08:43:16Z</time>
      </trkpt>
      <trkpt lat="43.87419" lon="6.81704">
        <ele>791.9</ele>
        <time>2018-09-09T08:43:22Z</time>
      </trkpt>
      <trkpt lat="43.87402" lon="6.81689">
        <ele>795.9</ele>
        <time>2018-09-09T08:43:27Z</time>
      </trkpt>
      <trkpt lat="43.87406" lon="6.81665">
        <ele>793.3</ele>
        <time>2018-09-09T08:43:32Z</time>
      </trkpt>
      <trkpt lat="43.87402" lon="6.81643">
        <ele>795.3</ele>
        <time>2018-09-09T08:43:36Z</time>
      </trkpt>
      <trkpt lat="43.87399" lon="6.81631">
        <ele>795.7</ele>
        <time>2018-09-09T08:43:38Z</time>
      </trkpt>
      <trkpt lat="43.87396" lon="6.81602">
        <ele>797.2</ele>
        <time>2018-09-09T08:43:43Z</time>
      </trkpt>
      <trkpt lat="43.87394" lon="6.81575">
        <ele>799.5</ele>
        <time>2018-09-09T08:43:48Z</time>
      </trkpt>
      <trkpt lat="43.87392" lon="6.8155">
        <ele>801.3</ele>
        <time>2018-09-09T08:43:52Z</time>
      </trkpt>
      <trkpt lat="43.8739" lon="6.81521">
        <ele>803.4</ele>
        <time>2018-09-09T08:43:57Z</time>
      </trkpt>
      <trkpt lat="43.87389" lon="6.81495">
        <ele>804.9</ele>
        <time>2018-09-09T08:44:03Z</time>
      </trkpt>
      <trkpt lat="43.87389" lon="6.81468">
        <ele>806.8</ele>
        <time>2018-09-09T08:44:09Z</time>
      </trkpt>
      <trkpt lat="43.87389" lon="6.81443">
        <ele>808.1</ele>
        <time>2018-09-09T08:44:14Z</time>
      </trkpt>
      <trkpt lat="43.87386" lon="6.81418">
        <ele>809.1</ele>
        <time>2018-09-09T08:44:19Z</time>
      </trkpt>
      <trkpt lat="43.87384" lon="6.81393">
        <ele>810.9</ele>
        <time>2018-09-09T08:44:24Z</time>
      </trkpt>
      <trkpt lat="43.87381" lon="6.81365">
        <ele>812.2</ele>
        <time>2018-09-09T08:44:30Z</time>
      </trkpt>
      <trkpt lat="43.87376" lon="6.81339">
        <ele>813.5</ele>
        <time>2018-09-09T08:44:35Z</time>
      </trkpt>
      <trkpt lat="43.8737" lon="6.81314">
        <ele>814.5</ele>
        <time>2018-09-09T08:44:40Z</time>
      </trkpt>
      <trkpt lat="43.87366" lon="6.81284">
        <ele>814.8</ele>
        <time>2018-09-09T08:44:46Z</time>
      </trkpt>
      <trkpt lat="43.87363" lon="6.81257">
        <ele>815.2</ele>
        <time>2018-09-09T08:44:51Z</time>
      </trkpt>
      <trkpt lat="43.87363" lon="6.81229">
        <ele>815.8</ele>
        <time>2018-09-09T08:44:56Z</time>
      </trkpt>
      <trkpt lat="43.87363" lon="6.81202">
        <ele>816.9</ele>
        <time>2018-09-09T08:45:01Z</time>
      </trkpt>
      <trkpt lat="43.87369" lon="6.81174">
        <ele>818.4</ele>
        <time>2018-09-09T08:45:07Z</time>
      </trkpt>
      <trkpt lat="43.87378" lon="6.8115">
        <ele>818.9</ele>
        <time>2018-09-09T08:45:12Z</time>
      </trkpt>
      <trkpt lat="43.87381" lon="6.81123">
        <ele>818.8</ele>
        <time>2018-09-09T08:45:17Z</time>
      </trkpt>
      <trkpt lat="43.87381" lon="6.81094">
        <ele>819.9</ele>
        <time>2018-09-09T08:45:22Z</time>
      </trkpt>
      <trkpt lat="43.87386" lon="6.81067">
        <ele>820.9</ele>
        <time>2018-09-09T08:45:27Z</time>
      </trkpt>
      <trkpt lat="43.87397" lon="6.81046">
        <ele>819.2</ele>
        <time>2018-09-09T08:45:32Z</time>
      </trkpt>
      <trkpt lat="43.87409" lon="6.81023">
        <ele>817.6</ele>
        <time>2018-09-09T08:45:38Z</time>
      </trkpt>
      <trkpt lat="43.87415" lon="6.81014">
        <ele>816.7</ele>
        <time>2018-09-09T08:45:41Z</time>
      </trkpt>
      <trkpt lat="43.87411" lon="6.81004">
        <ele>816.1</ele>
        <time>2018-09-09T08:45:49Z</time>
      </trkpt>
      <trkpt lat="43.87407" lon="6.80996">
        <ele>816.8</ele>
        <time>2018-09-09T08:46:31Z</time>
      </trkpt>
      <trkpt lat="43.87393" lon="6.8098">
        <ele>817.8</ele>
        <time>2018-09-09T08:46:36Z</time>
      </trkpt>
      <trkpt lat="43.87381" lon="6.80959">
        <ele>818.4</ele>
        <time>2018-09-09T08:46:42Z</time>
      </trkpt>
      <trkpt lat="43.87368" lon="6.80939">
        <ele>818.2</ele>
        <time>2018-09-09T08:46:48Z</time>
      </trkpt>
      <trkpt lat="43.87367" lon="6.80935">
        <ele>818.2</ele>
        <time>2018-09-09T08:46:49Z</time>
      </trkpt>
      <trkpt lat="43.87362" lon="6.80909">
        <ele>816.9</ele>
        <time>2018-09-09T08:46:56Z</time>
      </trkpt>
      <trkpt lat="43.87359" lon="6.80895">
        <ele>815.8</ele>
        <time>2018-09-09T08:47:00Z</time>
      </trkpt>
      <trkpt lat="43.87348" lon="6.80873">
        <ele>813.5</ele>
        <time>2018-09-09T08:47:08Z</time>
      </trkpt>
      <trkpt lat="43.87343" lon="6.80848">
        <ele>814.1</ele>
        <time>2018-09-09T08:47:17Z</time>
      </trkpt>
      <trkpt lat="43.87326" lon="6.80837">
        <ele>815.6</ele>
        <time>2018-09-09T08:47:26Z</time>
      </trkpt>
      <trkpt lat="43.87307" lon="6.80838">
        <ele>816.9</ele>
        <time>2018-09-09T08:47:34Z</time>
      </trkpt>
      <trkpt lat="43.8729" lon="6.80831">
        <ele>818.5</ele>
        <time>2018-09-09T08:47:43Z</time>
      </trkpt>
      <trkpt lat="43.87285" lon="6.80829">
        <ele>818.8</ele>
        <time>2018-09-09T08:47:47Z</time>
      </trkpt>
      <trkpt lat="43.87278" lon="6.80821">
        <ele>820</ele>
        <time>2018-09-09T08:47:53Z</time>
      </trkpt>
      <trkpt lat="43.87262" lon="6.80811">
        <ele>821.6</ele>
        <time>2018-09-09T08:48:00Z</time>
      </trkpt>
      <trkpt lat="43.87245" lon="6.808">
        <ele>822.8</ele>
        <time>2018-09-09T08:48:08Z</time>
      </trkpt>
      <trkpt lat="43.87226" lon="6.80794">
        <ele>822.4</ele>
        <time>2018-09-09T08:48:14Z</time>
      </trkpt>
      <trkpt lat="43.87207" lon="6.8079">
        <ele>821.2</ele>
        <time>2018-09-09T08:48:19Z</time>
      </trkpt>
      <trkpt lat="43.87188" lon="6.80783">
        <ele>820</ele>
        <time>2018-09-09T08:48:25Z</time>
      </trkpt>
      <trkpt lat="43.87168" lon="6.80775">
        <ele>818</ele>
        <time>2018-09-09T08:48:30Z</time>
      </trkpt>
      <trkpt lat="43.87149" lon="6.80772">
        <ele>816.1</ele>
        <time>2018-09-09T08:48:34Z</time>
      </trkpt>
      <trkpt lat="43.87133" lon="6.80787">
        <ele>814.2</ele>
        <time>2018-09-09T08:48:38Z</time>
      </trkpt>
      <trkpt lat="43.87117" lon="6.80801">
        <ele>812.4</ele>
        <time>2018-09-09T08:48:42Z</time>
      </trkpt>
      <trkpt lat="43.87098" lon="6.80817">
        <ele>810.4</ele>
        <time>2018-09-09T08:48:46Z</time>
      </trkpt>
      <trkpt lat="43.87086" lon="6.80839">
        <ele>809.3</ele>
        <time>2018-09-09T08:48:50Z</time>
      </trkpt>
      <trkpt lat="43.87074" lon="6.80827">
        <ele>807.6</ele>
        <time>2018-09-09T08:48:55Z</time>
      </trkpt>
      <trkpt lat="43.87071" lon="6.80821">
        <ele>807.3</ele>
        <time>2018-09-09T08:48:56Z</time>
      </trkpt>
      <trkpt lat="43.87058" lon="6.80803">
        <ele>805.8</ele>
        <time>2018-09-09T08:49:00Z</time>
      </trkpt>
      <trkpt lat="43.87044" lon="6.80791">
        <ele>804.3</ele>
        <time>2018-09-09T08:49:03Z</time>
      </trkpt>
      <trkpt lat="43.87027" lon="6.80781">
        <ele>803.3</ele>
        <time>2018-09-09T08:49:07Z</time>
      </trkpt>
      <trkpt lat="43.87013" lon="6.80758">
        <ele>801</ele>
        <time>2018-09-09T08:49:11Z</time>
      </trkpt>
      <trkpt lat="43.86997" lon="6.80733">
        <ele>799.1</ele>
        <time>2018-09-09T08:49:15Z</time>
      </trkpt>
      <trkpt lat="43.86983" lon="6.80711">
        <ele>797.8</ele>
        <time>2018-09-09T08:49:18Z</time>
      </trkpt>
      <trkpt lat="43.86979" lon="6.80703">
        <ele>797.3</ele>
        <time>2018-09-09T08:49:19Z</time>
      </trkpt>
      <trkpt lat="43.86963" lon="6.80683">
        <ele>796.1</ele>
        <time>2018-09-09T08:49:22Z</time>
      </trkpt>
      <trkpt lat="43.86951" lon="6.80661">
        <ele>794.5</ele>
        <time>2018-09-09T08:49:25Z</time>
      </trkpt>
      <trkpt lat="43.8694" lon="6.80639">
        <ele>793.3</ele>
        <time>2018-09-09T08:49:28Z</time>
      </trkpt>
      <trkpt lat="43.8693" lon="6.8062">
        <ele>791.6</ele>
        <time>2018-09-09T08:49:31Z</time>
      </trkpt>
      <trkpt lat="43.86923" lon="6.80591">
        <ele>788.9</ele>
        <time>2018-09-09T08:49:35Z</time>
      </trkpt>
      <trkpt lat="43.86917" lon="6.80564">
        <ele>786.6</ele>
        <time>2018-09-09T08:49:38Z</time>
      </trkpt>
      <trkpt lat="43.86912" lon="6.80546">
        <ele>785</ele>
        <time>2018-09-09T08:49:40Z</time>
      </trkpt>
      <trkpt lat="43.86903" lon="6.80521">
        <ele>783</ele>
        <time>2018-09-09T08:49:43Z</time>
      </trkpt>
      <trkpt lat="43.86899" lon="6.80514">
        <ele>781.9</ele>
        <time>2018-09-09T08:49:44Z</time>
      </trkpt>
      <trkpt lat="43.86892" lon="6.80496">
        <ele>780.1</ele>
        <time>2018-09-09T08:49:46Z</time>
      </trkpt>
      <trkpt lat="43.86884" lon="6.80478">
        <ele>778.4</ele>
        <time>2018-09-09T08:49:48Z</time>
      </trkpt>
      <trkpt lat="43.86867" lon="6.80451">
        <ele>775.4</ele>
        <time>2018-09-09T08:49:51Z</time>
      </trkpt>
      <trkpt lat="43.86849" lon="6.80425">
        <ele>773</ele>
        <time>2018-09-09T08:49:54Z</time>
      </trkpt>
      <trkpt lat="43.8683" lon="6.804">
        <ele>769.7</ele>
        <time>2018-09-09T08:49:57Z</time>
      </trkpt>
      <trkpt lat="43.86812" lon="6.80372">
        <ele>765.5</ele>
        <time>2018-09-09T08:50:00Z</time>
      </trkpt>
      <trkpt lat="43.86797" lon="6.80344">
        <ele>761.7</ele>
        <time>2018-09-09T08:50:03Z</time>
      </trkpt>
      <trkpt lat="43.86784" lon="6.80317">
        <ele>757.4</ele>
        <time>2018-09-09T08:50:06Z</time>
      </trkpt>
      <trkpt lat="43.86776" lon="6.80286">
        <ele>754.5</ele>
        <time>2018-09-09T08:50:09Z</time>
      </trkpt>
      <trkpt lat="43.86774" lon="6.80279">
        <ele>754</ele>
        <time>2018-09-09T08:50:10Z</time>
      </trkpt>
      <trkpt lat="43.86774" lon="6.80271">
        <ele>753.6</ele>
        <time>2018-09-09T08:50:11Z</time>
      </trkpt>
      <trkpt lat="43.86767" lon="6.80247">
        <ele>753.9</ele>
        <time>2018-09-09T08:50:14Z</time>
      </trkpt>
      <trkpt lat="43.86749" lon="6.80231">
        <ele>755.3</ele>
        <time>2018-09-09T08:50:17Z</time>
      </trkpt>
      <trkpt lat="43.86743" lon="6.80226">
        <ele>755.5</ele>
        <time>2018-09-09T08:50:18Z</time>
      </trkpt>
      <trkpt lat="43.86725" lon="6.80213">
        <ele>755.9</ele>
        <time>2018-09-09T08:50:21Z</time>
      </trkpt>
      <trkpt lat="43.86707" lon="6.80201">
        <ele>754.3</ele>
        <time>2018-09-09T08:50:24Z</time>
      </trkpt>
      <trkpt lat="43.86689" lon="6.8019">
        <ele>752.1</ele>
        <time>2018-09-09T08:50:27Z</time>
      </trkpt>
      <trkpt lat="43.86685" lon="6.80186">
        <ele>751.5</ele>
        <time>2018-09-09T08:50:28Z</time>
      </trkpt>
      <trkpt lat="43.86674" lon="6.80169">
        <ele>748.6</ele>
        <time>2018-09-09T08:50:32Z</time>
      </trkpt>
      <trkpt lat="43.86663" lon="6.80145">
        <ele>744.6</ele>
        <time>2018-09-09T08:50:37Z</time>
      </trkpt>
      <trkpt lat="43.86666" lon="6.80117">
        <ele>739.7</ele>
        <time>2018-09-09T08:50:41Z</time>
      </trkpt>
      <trkpt lat="43.86653" lon="6.80101">
        <ele>735</ele>
        <time>2018-09-09T08:50:46Z</time>
      </trkpt>
      <trkpt lat="43.86635" lon="6.80113">
        <ele>735</ele>
        <time>2018-09-09T08:50:49Z</time>
      </trkpt>
      <trkpt lat="43.86628" lon="6.80115">
        <ele>735</ele>
        <time>2018-09-09T08:50:50Z</time>
      </trkpt>
      <trkpt lat="43.86613" lon="6.80122">
        <ele>736.2</ele>
        <time>2018-09-09T08:50:54Z</time>
      </trkpt>
      <trkpt lat="43.86613" lon="6.80123">
        <ele>736.2</ele>
        <time>2018-09-09T08:50:58Z</time>
      </trkpt>
      <trkpt lat="43.86626" lon="6.80095">
        <ele>748</ele>
      </trkpt>
      <trkpt lat="43.86646" lon="6.80062">
        <ele>743.4</ele>
      </trkpt>
      <trkpt lat="43.86667" lon="6.80023">
        <ele>746.3</ele>
      </trkpt>
      <trkpt lat="43.86699" lon="6.79931">
        <ele>742</ele>
      </trkpt>
      <trkpt lat="43.86701" lon="6.79905">
        <ele>743</ele>
      </trkpt>
      <trkpt lat="43.86708" lon="6.79885">
        <ele>744</ele>
      </trkpt>
      <trkpt lat="43.86719" lon="6.79865">
        <ele>744</ele>
      </trkpt>
      <trkpt lat="43.86707" lon="6.79842">
        <ele>744</ele>
      </trkpt>
      <trkpt lat="43.86698" lon="6.79816">
        <ele>747</ele>
      </trkpt>
      <trkpt lat="43.86697" lon="6.79795">
        <ele>748</ele>
      </trkpt>
      <trkpt lat="43.86704" lon="6.79773">
        <ele>748</ele>
      </trkpt>
      <trkpt lat="43.86702" lon="6.79758">
        <ele>749</ele>
      </trkpt>
      <trkpt lat="43.86692" lon="6.7975">
        <ele>751</ele>
      </trkpt>
      <trkpt lat="43.86688" lon="6.7974">
        <ele>755</ele>
      </trkpt>
      <trkpt lat="43.86689" lon="6.79728">
        <ele>755</ele>
      </trkpt>
      <trkpt lat="43.86677" lon="6.79694">
        <ele>758</ele>
      </trkpt>
      <trkpt lat="43.86667" lon="6.79669">
        <ele>765</ele>
      </trkpt>
      <trkpt lat="43.8665" lon="6.79654">
        <ele>772</ele>
      </trkpt>
      <trkpt lat="43.8664" lon="6.79637">
        <ele>774</ele>
      </trkpt>
      <trkpt lat="43.86629" lon="6.79618">
        <ele>775</ele>
      </trkpt>
      <trkpt lat="43.86619" lon="6.79595">
        <ele>776</ele>
      </trkpt>
      <trkpt lat="43.86611" lon="6.79565">
        <ele>780</ele>
      </trkpt>
      <trkpt lat="43.86613" lon="6.79546">
        <ele>781</ele>
      </trkpt>
      <trkpt lat="43.86626" lon="6.79519">
        <ele>783</ele>
      </trkpt>
      <trkpt lat="43.86654" lon="6.7949">
        <ele>790.4</ele>
      </trkpt>
      <trkpt lat="43.86675" lon="6.79498">
        <ele>791</ele>
      </trkpt>
      <trkpt lat="43.86696" lon="6.795">
        <ele>781</ele>
      </trkpt>
      <trkpt lat="43.86706" lon="6.79473">
        <ele>789</ele>
      </trkpt>
      <trkpt lat="43.86704" lon="6.79442">
        <ele>792</ele>
      </trkpt>
      <trkpt lat="43.86713" lon="6.79414">
        <ele>800</ele>
      </trkpt>
      <trkpt lat="43.86733" lon="6.79369">
        <ele>802</ele>
      </trkpt>
      <trkpt lat="43.86741" lon="6.79325">
        <ele>809</ele>
      </trkpt>
      <trkpt lat="43.86743" lon="6.79295">
        <ele>811</ele>
      </trkpt>
      <trkpt lat="43.8676" lon="6.79291">
        <ele>806</ele>
      </trkpt>
      <trkpt lat="43.8678" lon="6.79292">
        <ele>804</ele>
      </trkpt>
      <trkpt lat="43.86781" lon="6.79265">
        <ele>806</ele>
      </trkpt>
      <trkpt lat="43.8678" lon="6.79229">
        <ele>815</ele>
      </trkpt>
      <trkpt lat="43.8678" lon="6.79218">
        <ele>815</ele>
      </trkpt>
      <trkpt lat="43.86785" lon="6.7921">
        <ele>814.3</ele>
      </trkpt>
      <trkpt lat="43.86799" lon="6.79209">
        <ele>813</ele>
      </trkpt>
      <trkpt lat="43.86808" lon="6.7921">
        <ele>811.9</ele>
      </trkpt>
      <trkpt lat="43.86813" lon="6.79199">
        <ele>812</ele>
      </trkpt>
      <trkpt lat="43.86809" lon="6.79172">
        <ele>813.9</ele>
      </trkpt>
      <trkpt lat="43.86816" lon="6.79155">
        <ele>817.5</ele>
      </trkpt>
      <trkpt lat="43.86818" lon="6.79142">
        <ele>818</ele>
      </trkpt>
      <trkpt lat="43.86816" lon="6.7912">
        <ele>820</ele>
      </trkpt>
      <trkpt lat="43.86818" lon="6.79105">
        <ele>820</ele>
      </trkpt>
      <trkpt lat="43.86822" lon="6.79091">
        <ele>820</ele>
      </trkpt>
      <trkpt lat="43.86823" lon="6.79061">
        <ele>825</ele>
      </trkpt>
      <trkpt lat="43.86824" lon="6.7903">
        <ele>828</ele>
      </trkpt>
      <trkpt lat="43.86822" lon="6.79006">
        <ele>828</ele>
      </trkpt>
      <trkpt lat="43.86813" lon="6.78966">
        <ele>837</ele>
      </trkpt>
      <trkpt lat="43.86807" lon="6.78925">
        <ele>838</ele>
      </trkpt>
      <trkpt lat="43.86799" lon="6.78888">
        <ele>843</ele>
      </trkpt>
      <trkpt lat="43.86794" lon="6.78867">
        <ele>844</ele>
      </trkpt>
      <trkpt lat="43.86791" lon="6.78804">
        <ele>845</ele>
      </trkpt>
      <trkpt lat="43.86796" lon="6.78786">
        <ele>844</ele>
      </trkpt>
      <trkpt lat="43.86808" lon="6.78756">
        <ele>844</ele>
      </trkpt>
      <trkpt lat="43.86816" lon="6.78736">
        <ele>844</ele>
      </trkpt>
      <trkpt lat="43.86823" lon="6.78727">
        <ele>844</ele>
      </trkpt>
      <trkpt lat="43.86834" lon="6.78691">
        <ele>849</ele>
      </trkpt>
      <trkpt lat="43.8684" lon="6.78666">
        <ele>855</ele>
      </trkpt>
      <trkpt lat="43.86843" lon="6.78642">
        <ele>860</ele>
      </trkpt>
      <trkpt lat="43.86845" lon="6.78626">
        <ele>862</ele>
      </trkpt>
      <trkpt lat="43.86853" lon="6.78608">
        <ele>863</ele>
      </trkpt>
      <trkpt lat="43.86863" lon="6.78571">
        <ele>871</ele>
      </trkpt>
      <trkpt lat="43.86896" lon="6.78523">
        <ele>877</ele>
      </trkpt>
      <trkpt lat="43.86911" lon="6.78482">
        <ele>880</ele>
      </trkpt>
      <trkpt lat="43.8694" lon="6.78437">
        <ele>887</ele>
      </trkpt>
      <trkpt lat="43.87038" lon="6.78327">
        <ele>898</ele>
      </trkpt>
      <trkpt lat="43.87046" lon="6.78306">
        <ele>899</ele>
      </trkpt>
      <trkpt lat="43.87074" lon="6.78265">
        <ele>902.8</ele>
      </trkpt>
      <trkpt lat="43.87094" lon="6.7822">
        <ele>909</ele>
      </trkpt>
      <trkpt lat="43.87111" lon="6.78178">
        <ele>911</ele>
      </trkpt>
      <trkpt lat="43.87121" lon="6.78148">
        <ele>911</ele>
      </trkpt>
      <trkpt lat="43.8714" lon="6.78112">
        <ele>911</ele>
      </trkpt>
      <trkpt lat="43.87149" lon="6.78101">
        <ele>911</ele>
      </trkpt>
      <trkpt lat="43.87173" lon="6.78091">
        <ele>913</ele>
      </trkpt>
      <trkpt lat="43.87195" lon="6.78089">
        <ele>916</ele>
      </trkpt>
      <trkpt lat="43.87221" lon="6.78088">
        <ele>917.4</ele>
      </trkpt>
      <trkpt lat="43.87238" lon="6.78087">
        <ele>918</ele>
      </trkpt>
      <trkpt lat="43.87258" lon="6.78089">
        <ele>921</ele>
      </trkpt>
      <trkpt lat="43.87284" lon="6.78083">
        <ele>924</ele>
      </trkpt>
      <trkpt lat="43.87304" lon="6.78075">
        <ele>926</ele>
      </trkpt>
      <trkpt lat="43.87314" lon="6.78066">
        <ele>927</ele>
      </trkpt>
      <trkpt lat="43.87312" lon="6.78058">
        <ele>927.1</ele>
      </trkpt>
      <trkpt lat="43.8728" lon="6.78048">
        <ele>925</ele>
      </trkpt>
      <trkpt lat="43.87257" lon="6.78035">
        <ele>923</ele>
      </trkpt>
      <trkpt lat="43.87248" lon="6.78024">
        <ele>914</ele>
      </trkpt>
      <trkpt lat="43.87236" lon="6.78004">
        <ele>914</ele>
      </trkpt>
      <trkpt lat="43.87222" lon="6.77986">
        <ele>914</ele>
      </trkpt>
      <trkpt lat="43.87214" lon="6.77966">
        <ele>913</ele>
      </trkpt>
      <trkpt lat="43.87209" lon="6.77957">
        <ele>913</ele>
      </trkpt>
      <trkpt lat="43.87208" lon="6.77944">
        <ele>914</ele>
      </trkpt>
      <trkpt lat="43.87215" lon="6.77916">
        <ele>916</ele>
      </trkpt>
      <trkpt lat="43.87226" lon="6.77862">
        <ele>914</ele>
      </trkpt>
      <trkpt lat="43.87235" lon="6.77814">
        <ele>911</ele>
      </trkpt>
      <trkpt lat="43.87238" lon="6.77778">
        <ele>909</ele>
      </trkpt>
      <trkpt lat="43.87239" lon="6.77757">
        <ele>911</ele>
      </trkpt>
      <trkpt lat="43.87237" lon="6.77744">
        <ele>910</ele>
      </trkpt>
      <trkpt lat="43.87224" lon="6.77721">
        <ele>906</ele>
      </trkpt>
      <trkpt lat="43.8722" lon="6.77692">
        <ele>906.1</ele>
      </trkpt>
      <trkpt lat="43.87221" lon="6.7766">
        <ele>909</ele>
      </trkpt>
      <trkpt lat="43.87221" lon="6.77637">
        <ele>908</ele>
      </trkpt>
      <trkpt lat="43.87223" lon="6.77624">
        <ele>909</ele>
      </trkpt>
      <trkpt lat="43.87222" lon="6.77613">
        <ele>909</ele>
      </trkpt>
      <trkpt lat="43.8722" lon="6.776">
        <ele>909</ele>
      </trkpt>
      <trkpt lat="43.87211" lon="6.7759">
        <ele>908</ele>
      </trkpt>
      <trkpt lat="43.87202" lon="6.77579">
        <ele>910</ele>
      </trkpt>
      <trkpt lat="43.87196" lon="6.77557">
        <ele>911</ele>
      </trkpt>
      <trkpt lat="43.87192" lon="6.77535">
        <ele>912</ele>
      </trkpt>
      <trkpt lat="43.87185" lon="6.77512">
        <ele>911</ele>
      </trkpt>
      <trkpt lat="43.87152" lon="6.77426">
        <ele>912</ele>
      </trkpt>
      <trkpt lat="43.87138" lon="6.77403">
        <ele>917</ele>
      </trkpt>
      <trkpt lat="43.87118" lon="6.77377">
        <ele>916</ele>
      </trkpt>
      <trkpt lat="43.87098" lon="6.77356">
        <ele>915</ele>
      </trkpt>
      <trkpt lat="43.87087" lon="6.77337">
        <ele>914</ele>
      </trkpt>
      <trkpt lat="43.87079" lon="6.77319">
        <ele>912</ele>
      </trkpt>
      <trkpt lat="43.87071" lon="6.77285">
        <ele>913</ele>
      </trkpt>
      <trkpt lat="43.87069" lon="6.77262">
        <ele>916</ele>
      </trkpt>
      <trkpt lat="43.87063" lon="6.77232">
        <ele>918</ele>
      </trkpt>
      <trkpt lat="43.87049" lon="6.772">
        <ele>917</ele>
      </trkpt>
      <trkpt lat="43.87042" lon="6.77166">
        <ele>920</ele>
      </trkpt>
      <trkpt lat="43.87043" lon="6.77152">
        <ele>920</ele>
      </trkpt>
      <trkpt lat="43.87052" lon="6.77139">
        <ele>921</ele>
      </trkpt>
      <trkpt lat="43.87053" lon="6.77123">
        <ele>922</ele>
      </trkpt>
      <trkpt lat="43.87042" lon="6.7709">
        <ele>922</ele>
      </trkpt>
      <trkpt lat="43.8703" lon="6.7706">
        <ele>926</ele>
      </trkpt>
      <trkpt lat="43.87023" lon="6.77041">
        <ele>926</ele>
      </trkpt>
      <trkpt lat="43.87021" lon="6.77003">
        <ele>926.8</ele>
      </trkpt>
      <trkpt lat="43.87021" lon="6.76961">
        <ele>933</ele>
      </trkpt>
      <trkpt lat="43.87014" lon="6.76874">
        <ele>936</ele>
      </trkpt>
      <trkpt lat="43.87009" lon="6.76811">
        <ele>938</ele>
      </trkpt>
      <trkpt lat="43.87009" lon="6.76783">
        <ele>941</ele>
      </trkpt>
      <trkpt lat="43.87012" lon="6.76763">
        <ele>940.4</ele>
      </trkpt>
      <trkpt lat="43.87006" lon="6.76735">
        <ele>945</ele>
      </trkpt>
      <trkpt lat="43.8699" lon="6.76698">
        <ele>940</ele>
      </trkpt>
      <trkpt lat="43.86975" lon="6.76668">
        <ele>941.9</ele>
      </trkpt>
      <trkpt lat="43.86959" lon="6.76641">
        <ele>949</ele>
      </trkpt>
      <trkpt lat="43.86938" lon="6.76617">
        <ele>949</ele>
      </trkpt>
      <trkpt lat="43.86916" lon="6.76593">
        <ele>946</ele>
      </trkpt>
      <trkpt lat="43.86894" lon="6.76561">
        <ele>950.2</ele>
      </trkpt>
      <trkpt lat="43.86886" lon="6.76544">
        <ele>951</ele>
      </trkpt>
      <trkpt lat="43.86876" lon="6.76509">
        <ele>953</ele>
      </trkpt>
      <trkpt lat="43.86867" lon="6.76484">
        <ele>961.4</ele>
      </trkpt>
      <trkpt lat="43.86854" lon="6.76464">
        <ele>962</ele>
      </trkpt>
      <trkpt lat="43.86832" lon="6.76447">
        <ele>957</ele>
      </trkpt>
      <trkpt lat="43.86818" lon="6.76428">
        <ele>958</ele>
      </trkpt>
      <trkpt lat="43.86801" lon="6.76405">
        <ele>965</ele>
      </trkpt>
      <trkpt lat="43.86792" lon="6.76392">
        <ele>965</ele>
      </trkpt>
      <trkpt lat="43.86781" lon="6.76384">
        <ele>965</ele>
      </trkpt>
      <trkpt lat="43.86763" lon="6.7637">
        <ele>966</ele>
      </trkpt>
      <trkpt lat="43.86742" lon="6.76338">
        <ele>966</ele>
      </trkpt>
      <trkpt lat="43.86732" lon="6.76317">
        <ele>969</ele>
      </trkpt>
      <trkpt lat="43.86728" lon="6.76302">
        <ele>970</ele>
      </trkpt>
      <trkpt lat="43.86701" lon="6.76271">
        <ele>971</ele>
      </trkpt>
      <trkpt lat="43.86681" lon="6.76245">
        <ele>976</ele>
      </trkpt>
      <trkpt lat="43.86672" lon="6.7622">
        <ele>978</ele>
      </trkpt>
      <trkpt lat="43.86665" lon="6.76183">
        <ele>973</ele>
      </trkpt>
      <trkpt lat="43.86662" lon="6.76156">
        <ele>977</ele>
      </trkpt>
      <trkpt lat="43.86661" lon="6.7612">
        <ele>978</ele>
      </trkpt>
      <trkpt lat="43.86657" lon="6.76096">
        <ele>982</ele>
      </trkpt>
      <trkpt lat="43.86652" lon="6.76076">
        <ele>986</ele>
      </trkpt>
      <trkpt lat="43.86641" lon="6.76058">
        <ele>986</ele>
      </trkpt>
      <trkpt lat="43.86625" lon="6.76034">
        <ele>986</ele>
      </trkpt>
      <trkpt lat="43.86617" lon="6.76012">
        <ele>986</ele>
      </trkpt>
      <trkpt lat="43.86613" lon="6.75989">
        <ele>995</ele>
      </trkpt>
      <trkpt lat="43.86608" lon="6.7597">
        <ele>996.4</ele>
      </trkpt>
      <trkpt lat="43.86582" lon="6.75942">
        <ele>995</ele>
      </trkpt>
      <trkpt lat="43.8657" lon="6.75928">
        <ele>997</ele>
      </trkpt>
      <trkpt lat="43.86567" lon="6.75917">
        <ele>997</ele>
      </trkpt>
      <trkpt lat="43.86547" lon="6.75899">
        <ele>1004</ele>
      </trkpt>
      <trkpt lat="43.8653" lon="6.75888">
        <ele>1004</ele>
      </trkpt>
      <trkpt lat="43.8651" lon="6.75888">
        <ele>1003.1</ele>
      </trkpt>
      <trkpt lat="43.86502" lon="6.75876">
        <ele>1004</ele>
      </trkpt>
      <trkpt lat="43.86493" lon="6.7586">
        <ele>1002</ele>
      </trkpt>
      <trkpt lat="43.86481" lon="6.75842">
        <ele>1003</ele>
      </trkpt>
      <trkpt lat="43.86462" lon="6.75815">
        <ele>1008</ele>
      </trkpt>
      <trkpt lat="43.86454" lon="6.75797">
        <ele>1008</ele>
      </trkpt>
      <trkpt lat="43.86444" lon="6.75782">
        <ele>1009</ele>
      </trkpt>
      <trkpt lat="43.86433" lon="6.75765">
        <ele>1009</ele>
      </trkpt>
      <trkpt lat="43.86422" lon="6.7575">
        <ele>1010</ele>
      </trkpt>
      <trkpt lat="43.86433" lon="6.75731">
        <ele>1006</ele>
        <time>2018-09-09T10:20:23Z</time>
      </trkpt>
      <trkpt lat="43.86448" lon="6.75711">
        <ele>1006</ele>
        <time>2018-09-09T10:20:29Z</time>
      </trkpt>
      <trkpt lat="43.86458" lon="6.75687">
        <ele>1006</ele>
        <time>2018-09-09T10:20:34Z</time>
      </trkpt>
      <trkpt lat="43.86467" lon="6.75666">
        <ele>1000.2</ele>
        <time>2018-09-09T10:20:38Z</time>
      </trkpt>
      <trkpt lat="43.86476" lon="6.75643">
        <ele>998.6</ele>
        <time>2018-09-09T10:20:42Z</time>
      </trkpt>
      <trkpt lat="43.86482" lon="6.75624">
        <ele>997.7</ele>
        <time>2018-09-09T10:20:45Z</time>
      </trkpt>
      <trkpt lat="43.86488" lon="6.75599">
        <ele>995.9</ele>
        <time>2018-09-09T10:20:49Z</time>
      </trkpt>
      <trkpt lat="43.86489" lon="6.75586">
        <ele>995.2</ele>
        <time>2018-09-09T10:20:51Z</time>
      </trkpt>
      <trkpt lat="43.86486" lon="6.75559">
        <ele>995</ele>
        <time>2018-09-09T10:20:55Z</time>
      </trkpt>
      <trkpt lat="43.8648" lon="6.75532">
        <ele>995</ele>
        <time>2018-09-09T10:20:59Z</time>
      </trkpt>
      <trkpt lat="43.86473" lon="6.75506">
        <ele>995.4</ele>
        <time>2018-09-09T10:21:03Z</time>
      </trkpt>
      <trkpt lat="43.86468" lon="6.75486">
        <ele>995.6</ele>
        <time>2018-09-09T10:21:06Z</time>
      </trkpt>
      <trkpt lat="43.86468" lon="6.75457">
        <ele>996</ele>
        <time>2018-09-09T10:21:10Z</time>
      </trkpt>
      <trkpt lat="43.86469" lon="6.75428">
        <ele>996.2</ele>
        <time>2018-09-09T10:21:14Z</time>
      </trkpt>
      <trkpt lat="43.86469" lon="6.75399">
        <ele>996.8</ele>
        <time>2018-09-09T10:21:18Z</time>
      </trkpt>
      <trkpt lat="43.86465" lon="6.7537">
        <ele>999.4</ele>
        <time>2018-09-09T10:21:22Z</time>
      </trkpt>
      <trkpt lat="43.86458" lon="6.75343">
        <ele>1002.2</ele>
        <time>2018-09-09T10:21:26Z</time>
      </trkpt>
      <trkpt lat="43.8645" lon="6.75315">
        <ele>1004.6</ele>
        <time>2018-09-09T10:21:30Z</time>
      </trkpt>
      <trkpt lat="43.86442" lon="6.75288">
        <ele>1007.3</ele>
        <time>2018-09-09T10:21:34Z</time>
      </trkpt>
      <trkpt lat="43.86434" lon="6.75263">
        <ele>1010.1</ele>
        <time>2018-09-09T10:21:38Z</time>
      </trkpt>
      <trkpt lat="43.86425" lon="6.75239">
        <ele>1013.4</ele>
        <time>2018-09-09T10:21:42Z</time>
      </trkpt>
      <trkpt lat="43.86413" lon="6.75213">
        <ele>1016.9</ele>
        <time>2018-09-09T10:21:46Z</time>
      </trkpt>
      <trkpt lat="43.86404" lon="6.75192">
        <ele>1015.9</ele>
        <time>2018-09-09T10:21:49Z</time>
      </trkpt>
      <trkpt lat="43.86387" lon="6.75168">
        <ele>1014.7</ele>
        <time>2018-09-09T10:21:53Z</time>
      </trkpt>
      <trkpt lat="43.86368" lon="6.75148">
        <ele>1012.5</ele>
        <time>2018-09-09T10:21:57Z</time>
      </trkpt>
      <trkpt lat="43.86354" lon="6.75122">
        <ele>1008.7</ele>
        <time>2018-09-09T10:22:01Z</time>
      </trkpt>
      <trkpt lat="43.86345" lon="6.75093">
        <ele>1004.9</ele>
        <time>2018-09-09T10:22:05Z</time>
      </trkpt>
      <trkpt lat="43.86338" lon="6.75062">
        <ele>999.9</ele>
        <time>2018-09-09T10:22:09Z</time>
      </trkpt>
      <trkpt lat="43.86331" lon="6.75031">
        <ele>997.4</ele>
        <time>2018-09-09T10:22:13Z</time>
      </trkpt>
      <trkpt lat="43.86329" lon="6.75006">
        <ele>994.6</ele>
        <time>2018-09-09T10:22:16Z</time>
      </trkpt>
      <trkpt lat="43.8633" lon="6.74989">
        <ele>993.3</ele>
        <time>2018-09-09T10:22:18Z</time>
      </trkpt>
      <trkpt lat="43.86334" lon="6.74964">
        <ele>992</ele>
        <time>2018-09-09T10:22:21Z</time>
      </trkpt>
      <trkpt lat="43.86341" lon="6.74933">
        <ele>992.2</ele>
        <time>2018-09-09T10:22:25Z</time>
      </trkpt>
      <trkpt lat="43.8635" lon="6.74903">
        <ele>992.4</ele>
        <time>2018-09-09T10:22:29Z</time>
      </trkpt>
      <trkpt lat="43.86357" lon="6.7488">
        <ele>992.5</ele>
        <time>2018-09-09T10:22:32Z</time>
      </trkpt>
      <trkpt lat="43.86363" lon="6.74856">
        <ele>992.7</ele>
        <time>2018-09-09T10:22:35Z</time>
      </trkpt>
      <trkpt lat="43.86368" lon="6.74824">
        <ele>993</ele>
        <time>2018-09-09T10:22:39Z</time>
      </trkpt>
      <trkpt lat="43.86373" lon="6.74809">
        <ele>993.2</ele>
        <time>2018-09-09T10:22:41Z</time>
      </trkpt>
      <trkpt lat="43.86384" lon="6.74788">
        <ele>993.6</ele>
        <time>2018-09-09T10:22:44Z</time>
      </trkpt>
      <trkpt lat="43.86395" lon="6.74768">
        <ele>993.8</ele>
        <time>2018-09-09T10:22:47Z</time>
      </trkpt>
      <trkpt lat="43.86404" lon="6.74746">
        <ele>990.1</ele>
        <time>2018-09-09T10:22:50Z</time>
      </trkpt>
      <trkpt lat="43.86413" lon="6.74724">
        <ele>986.2</ele>
        <time>2018-09-09T10:22:53Z</time>
      </trkpt>
      <trkpt lat="43.86423" lon="6.74694">
        <ele>986.6</ele>
        <time>2018-09-09T10:22:57Z</time>
      </trkpt>
      <trkpt lat="43.86434" lon="6.74665">
        <ele>986.9</ele>
        <time>2018-09-09T10:23:01Z</time>
      </trkpt>
      <trkpt lat="43.86441" lon="6.74643">
        <ele>987.2</ele>
        <time>2018-09-09T10:23:04Z</time>
      </trkpt>
      <trkpt lat="43.86446" lon="6.74618">
        <ele>987.5</ele>
        <time>2018-09-09T10:23:07Z</time>
      </trkpt>
      <trkpt lat="43.86447" lon="6.74593">
        <ele>987.8</ele>
        <time>2018-09-09T10:23:10Z</time>
      </trkpt>
      <trkpt lat="43.86449" lon="6.74568">
        <ele>988.4</ele>
        <time>2018-09-09T10:23:13Z</time>
      </trkpt>
      <trkpt lat="43.8645" lon="6.74536">
        <ele>989.4</ele>
        <time>2018-09-09T10:23:17Z</time>
      </trkpt>
      <trkpt lat="43.86452" lon="6.74502">
        <ele>990</ele>
        <time>2018-09-09T10:23:21Z</time>
      </trkpt>
      <trkpt lat="43.86453" lon="6.74494">
        <ele>990.2</ele>
        <time>2018-09-09T10:23:22Z</time>
      </trkpt>
      <trkpt lat="43.86459" lon="6.74471">
        <ele>990.9</ele>
        <time>2018-09-09T10:23:25Z</time>
      </trkpt>
      <trkpt lat="43.8647" lon="6.7445">
        <ele>991.6</ele>
        <time>2018-09-09T10:23:28Z</time>
      </trkpt>
      <trkpt lat="43.86473" lon="6.74443">
        <ele>991.9</ele>
        <time>2018-09-09T10:23:29Z</time>
      </trkpt>
      <trkpt lat="43.86471" lon="6.74421">
        <ele>992.9</ele>
        <time>2018-09-09T10:23:32Z</time>
      </trkpt>
      <trkpt lat="43.86456" lon="6.74405">
        <ele>993.9</ele>
        <time>2018-09-09T10:23:35Z</time>
      </trkpt>
      <trkpt lat="43.86451" lon="6.74401">
        <ele>994.1</ele>
        <time>2018-09-09T10:23:36Z</time>
      </trkpt>
      <trkpt lat="43.86432" lon="6.74382">
        <ele>994.8</ele>
        <time>2018-09-09T10:23:40Z</time>
      </trkpt>
      <trkpt lat="43.86417" lon="6.74367">
        <ele>995.1</ele>
        <time>2018-09-09T10:23:43Z</time>
      </trkpt>
      <trkpt lat="43.864" lon="6.74344">
        <ele>995.5</ele>
        <time>2018-09-09T10:23:47Z</time>
      </trkpt>
      <trkpt lat="43.8639" lon="6.74324">
        <ele>995.8</ele>
        <time>2018-09-09T10:23:50Z</time>
      </trkpt>
      <trkpt lat="43.8638" lon="6.74301">
        <ele>996.2</ele>
        <time>2018-09-09T10:23:53Z</time>
      </trkpt>
      <trkpt lat="43.86372" lon="6.74279">
        <ele>996.5</ele>
        <time>2018-09-09T10:23:56Z</time>
      </trkpt>
      <trkpt lat="43.86366" lon="6.74265">
        <ele>996.7</ele>
        <time>2018-09-09T10:23:58Z</time>
      </trkpt>
      <trkpt lat="43.86352" lon="6.74249">
        <ele>997.1</ele>
        <time>2018-09-09T10:24:01Z</time>
      </trkpt>
      <trkpt lat="43.86336" lon="6.74237">
        <ele>997.6</ele>
        <time>2018-09-09T10:24:04Z</time>
      </trkpt>
      <trkpt lat="43.86314" lon="6.74224">
        <ele>998.8</ele>
        <time>2018-09-09T10:24:08Z</time>
      </trkpt>
      <trkpt lat="43.86293" lon="6.74207">
        <ele>999.8</ele>
        <time>2018-09-09T10:24:12Z</time>
      </trkpt>
      <trkpt lat="43.86289" lon="6.74201">
        <ele>1000.1</ele>
        <time>2018-09-09T10:24:13Z</time>
      </trkpt>
      <trkpt lat="43.86282" lon="6.74172">
        <ele>1002.4</ele>
        <time>2018-09-09T10:24:17Z</time>
      </trkpt>
      <trkpt lat="43.86283" lon="6.74165">
        <ele>1002.8</ele>
        <time>2018-09-09T10:24:18Z</time>
      </trkpt>
      <trkpt lat="43.86286" lon="6.74138">
        <ele>1004.4</ele>
        <time>2018-09-09T10:24:22Z</time>
      </trkpt>
      <trkpt lat="43.8629" lon="6.74113">
        <ele>1005.5</ele>
        <time>2018-09-09T10:24:26Z</time>
      </trkpt>
      <trkpt lat="43.86293" lon="6.74083">
        <ele>1005.8</ele>
        <time>2018-09-09T10:24:31Z</time>
      </trkpt>
      <trkpt lat="43.86295" lon="6.74053">
        <ele>1005.3</ele>
        <time>2018-09-09T10:24:36Z</time>
      </trkpt>
      <trkpt lat="43.86301" lon="6.74025">
        <ele>1005.8</ele>
        <time>2018-09-09T10:24:41Z</time>
      </trkpt>
      <trkpt lat="43.86314" lon="6.74006">
        <ele>1007.5</ele>
        <time>2018-09-09T10:24:46Z</time>
      </trkpt>
      <trkpt lat="43.8633" lon="6.73991">
        <ele>1010.2</ele>
        <time>2018-09-09T10:24:52Z</time>
      </trkpt>
      <trkpt lat="43.86347" lon="6.73977">
        <ele>1012.6</ele>
        <time>2018-09-09T10:24:59Z</time>
      </trkpt>
      <trkpt lat="43.86365" lon="6.73972">
        <ele>1016</ele>
        <time>2018-09-09T10:25:05Z</time>
      </trkpt>
      <trkpt lat="43.86384" lon="6.73971">
        <ele>1020.6</ele>
        <time>2018-09-09T10:25:11Z</time>
      </trkpt>
      <trkpt lat="43.86403" lon="6.73971">
        <ele>1025.2</ele>
        <time>2018-09-09T10:25:17Z</time>
      </trkpt>
      <trkpt lat="43.8642" lon="6.73962">
        <ele>1031.3</ele>
        <time>2018-09-09T10:25:22Z</time>
      </trkpt>
      <trkpt lat="43.86425" lon="6.73936">
        <ele>1033.6</ele>
        <time>2018-09-09T10:25:28Z</time>
      </trkpt>
      <trkpt lat="43.8642" lon="6.73909">
        <ele>1032.4</ele>
        <time>2018-09-09T10:25:34Z</time>
      </trkpt>
      <trkpt lat="43.86417" lon="6.73881">
        <ele>1031</ele>
        <time>2018-09-09T10:25:40Z</time>
      </trkpt>
      <trkpt lat="43.86414" lon="6.73853">
        <ele>1028.5</ele>
        <time>2018-09-09T10:25:46Z</time>
      </trkpt>
      <trkpt lat="43.86413" lon="6.73828">
        <ele>1027.2</ele>
        <time>2018-09-09T10:25:51Z</time>
      </trkpt>
      <trkpt lat="43.86414" lon="6.73799">
        <ele>1027.6</ele>
        <time>2018-09-09T10:25:57Z</time>
      </trkpt>
      <trkpt lat="43.86416" lon="6.73774">
        <ele>1027.2</ele>
        <time>2018-09-09T10:26:02Z</time>
      </trkpt>
      <trkpt lat="43.86419" lon="6.73749">
        <ele>1028.1</ele>
        <time>2018-09-09T10:26:07Z</time>
      </trkpt>
      <trkpt lat="43.86424" lon="6.73723">
        <ele>1028.9</ele>
        <time>2018-09-09T10:26:12Z</time>
      </trkpt>
      <trkpt lat="43.86432" lon="6.73699">
        <ele>1030.9</ele>
        <time>2018-09-09T10:26:17Z</time>
      </trkpt>
      <trkpt lat="43.86441" lon="6.73675">
        <ele>1033.7</ele>
        <time>2018-09-09T10:26:22Z</time>
      </trkpt>
      <trkpt lat="43.86449" lon="6.7365">
        <ele>1035.6</ele>
        <time>2018-09-09T10:26:27Z</time>
      </trkpt>
      <trkpt lat="43.86456" lon="6.73624">
        <ele>1037.7</ele>
        <time>2018-09-09T10:26:32Z</time>
      </trkpt>
      <trkpt lat="43.86464" lon="6.73599">
        <ele>1040.3</ele>
        <time>2018-09-09T10:26:37Z</time>
      </trkpt>
      <trkpt lat="43.86471" lon="6.73575">
        <ele>1043</ele>
        <time>2018-09-09T10:26:42Z</time>
      </trkpt>
      <trkpt lat="43.8648" lon="6.73552">
        <ele>1045.4</ele>
        <time>2018-09-09T10:26:47Z</time>
      </trkpt>
      <trkpt lat="43.8649" lon="6.73527">
        <ele>1049.8</ele>
        <time>2018-09-09T10:26:53Z</time>
      </trkpt>
      <trkpt lat="43.86488" lon="6.73499">
        <ele>1052.6</ele>
        <time>2018-09-09T10:26:59Z</time>
      </trkpt>
      <trkpt lat="43.86481" lon="6.73472">
        <ele>1054</ele>
        <time>2018-09-09T10:27:05Z</time>
      </trkpt>
      <trkpt lat="43.86472" lon="6.7345">
        <ele>1055.4</ele>
        <time>2018-09-09T10:27:11Z</time>
      </trkpt>
      <trkpt lat="43.86461" lon="6.73428">
        <ele>1056.4</ele>
        <time>2018-09-09T10:27:17Z</time>
      </trkpt>
      <trkpt lat="43.8645" lon="6.73408">
        <ele>1057.3</ele>
        <time>2018-09-09T10:27:23Z</time>
      </trkpt>
      <trkpt lat="43.86436" lon="6.73389">
        <ele>1057</ele>
        <time>2018-09-09T10:27:30Z</time>
      </trkpt>
      <trkpt lat="43.86422" lon="6.73371">
        <ele>1056.7</ele>
        <time>2018-09-09T10:27:36Z</time>
      </trkpt>
      <trkpt lat="43.86409" lon="6.73349">
        <ele>1054.5</ele>
        <time>2018-09-09T10:27:43Z</time>
      </trkpt>
      <trkpt lat="43.86404" lon="6.73321">
        <ele>1053.3</ele>
        <time>2018-09-09T10:27:49Z</time>
      </trkpt>
      <trkpt lat="43.86411" lon="6.73296">
        <ele>1053.9</ele>
        <time>2018-09-09T10:27:54Z</time>
      </trkpt>
      <trkpt lat="43.86421" lon="6.73269">
        <ele>1054.8</ele>
        <time>2018-09-09T10:27:59Z</time>
      </trkpt>
      <trkpt lat="43.86433" lon="6.73245">
        <ele>1055.4</ele>
        <time>2018-09-09T10:28:04Z</time>
      </trkpt>
      <trkpt lat="43.86445" lon="6.73225">
        <ele>1056.2</ele>
        <time>2018-09-09T10:28:08Z</time>
      </trkpt>
      <trkpt lat="43.86456" lon="6.73206">
        <ele>1055.8</ele>
        <time>2018-09-09T10:28:12Z</time>
      </trkpt>
      <trkpt lat="43.86468" lon="6.73185">
        <ele>1055.4</ele>
        <time>2018-09-09T10:28:16Z</time>
      </trkpt>
      <trkpt lat="43.86477" lon="6.73167">
        <ele>1055.5</ele>
        <time>2018-09-09T10:28:19Z</time>
      </trkpt>
      <trkpt lat="43.86485" lon="6.73139">
        <ele>1054.8</ele>
        <time>2018-09-09T10:28:23Z</time>
      </trkpt>
      <trkpt lat="43.86492" lon="6.73118">
        <ele>1054.4</ele>
        <time>2018-09-09T10:28:26Z</time>
      </trkpt>
      <trkpt lat="43.86508" lon="6.73099">
        <ele>1057.6</ele>
        <time>2018-09-09T10:28:30Z</time>
      </trkpt>
      <trkpt lat="43.86517" lon="6.73093">
        <ele>1059.3</ele>
        <time>2018-09-09T10:28:32Z</time>
      </trkpt>
      <trkpt lat="43.86527" lon="6.73087">
        <ele>1061.3</ele>
        <time>2018-09-09T10:28:34Z</time>
      </trkpt>
      <trkpt lat="43.86541" lon="6.73067">
        <ele>1066.1</ele>
        <time>2018-09-09T10:28:38Z</time>
      </trkpt>
      <trkpt lat="43.86536" lon="6.73038">
        <ele>1065</ele>
        <time>2018-09-09T10:28:42Z</time>
      </trkpt>
      <trkpt lat="43.86532" lon="6.73024">
        <ele>1064.4</ele>
        <time>2018-09-09T10:28:44Z</time>
      </trkpt>
      <trkpt lat="43.86523" lon="6.72996">
        <ele>1063.2</ele>
        <time>2018-09-09T10:28:48Z</time>
      </trkpt>
      <trkpt lat="43.86514" lon="6.72968">
        <ele>1062.8</ele>
        <time>2018-09-09T10:28:52Z</time>
      </trkpt>
      <trkpt lat="43.86508" lon="6.7294">
        <ele>1062.7</ele>
        <time>2018-09-09T10:28:56Z</time>
      </trkpt>
      <trkpt lat="43.86505" lon="6.72919">
        <ele>1062.8</ele>
        <time>2018-09-09T10:28:59Z</time>
      </trkpt>
      <trkpt lat="43.86504" lon="6.72891">
        <ele>1063.7</ele>
        <time>2018-09-09T10:29:03Z</time>
      </trkpt>
      <trkpt lat="43.86504" lon="6.72884">
        <ele>1063.9</ele>
        <time>2018-09-09T10:29:04Z</time>
      </trkpt>
      <trkpt lat="43.86504" lon="6.72855">
        <ele>1062.4</ele>
        <time>2018-09-09T10:29:08Z</time>
      </trkpt>
      <trkpt lat="43.86501" lon="6.72825">
        <ele>1059.6</ele>
        <time>2018-09-09T10:29:12Z</time>
      </trkpt>
      <trkpt lat="43.86498" lon="6.72803">
        <ele>1057.6</ele>
        <time>2018-09-09T10:29:15Z</time>
      </trkpt>
      <trkpt lat="43.86507" lon="6.72779">
        <ele>1057.6</ele>
        <time>2018-09-09T10:29:19Z</time>
      </trkpt>
      <trkpt lat="43.8651" lon="6.72774">
        <ele>1058.5</ele>
        <time>2018-09-09T10:29:20Z</time>
      </trkpt>
      <trkpt lat="43.86514" lon="6.7277">
        <ele>1058.9</ele>
        <time>2018-09-09T10:29:21Z</time>
      </trkpt>
      <trkpt lat="43.86532" lon="6.72761">
        <ele>1063.1</ele>
        <time>2018-09-09T10:29:25Z</time>
      </trkpt>
      <trkpt lat="43.86541" lon="6.72762">
        <ele>1065.4</ele>
        <time>2018-09-09T10:29:27Z</time>
      </trkpt>
      <trkpt lat="43.86554" lon="6.72761">
        <ele>1068.6</ele>
        <time>2018-09-09T10:29:30Z</time>
      </trkpt>
      <trkpt lat="43.86574" lon="6.72749">
        <ele>1074.4</ele>
        <time>2018-09-09T10:29:35Z</time>
      </trkpt>
      <trkpt lat="43.86583" lon="6.72743">
        <ele>1075.8</ele>
        <time>2018-09-09T10:29:37Z</time>
      </trkpt>
      <trkpt lat="43.86602" lon="6.72738">
        <ele>1081.5</ele>
        <time>2018-09-09T10:29:41Z</time>
      </trkpt>
      <trkpt lat="43.86607" lon="6.72739">
        <ele>1083</ele>
        <time>2018-09-09T10:29:42Z</time>
      </trkpt>
      <trkpt lat="43.86611" lon="6.72738">
        <ele>1084.7</ele>
        <time>2018-09-09T10:29:43Z</time>
      </trkpt>
      <trkpt lat="43.86621" lon="6.7272">
        <ele>1089.4</ele>
        <time>2018-09-09T10:29:47Z</time>
      </trkpt>
      <trkpt lat="43.86613" lon="6.72703">
        <ele>1088.8</ele>
        <time>2018-09-09T10:29:50Z</time>
      </trkpt>
      <trkpt lat="43.86601" lon="6.72683">
        <ele>1083.2</ele>
        <time>2018-09-09T10:29:54Z</time>
      </trkpt>
      <trkpt lat="43.86585" lon="6.72667">
        <ele>1078.7</ele>
        <time>2018-09-09T10:29:58Z</time>
      </trkpt>
      <trkpt lat="43.86567" lon="6.72653">
        <ele>1071.5</ele>
        <time>2018-09-09T10:30:02Z</time>
      </trkpt>
      <trkpt lat="43.86549" lon="6.72644">
        <ele>1065.4</ele>
        <time>2018-09-09T10:30:05Z</time>
      </trkpt>
      <trkpt lat="43.86526" lon="6.72634">
        <ele>1059.3</ele>
        <time>2018-09-09T10:30:08Z</time>
      </trkpt>
      <trkpt lat="43.86509" lon="6.72623">
        <ele>1054.8</ele>
        <time>2018-09-09T10:30:10Z</time>
      </trkpt>
      <trkpt lat="43.86491" lon="6.72613">
        <ele>1050.3</ele>
        <time>2018-09-09T10:30:12Z</time>
      </trkpt>
      <trkpt lat="43.86469" lon="6.72606">
        <ele>1044.4</ele>
        <time>2018-09-09T10:30:14Z</time>
      </trkpt>
      <trkpt lat="43.86446" lon="6.72598">
        <ele>1038.8</ele>
        <time>2018-09-09T10:30:16Z</time>
      </trkpt>
      <trkpt lat="43.86424" lon="6.72588">
        <ele>1034.2</ele>
        <time>2018-09-09T10:30:18Z</time>
      </trkpt>
      <trkpt lat="43.86404" lon="6.72581">
        <ele>1030.8</ele>
        <time>2018-09-09T10:30:20Z</time>
      </trkpt>
      <trkpt lat="43.86395" lon="6.72571">
        <ele>1029.3</ele>
        <time>2018-09-09T10:30:22Z</time>
      </trkpt>
      <trkpt lat="43.86401" lon="6.72539">
        <ele>1027.9</ele>
        <time>2018-09-09T10:30:26Z</time>
      </trkpt>
      <trkpt lat="43.86412" lon="6.72522">
        <ele>1028.1</ele>
        <time>2018-09-09T10:30:28Z</time>
      </trkpt>
      <trkpt lat="43.86427" lon="6.72494">
        <ele>1028.3</ele>
        <time>2018-09-09T10:30:31Z</time>
      </trkpt>
      <trkpt lat="43.86441" lon="6.72464">
        <ele>1028.5</ele>
        <time>2018-09-09T10:30:34Z</time>
      </trkpt>
      <trkpt lat="43.86451" lon="6.72437">
        <ele>1028.1</ele>
        <time>2018-09-09T10:30:37Z</time>
      </trkpt>
      <trkpt lat="43.86452" lon="6.72429">
        <ele>1028.2</ele>
        <time>2018-09-09T10:30:38Z</time>
      </trkpt>
      <trkpt lat="43.86451" lon="6.72397">
        <ele>1025.2</ele>
        <time>2018-09-09T10:30:42Z</time>
      </trkpt>
      <trkpt lat="43.86451" lon="6.72383">
        <ele>1023.8</ele>
        <time>2018-09-09T10:30:44Z</time>
      </trkpt>
      <trkpt lat="43.86463" lon="6.7236">
        <ele>1022.4</ele>
        <time>2018-09-09T10:30:48Z</time>
      </trkpt>
      <trkpt lat="43.86468" lon="6.72354">
        <ele>1022.3</ele>
        <time>2018-09-09T10:30:49Z</time>
      </trkpt>
      <trkpt lat="43.86486" lon="6.72335">
        <ele>1023.4</ele>
        <time>2018-09-09T10:30:52Z</time>
      </trkpt>
      <trkpt lat="43.86504" lon="6.72309">
        <ele>1025</ele>
        <time>2018-09-09T10:30:55Z</time>
      </trkpt>
      <trkpt lat="43.86522" lon="6.72286">
        <ele>1027</ele>
        <time>2018-09-09T10:30:58Z</time>
      </trkpt>
      <trkpt lat="43.86531" lon="6.72277">
        <ele>1041.4</ele>
      </trkpt>
      <trkpt lat="43.86541" lon="6.72265">
        <ele>1042</ele>
      </trkpt>
      <trkpt lat="43.86556" lon="6.72262">
        <ele>1044</ele>
      </trkpt>
      <trkpt lat="43.86567" lon="6.72257">
        <ele>1046</ele>
      </trkpt>
      <trkpt lat="43.8657" lon="6.72246">
        <ele>1044</ele>
      </trkpt>
      <trkpt lat="43.86567" lon="6.72233">
        <ele>1042</ele>
      </trkpt>
      <trkpt lat="43.86555" lon="6.72215">
        <ele>1040</ele>
      </trkpt>
      <trkpt lat="43.86547" lon="6.72192">
        <ele>1040</ele>
      </trkpt>
      <trkpt lat="43.8654" lon="6.7217">
        <ele>1038</ele>
      </trkpt>
      <trkpt lat="43.86541" lon="6.7214">
        <ele>1037</ele>
      </trkpt>
      <trkpt lat="43.8655" lon="6.72099">
        <ele>1038</ele>
      </trkpt>
      <trkpt lat="43.86555" lon="6.72083">
        <ele>1033</ele>
      </trkpt>
      <trkpt lat="43.86557" lon="6.72066">
        <ele>1032</ele>
      </trkpt>
      <trkpt lat="43.86558" lon="6.7205">
        <ele>1030</ele>
      </trkpt>
      <trkpt lat="43.86568" lon="6.72025">
        <ele>1029</ele>
      </trkpt>
      <trkpt lat="43.86585" lon="6.72002">
        <ele>1033</ele>
      </trkpt>
      <trkpt lat="43.86611" lon="6.71978">
        <ele>1030</ele>
      </trkpt>
      <trkpt lat="43.86631" lon="6.7196">
        <ele>1030</ele>
      </trkpt>
      <trkpt lat="43.86659" lon="6.71937">
        <ele>1028</ele>
      </trkpt>
      <trkpt lat="43.86675" lon="6.71919">
        <ele>1032</ele>
      </trkpt>
      <trkpt lat="43.86683" lon="6.71907">
        <ele>1031</ele>
      </trkpt>
      <trkpt lat="43.86686" lon="6.71892">
        <ele>1032.8</ele>
      </trkpt>
      <trkpt lat="43.8668" lon="6.71883">
        <ele>1033</ele>
      </trkpt>
      <trkpt lat="43.86671" lon="6.71875">
        <ele>1032</ele>
      </trkpt>
      <trkpt lat="43.86661" lon="6.71878">
        <ele>1021</ele>
      </trkpt>
      <trkpt lat="43.8665" lon="6.71881">
        <ele>1020</ele>
      </trkpt>
      <trkpt lat="43.86641" lon="6.71881">
        <ele>1020</ele>
      </trkpt>
      <trkpt lat="43.86628" lon="6.7187">
        <ele>1019</ele>
      </trkpt>
      <trkpt lat="43.86613" lon="6.71855">
        <ele>1017</ele>
      </trkpt>
      <trkpt lat="43.86602" lon="6.71834">
        <ele>1016</ele>
      </trkpt>
      <trkpt lat="43.86598" lon="6.7181">
        <ele>1018</ele>
      </trkpt>
      <trkpt lat="43.86596" lon="6.7177">
        <ele>1018</ele>
      </trkpt>
      <trkpt lat="43.86594" lon="6.7173">
        <ele>1018</ele>
      </trkpt>
      <trkpt lat="43.86607" lon="6.71691">
        <ele>1017.8</ele>
      </trkpt>
      <trkpt lat="43.86617" lon="6.71658">
        <ele>1014</ele>
      </trkpt>
      <trkpt lat="43.86633" lon="6.71626">
        <ele>1013</ele>
      </trkpt>
      <trkpt lat="43.86661" lon="6.71593">
        <ele>1014</ele>
      </trkpt>
      <trkpt lat="43.86698" lon="6.71553">
        <ele>1019</ele>
      </trkpt>
      <trkpt lat="43.86726" lon="6.71537">
        <ele>1021.2</ele>
      </trkpt>
      <trkpt lat="43.86724" lon="6.71519">
        <ele>1021</ele>
      </trkpt>
      <trkpt lat="43.86687" lon="6.71495">
        <ele>1016</ele>
      </trkpt>
      <trkpt lat="43.86658" lon="6.71474">
        <ele>1009</ele>
      </trkpt>
      <trkpt lat="43.86635" lon="6.71444">
        <ele>1009</ele>
      </trkpt>
      <trkpt lat="43.86628" lon="6.71416">
        <ele>1010</ele>
      </trkpt>
      <trkpt lat="43.86624" lon="6.71387">
        <ele>1010</ele>
      </trkpt>
      <trkpt lat="43.86623" lon="6.71369">
        <ele>1010</ele>
      </trkpt>
      <trkpt lat="43.86612" lon="6.71339">
        <ele>1009.1</ele>
      </trkpt>
      <trkpt lat="43.86598" lon="6.71326">
        <ele>1010</ele>
      </trkpt>
      <trkpt lat="43.86581" lon="6.71322">
        <ele>1006</ele>
      </trkpt>
      <trkpt lat="43.86559" lon="6.71308">
        <ele>1007</ele>
      </trkpt>
      <trkpt lat="43.86537" lon="6.71294">
        <ele>1008</ele>
      </trkpt>
      <trkpt lat="43.86517" lon="6.7128">
        <ele>1008</ele>
      </trkpt>
      <trkpt lat="43.865" lon="6.71266">
        <ele>1009</ele>
      </trkpt>
      <trkpt lat="43.86492" lon="6.71238">
        <ele>1011</ele>
      </trkpt>
      <trkpt lat="43.86489" lon="6.71221">
        <ele>1012</ele>
      </trkpt>
      <trkpt lat="43.86477" lon="6.71193">
        <ele>1013</ele>
      </trkpt>
      <trkpt lat="43.86471" lon="6.71171">
        <ele>1014</ele>
      </trkpt>
      <trkpt lat="43.86468" lon="6.71135">
        <ele>1018</ele>
      </trkpt>
      <trkpt lat="43.8646" lon="6.71119">
        <ele>1018</ele>
      </trkpt>
      <trkpt lat="43.86456" lon="6.71072">
        <ele>1017</ele>
      </trkpt>
      <trkpt lat="43.86456" lon="6.71031">
        <ele>1015</ele>
      </trkpt>
      <trkpt lat="43.86456" lon="6.70992">
        <ele>1011</ele>
      </trkpt>
      <trkpt lat="43.86456" lon="6.70955">
        <ele>1009.8</ele>
      </trkpt>
      <trkpt lat="43.86457" lon="6.70928">
        <ele>1009</ele>
      </trkpt>
      <trkpt lat="43.86469" lon="6.70888">
        <ele>1007</ele>
      </trkpt>
      <trkpt lat="43.86471" lon="6.70871">
        <ele>1007</ele>
      </trkpt>
      <trkpt lat="43.86472" lon="6.70854">
        <ele>1007</ele>
      </trkpt>
      <trkpt lat="43.86474" lon="6.70839">
        <ele>1008</ele>
      </trkpt>
      <trkpt lat="43.8648" lon="6.70826">
        <ele>1006</ele>
      </trkpt>
      <trkpt lat="43.86492" lon="6.70811">
        <ele>1006</ele>
      </trkpt>
      <trkpt lat="43.86496" lon="6.708">
        <ele>1005</ele>
      </trkpt>
      <trkpt lat="43.86503" lon="6.70773">
        <ele>1014</ele>
      </trkpt>
      <trkpt lat="43.86504" lon="6.70763">
        <ele>1012</ele>
      </trkpt>
      <trkpt lat="43.86504" lon="6.70753">
        <ele>1009</ele>
      </trkpt>
      <trkpt lat="43.86514" lon="6.70735">
        <ele>1010</ele>
      </trkpt>
      <trkpt lat="43.86541" lon="6.70681">
        <ele>1011</ele>
      </trkpt>
      <trkpt lat="43.86553" lon="6.70645">
        <ele>1007</ele>
      </trkpt>
      <trkpt lat="43.86555" lon="6.7062">
        <ele>1006</ele>
      </trkpt>
      <trkpt lat="43.86566" lon="6.70599">
        <ele>1006</ele>
      </trkpt>
      <trkpt lat="43.8658" lon="6.70589">
        <ele>1006.8</ele>
      </trkpt>
      <trkpt lat="43.86594" lon="6.70588">
        <ele>1011</ele>
      </trkpt>
      <trkpt lat="43.86611" lon="6.70595">
        <ele>1014</ele>
      </trkpt>
      <trkpt lat="43.86621" lon="6.70596">
        <ele>1016</ele>
      </trkpt>
      <trkpt lat="43.86625" lon="6.70588">
        <ele>1015.7</ele>
      </trkpt>
      <trkpt lat="43.86622" lon="6.70579">
        <ele>1017</ele>
      </trkpt>
      <trkpt lat="43.86615" lon="6.70574">
        <ele>1016</ele>
      </trkpt>
      <trkpt lat="43.86604" lon="6.7057">
        <ele>1015</ele>
      </trkpt>
      <trkpt lat="43.86588" lon="6.70558">
        <ele>1015</ele>
      </trkpt>
      <trkpt lat="43.86575" lon="6.70551">
        <ele>1010</ele>
      </trkpt>
      <trkpt lat="43.86564" lon="6.70546">
        <ele>1010</ele>
      </trkpt>
      <trkpt lat="43.86551" lon="6.70545">
        <ele>1010</ele>
      </trkpt>
      <trkpt lat="43.86536" lon="6.70541">
        <ele>1010</ele>
      </trkpt>
      <trkpt lat="43.86527" lon="6.70537">
        <ele>1010</ele>
      </trkpt>
      <trkpt lat="43.86516" lon="6.70532">
        <ele>1010.8</ele>
      </trkpt>
      <trkpt lat="43.86508" lon="6.70544">
        <ele>1009</ele>
      </trkpt>
      <trkpt lat="43.86493" lon="6.70558">
        <ele>1010</ele>
      </trkpt>
      <trkpt lat="43.86462" lon="6.70578">
        <ele>1012</ele>
      </trkpt>
      <trkpt lat="43.86407" lon="6.70605">
        <ele>1010</ele>
      </trkpt>
      <trkpt lat="43.86364" lon="6.70628">
        <ele>1008</ele>
      </trkpt>
      <trkpt lat="43.86339" lon="6.70645">
        <ele>1006</ele>
      </trkpt>
      <trkpt lat="43.86317" lon="6.70655">
        <ele>1003.9</ele>
      </trkpt>
      <trkpt lat="43.86305" lon="6.70648">
        <ele>1004</ele>
      </trkpt>
      <trkpt lat="43.86286" lon="6.70617">
        <ele>1006</ele>
      </trkpt>
      <trkpt lat="43.86271" lon="6.70589">
        <ele>1007</ele>
      </trkpt>
      <trkpt lat="43.86257" lon="6.70576">
        <ele>1012</ele>
      </trkpt>
      <trkpt lat="43.86252" lon="6.70559">
        <ele>1016</ele>
      </trkpt>
      <trkpt lat="43.8625" lon="6.70545">
        <ele>1012</ele>
      </trkpt>
      <trkpt lat="43.86254" lon="6.70527">
        <ele>1020</ele>
      </trkpt>
      <trkpt lat="43.86256" lon="6.70513">
        <ele>1021.1</ele>
      </trkpt>
      <trkpt lat="43.86249" lon="6.70505">
        <ele>1019</ele>
      </trkpt>
      <trkpt lat="43.86242" lon="6.70509">
        <ele>1017.7</ele>
      </trkpt>
      <trkpt lat="43.86233" lon="6.70498">
        <ele>1023</ele>
      </trkpt>
      <trkpt lat="43.86225" lon="6.70485">
        <ele>1024</ele>
      </trkpt>
      <trkpt lat="43.86212" lon="6.70479">
        <ele>1025</ele>
      </trkpt>
      <trkpt lat="43.86201" lon="6.7048">
        <ele>1024</ele>
      </trkpt>
      <trkpt lat="43.86187" lon="6.70472">
        <ele>1024</ele>
      </trkpt>
      <trkpt lat="43.8617" lon="6.70458">
        <ele>1026</ele>
      </trkpt>
      <trkpt lat="43.86164" lon="6.70436">
        <ele>1027</ele>
      </trkpt>
      <trkpt lat="43.86158" lon="6.70413">
        <ele>1030.4</ele>
      </trkpt>
      <trkpt lat="43.86146" lon="6.70416">
        <ele>1030</ele>
      </trkpt>
      <trkpt lat="43.86135" lon="6.70412">
        <ele>1029</ele>
      </trkpt>
      <trkpt lat="43.86124" lon="6.70402">
        <ele>1028.6</ele>
      </trkpt>
      <trkpt lat="43.86115" lon="6.70378">
        <ele>1028</ele>
      </trkpt>
      <trkpt lat="43.86108" lon="6.70342">
        <ele>1026</ele>
      </trkpt>
      <trkpt lat="43.86106" lon="6.70309">
        <ele>1025</ele>
      </trkpt>
      <trkpt lat="43.86112" lon="6.70289">
        <ele>1026</ele>
      </trkpt>
      <trkpt lat="43.86125" lon="6.70267">
        <ele>1026.7</ele>
      </trkpt>
      <trkpt lat="43.86118" lon="6.70257">
        <ele>1025.5</ele>
      </trkpt>
      <trkpt lat="43.86102" lon="6.70249">
        <ele>1022</ele>
      </trkpt>
      <trkpt lat="43.86088" lon="6.70241">
        <ele>1020</ele>
      </trkpt>
      <trkpt lat="43.8608" lon="6.70233">
        <ele>1015</ele>
      </trkpt>
      <trkpt lat="43.86075" lon="6.70224">
        <ele>1014.7</ele>
      </trkpt>
      <trkpt lat="43.86071" lon="6.70201">
        <ele>1015</ele>
      </trkpt>
      <trkpt lat="43.86062" lon="6.70176">
        <ele>1017</ele>
      </trkpt>
      <trkpt lat="43.86058" lon="6.70136">
        <ele>1016.3</ele>
      </trkpt>
      <trkpt lat="43.86049" lon="6.70097">
        <ele>1015</ele>
      </trkpt>
      <trkpt lat="43.86047" lon="6.70054">
        <ele>1007</ele>
      </trkpt>
      <trkpt lat="43.86049" lon="6.70026">
        <ele>1004</ele>
      </trkpt>
      <trkpt lat="43.86046" lon="6.69985">
        <ele>992</ele>
      </trkpt>
      <trkpt lat="43.86046" lon="6.69964">
        <ele>990</ele>
      </trkpt>
      <trkpt lat="43.8604" lon="6.69945">
        <ele>988</ele>
      </trkpt>
      <trkpt lat="43.8602" lon="6.69921">
        <ele>986</ele>
      </trkpt>
      <trkpt lat="43.85991" lon="6.69891">
        <ele>979</ele>
      </trkpt>
      <trkpt lat="43.85965" lon="6.69858">
        <ele>976</ele>
      </trkpt>
      <trkpt lat="43.85942" lon="6.69832">
        <ele>971</ele>
      </trkpt>
      <trkpt lat="43.8591" lon="6.69814">
        <ele>967</ele>
      </trkpt>
      <trkpt lat="43.85894" lon="6.6981">
        <ele>967</ele>
      </trkpt>
      <trkpt lat="43.85885" lon="6.69817">
        <ele>967</ele>
      </trkpt>
      <trkpt lat="43.85852" lon="6.69808">
        <ele>966</ele>
      </trkpt>
      <trkpt lat="43.85832" lon="6.69802">
        <ele>964</ele>
      </trkpt>
      <trkpt lat="43.85819" lon="6.69801">
        <ele>964</ele>
      </trkpt>
      <trkpt lat="43.85815" lon="6.69803">
        <ele>964</ele>
      </trkpt>
      <trkpt lat="43.8581" lon="6.69813">
        <ele>964</ele>
      </trkpt>
      <trkpt lat="43.85804" lon="6.69833">
        <ele>961</ele>
      </trkpt>
      <trkpt lat="43.85798" lon="6.6986">
        <ele>961</ele>
      </trkpt>
      <trkpt lat="43.85792" lon="6.69885">
        <ele>962</ele>
      </trkpt>
      <trkpt lat="43.85784" lon="6.69898">
        <ele>961</ele>
      </trkpt>
      <trkpt lat="43.85777" lon="6.69908">
        <ele>960</ele>
      </trkpt>
      <trkpt lat="43.85766" lon="6.69924">
        <ele>961</ele>
      </trkpt>
      <trkpt lat="43.85762" lon="6.69937">
        <ele>962</ele>
      </trkpt>
      <trkpt lat="43.85764" lon="6.69951">
        <ele>963</ele>
      </trkpt>
      <trkpt lat="43.85764" lon="6.69965">
        <ele>963</ele>
      </trkpt>
      <trkpt lat="43.85765" lon="6.69978">
        <ele>963</ele>
      </trkpt>
      <trkpt lat="43.8576" lon="6.69991">
        <ele>960</ele>
      </trkpt>
      <trkpt lat="43.85757" lon="6.70001">
        <ele>959</ele>
      </trkpt>
      <trkpt lat="43.85759" lon="6.70012">
        <ele>962</ele>
      </trkpt>
      <trkpt lat="43.85758" lon="6.70021">
        <ele>963</ele>
      </trkpt>
      <trkpt lat="43.85747" lon="6.70037">
        <ele>955.7</ele>
      </trkpt>
      <trkpt lat="43.85742" lon="6.70053">
        <ele>956</ele>
      </trkpt>
      <trkpt lat="43.85738" lon="6.70066">
        <ele>955</ele>
      </trkpt>
      <trkpt lat="43.85731" lon="6.70076">
        <ele>955</ele>
      </trkpt>
      <trkpt lat="43.85721" lon="6.70085">
        <ele>954</ele>
      </trkpt>
      <trkpt lat="43.85713" lon="6.70093">
        <ele>954</ele>
      </trkpt>
      <trkpt lat="43.85706" lon="6.70098">
        <ele>954</ele>
      </trkpt>
      <trkpt lat="43.85701" lon="6.70104">
        <ele>953</ele>
      </trkpt>
      <trkpt lat="43.85697" lon="6.70111">
        <ele>953.2</ele>
      </trkpt>
      <trkpt lat="43.85694" lon="6.70129">
        <ele>953</ele>
      </trkpt>
      <trkpt lat="43.85693" lon="6.70144">
        <ele>952</ele>
      </trkpt>
      <trkpt lat="43.8569" lon="6.7016">
        <ele>951</ele>
      </trkpt>
      <trkpt lat="43.85689" lon="6.70176">
        <ele>951</ele>
      </trkpt>
      <trkpt lat="43.85687" lon="6.70192">
        <ele>951</ele>
      </trkpt>
      <trkpt lat="43.85685" lon="6.70204">
        <ele>951</ele>
      </trkpt>
      <trkpt lat="43.85684" lon="6.70213">
        <ele>950.8</ele>
      </trkpt>
      <trkpt lat="43.8568" lon="6.70227">
        <ele>950</ele>
      </trkpt>
      <trkpt lat="43.85672" lon="6.70244">
        <ele>946</ele>
      </trkpt>
      <trkpt lat="43.85666" lon="6.70257">
        <ele>945</ele>
      </trkpt>
      <trkpt lat="43.85661" lon="6.70271">
        <ele>947</ele>
      </trkpt>
      <trkpt lat="43.85656" lon="6.70284">
        <ele>948</ele>
      </trkpt>
      <trkpt lat="43.85651" lon="6.70297">
        <ele>949</ele>
      </trkpt>
      <trkpt lat="43.85649" lon="6.7031">
        <ele>948.9</ele>
      </trkpt>
      <trkpt lat="43.8565" lon="6.70329">
        <ele>948</ele>
      </trkpt>
      <trkpt lat="43.85655" lon="6.70352">
        <ele>949</ele>
      </trkpt>
      <trkpt lat="43.85666" lon="6.70391">
        <ele>948</ele>
      </trkpt>
      <trkpt lat="43.85679" lon="6.7041">
        <ele>942</ele>
      </trkpt>
      <trkpt lat="43.85694" lon="6.70429">
        <ele>943</ele>
      </trkpt>
      <trkpt lat="43.85703" lon="6.70441">
        <ele>944</ele>
      </trkpt>
      <trkpt lat="43.85714" lon="6.70453">
        <ele>945.1</ele>
      </trkpt>
      <trkpt lat="43.85719" lon="6.70471">
        <ele>946</ele>
      </trkpt>
      <trkpt lat="43.85724" lon="6.70503">
        <ele>947</ele>
      </trkpt>
      <trkpt lat="43.85716" lon="6.70515">
        <ele>946</ele>
      </trkpt>
      <trkpt lat="43.85704" lon="6.70521">
        <ele>945</ele>
      </trkpt>
      <trkpt lat="43.85695" lon="6.70531">
        <ele>944</ele>
      </trkpt>
      <trkpt lat="43.85687" lon="6.7055">
        <ele>943</ele>
      </trkpt>
      <trkpt lat="43.85684" lon="6.70576">
        <ele>941</ele>
      </trkpt>
      <trkpt lat="43.85685" lon="6.70607">
        <ele>941</ele>
      </trkpt>
      <trkpt lat="43.857" lon="6.70643">
        <ele>941.6</ele>
      </trkpt>
      <trkpt lat="43.85706" lon="6.70676">
        <ele>940</ele>
      </trkpt>
      <trkpt lat="43.85707" lon="6.70697">
        <ele>941</ele>
      </trkpt>
      <trkpt lat="43.85706" lon="6.7072">
        <ele>941</ele>
      </trkpt>
      <trkpt lat="43.85704" lon="6.70742">
        <ele>941</ele>
      </trkpt>
      <trkpt lat="43.85706" lon="6.70759">
        <ele>941</ele>
      </trkpt>
      <trkpt lat="43.85709" lon="6.70777">
        <ele>941</ele>
      </trkpt>
      <trkpt lat="43.85717" lon="6.7079">
        <ele>940.7</ele>
      </trkpt>
      <trkpt lat="43.85721" lon="6.70814">
        <ele>940</ele>
      </trkpt>
      <trkpt lat="43.85723" lon="6.70842">
        <ele>939</ele>
      </trkpt>
      <trkpt lat="43.85724" lon="6.70863">
        <ele>939</ele>
      </trkpt>
      <trkpt lat="43.85725" lon="6.70892">
        <ele>938</ele>
      </trkpt>
      <trkpt lat="43.85725" lon="6.70929">
        <ele>937</ele>
      </trkpt>
      <trkpt lat="43.85723" lon="6.70942">
        <ele>937</ele>
      </trkpt>
      <trkpt lat="43.85717" lon="6.70951">
        <ele>937.6</ele>
      </trkpt>
      <trkpt lat="43.85718" lon="6.70966">
        <ele>937</ele>
      </trkpt>
      <trkpt lat="43.85728" lon="6.7098">
        <ele>936</ele>
      </trkpt>
      <trkpt lat="43.85741" lon="6.70998">
        <ele>933</ele>
      </trkpt>
      <trkpt lat="43.8574" lon="6.71011">
        <ele>934</ele>
      </trkpt>
      <trkpt lat="43.85733" lon="6.71034">
        <ele>935</ele>
      </trkpt>
      <trkpt lat="43.85729" lon="6.71049">
        <ele>936</ele>
      </trkpt>
      <trkpt lat="43.85724" lon="6.71073">
        <ele>935</ele>
      </trkpt>
      <trkpt lat="43.85717" lon="6.71103">
        <ele>935.8</ele>
      </trkpt>
      <trkpt lat="43.85719" lon="6.71119">
        <ele>936</ele>
      </trkpt>
      <trkpt lat="43.85722" lon="6.71139">
        <ele>936</ele>
      </trkpt>
      <trkpt lat="43.85727" lon="6.71175">
        <ele>934</ele>
      </trkpt>
      <trkpt lat="43.85731" lon="6.71202">
        <ele>935</ele>
      </trkpt>
      <trkpt lat="43.85735" lon="6.71237">
        <ele>933</ele>
      </trkpt>
      <trkpt lat="43.85738" lon="6.71253">
        <ele>931</ele>
      </trkpt>
      <trkpt lat="43.85748" lon="6.71268">
        <ele>931.9</ele>
      </trkpt>
      <trkpt lat="43.8575" lon="6.71287">
        <ele>932</ele>
      </trkpt>
      <trkpt lat="43.85757" lon="6.71301">
        <ele>932</ele>
      </trkpt>
      <trkpt lat="43.8576" lon="6.71312">
        <ele>931</ele>
      </trkpt>
      <trkpt lat="43.85758" lon="6.71328">
        <ele>929</ele>
      </trkpt>
      <trkpt lat="43.85763" lon="6.71344">
        <ele>929</ele>
      </trkpt>
      <trkpt lat="43.85758" lon="6.7136">
        <ele>930</ele>
      </trkpt>
      <trkpt lat="43.85754" lon="6.71372">
        <ele>930</ele>
      </trkpt>
      <trkpt lat="43.8575" lon="6.71384">
        <ele>929.3</ele>
      </trkpt>
      <trkpt lat="43.85749" lon="6.71397">
        <ele>930</ele>
      </trkpt>
      <trkpt lat="43.85751" lon="6.71411">
        <ele>926</ele>
      </trkpt>
      <trkpt lat="43.85753" lon="6.71425">
        <ele>926</ele>
      </trkpt>
      <trkpt lat="43.85751" lon="6.71443">
        <ele>929</ele>
      </trkpt>
      <trkpt lat="43.85749" lon="6.71471">
        <ele>931</ele>
      </trkpt>
      <trkpt lat="43.85749" lon="6.71494">
        <ele>925</ele>
      </trkpt>
      <trkpt lat="43.85751" lon="6.7152">
        <ele>926</ele>
      </trkpt>
      <trkpt lat="43.85754" lon="6.7154">
        <ele>927</ele>
      </trkpt>
      <trkpt lat="43.8576" lon="6.71579">
        <ele>923</ele>
      </trkpt>
      <trkpt lat="43.85774" lon="6.71637">
        <ele>926</ele>
      </trkpt>
      <trkpt lat="43.85783" lon="6.71668">
        <ele>926</ele>
      </trkpt>
      <trkpt lat="43.85797" lon="6.71705">
        <ele>926.7</ele>
      </trkpt>
      <trkpt lat="43.85789" lon="6.71722">
        <ele>926</ele>
      </trkpt>
      <trkpt lat="43.85779" lon="6.71741">
        <ele>925</ele>
      </trkpt>
      <trkpt lat="43.85774" lon="6.71751">
        <ele>922</ele>
      </trkpt>
      <trkpt lat="43.85762" lon="6.71768">
        <ele>921</ele>
      </trkpt>
      <trkpt lat="43.85755" lon="6.7179">
        <ele>920</ele>
      </trkpt>
      <trkpt lat="43.85752" lon="6.71806">
        <ele>919</ele>
      </trkpt>
      <trkpt lat="43.85752" lon="6.71817">
        <ele>918</ele>
      </trkpt>
      <trkpt lat="43.85755" lon="6.71827">
        <ele>916.9</ele>
      </trkpt>
      <trkpt lat="43.85768" lon="6.71833">
        <ele>918</ele>
      </trkpt>
      <trkpt lat="43.85777" lon="6.71833">
        <ele>920</ele>
      </trkpt>
      <trkpt lat="43.85784" lon="6.71832">
        <ele>920.3</ele>
      </trkpt>
      <trkpt lat="43.85784" lon="6.71854">
        <ele>917</ele>
      </trkpt>
      <trkpt lat="43.8578" lon="6.71868">
        <ele>917</ele>
      </trkpt>
      <trkpt lat="43.85774" lon="6.71881">
        <ele>916</ele>
      </trkpt>
      <trkpt lat="43.85767" lon="6.71894">
        <ele>915.8</ele>
      </trkpt>
      <trkpt lat="43.85759" lon="6.71907">
        <ele>915</ele>
      </trkpt>
      <trkpt lat="43.85749" lon="6.71916">
        <ele>914</ele>
      </trkpt>
      <trkpt lat="43.85733" lon="6.71928">
        <ele>926.2</ele>
      </trkpt>
      <trkpt lat="43.85726" lon="6.71943">
        <ele>931</ele>
      </trkpt>
      <trkpt lat="43.85725" lon="6.71971">
        <ele>931</ele>
      </trkpt>
      <trkpt lat="43.85727" lon="6.72014">
        <ele>928</ele>
      </trkpt>
      <trkpt lat="43.85728" lon="6.72039">
        <ele>929</ele>
      </trkpt>
      <trkpt lat="43.8573" lon="6.72075">
        <ele>956.2</ele>
        <time>2018-09-09T10:38:55Z</time>
      </trkpt>
      <trkpt lat="43.85726" lon="6.7205">
        <ele>957.3</ele>
        <time>2018-09-09T10:39:00Z</time>
      </trkpt>
      <trkpt lat="43.85721" lon="6.72022">
        <ele>959.5</ele>
        <time>2018-09-09T10:39:06Z</time>
      </trkpt>
      <trkpt lat="43.85715" lon="6.71997">
        <ele>961.6</ele>
        <time>2018-09-09T10:39:12Z</time>
      </trkpt>
      <trkpt lat="43.85707" lon="6.7199">
        <ele>962.5</ele>
        <time>2018-09-09T10:39:15Z</time>
      </trkpt>
      <trkpt lat="43.85704" lon="6.72013">
        <ele>964.3</ele>
        <time>2018-09-09T10:39:22Z</time>
      </trkpt>
      <trkpt lat="43.85706" lon="6.72038">
        <ele>966</ele>
        <time>2018-09-09T10:39:27Z</time>
      </trkpt>
      <trkpt lat="43.85707" lon="6.72064">
        <ele>967.7</ele>
        <time>2018-09-09T10:39:32Z</time>
      </trkpt>
      <trkpt lat="43.85706" lon="6.7209">
        <ele>969.6</ele>
        <time>2018-09-09T10:39:37Z</time>
      </trkpt>
      <trkpt lat="43.85701" lon="6.72115">
        <ele>977</ele>
        <time>2018-09-09T10:39:42Z</time>
      </trkpt>
      <trkpt lat="43.85694" lon="6.72139">
        <ele>986.2</ele>
        <time>2018-09-09T10:39:47Z</time>
      </trkpt>
      <trkpt lat="43.85688" lon="6.72168">
        <ele>984.5</ele>
        <time>2018-09-09T10:39:53Z</time>
      </trkpt>
      <trkpt lat="43.85683" lon="6.72197">
        <ele>982.5</ele>
        <time>2018-09-09T10:39:59Z</time>
      </trkpt>
      <trkpt lat="43.85678" lon="6.72223">
        <ele>980.5</ele>
        <time>2018-09-09T10:40:05Z</time>
      </trkpt>
      <trkpt lat="43.85675" lon="6.72224">
        <ele>980.2</ele>
        <time>2018-09-09T10:40:06Z</time>
      </trkpt>
      <trkpt lat="43.85679" lon="6.72202">
        <ele>981.9</ele>
        <time>2018-09-09T10:40:12Z</time>
      </trkpt>
      <trkpt lat="43.85685" lon="6.72178">
        <ele>983.6</ele>
        <time>2018-09-09T10:40:17Z</time>
      </trkpt>
      <trkpt lat="43.8569" lon="6.72154">
        <ele>985.4</ele>
        <time>2018-09-09T10:40:22Z</time>
      </trkpt>
      <trkpt lat="43.85694" lon="6.72125">
        <ele>987.1</ele>
        <time>2018-09-09T10:40:28Z</time>
      </trkpt>
      <trkpt lat="43.857" lon="6.72099">
        <ele>989.3</ele>
        <time>2018-09-09T10:40:33Z</time>
      </trkpt>
      <trkpt lat="43.85702" lon="6.72074">
        <ele>990.6</ele>
        <time>2018-09-09T10:40:38Z</time>
      </trkpt>
      <trkpt lat="43.857" lon="6.72046">
        <ele>991.5</ele>
        <time>2018-09-09T10:40:44Z</time>
      </trkpt>
      <trkpt lat="43.8569" lon="6.72039">
        <ele>999.7</ele>
        <time>2018-09-09T10:40:46Z</time>
      </trkpt>
      <trkpt lat="43.85676" lon="6.72051">
        <ele>1007.8</ele>
        <time>2018-09-09T10:40:51Z</time>
      </trkpt>
      <trkpt lat="43.85671" lon="6.72077">
        <ele>1013.2</ele>
        <time>2018-09-09T10:40:56Z</time>
      </trkpt>
      <trkpt lat="43.85667" lon="6.72103">
        <ele>1015.7</ele>
        <time>2018-09-09T10:41:01Z</time>
      </trkpt>
      <trkpt lat="43.85661" lon="6.72127">
        <ele>1020</ele>
        <time>2018-09-09T10:41:06Z</time>
      </trkpt>
      <trkpt lat="43.85654" lon="6.72154">
        <ele>1017.9</ele>
        <time>2018-09-09T10:41:12Z</time>
      </trkpt>
      <trkpt lat="43.8565" lon="6.72184">
        <ele>1016</ele>
        <time>2018-09-09T10:41:18Z</time>
      </trkpt>
      <trkpt lat="43.85643" lon="6.7221">
        <ele>1014.2</ele>
        <time>2018-09-09T10:41:23Z</time>
      </trkpt>
      <trkpt lat="43.85639" lon="6.72235">
        <ele>1012.4</ele>
        <time>2018-09-09T10:41:28Z</time>
      </trkpt>
      <trkpt lat="43.85629" lon="6.72245">
        <ele>1011</ele>
        <time>2018-09-09T10:41:31Z</time>
      </trkpt>
      <trkpt lat="43.85634" lon="6.72226">
        <ele>1012.7</ele>
        <time>2018-09-09T10:41:36Z</time>
      </trkpt>
      <trkpt lat="43.85645" lon="6.72201">
        <ele>1014.7</ele>
        <time>2018-09-09T10:41:41Z</time>
      </trkpt>
      <trkpt lat="43.85648" lon="6.72174">
        <ele>1016.5</ele>
        <time>2018-09-09T10:41:46Z</time>
      </trkpt>
      <trkpt lat="43.85648" lon="6.72148">
        <ele>1018.3</ele>
        <time>2018-09-09T10:41:51Z</time>
      </trkpt>
      <trkpt lat="43.85657" lon="6.7212">
        <ele>1020.5</ele>
        <time>2018-09-09T10:41:56Z</time>
      </trkpt>
      <trkpt lat="43.85662" lon="6.72092">
        <ele>1022.8</ele>
        <time>2018-09-09T10:42:01Z</time>
      </trkpt>
      <trkpt lat="43.85662" lon="6.72066">
        <ele>1024.8</ele>
        <time>2018-09-09T10:42:06Z</time>
      </trkpt>
      <trkpt lat="43.85662" lon="6.7204">
        <ele>1026.6</ele>
        <time>2018-09-09T10:42:11Z</time>
      </trkpt>
      <trkpt lat="43.85658" lon="6.72014">
        <ele>1028.4</ele>
        <time>2018-09-09T10:42:16Z</time>
      </trkpt>
      <trkpt lat="43.85652" lon="6.71989">
        <ele>1030.5</ele>
        <time>2018-09-09T10:42:21Z</time>
      </trkpt>
      <trkpt lat="43.85645" lon="6.71963">
        <ele>1033.5</ele>
        <time>2018-09-09T10:42:26Z</time>
      </trkpt>
      <trkpt lat="43.85639" lon="6.71955">
        <ele>1034.5</ele>
        <time>2018-09-09T10:42:28Z</time>
      </trkpt>
      <trkpt lat="43.85628" lon="6.7197">
        <ele>1033.9</ele>
        <time>2018-09-09T10:42:33Z</time>
      </trkpt>
      <trkpt lat="43.85627" lon="6.71982">
        <ele>1033.7</ele>
        <time>2018-09-09T10:42:35Z</time>
      </trkpt>
      <trkpt lat="43.85626" lon="6.72012">
        <ele>1033.3</ele>
        <time>2018-09-09T10:42:40Z</time>
      </trkpt>
      <trkpt lat="43.85621" lon="6.72042">
        <ele>1033.1</ele>
        <time>2018-09-09T10:42:45Z</time>
      </trkpt>
      <trkpt lat="43.85616" lon="6.72066">
        <ele>1032.7</ele>
        <time>2018-09-09T10:42:49Z</time>
      </trkpt>
      <trkpt lat="43.85611" lon="6.72094">
        <ele>1032.4</ele>
        <time>2018-09-09T10:42:54Z</time>
      </trkpt>
      <trkpt lat="43.85605" lon="6.72122">
        <ele>1031.9</ele>
        <time>2018-09-09T10:42:59Z</time>
      </trkpt>
      <trkpt lat="43.85601" lon="6.72151">
        <ele>1031.4</ele>
        <time>2018-09-09T10:43:04Z</time>
      </trkpt>
      <trkpt lat="43.85598" lon="6.72179">
        <ele>1030.9</ele>
        <time>2018-09-09T10:43:09Z</time>
      </trkpt>
      <trkpt lat="43.856" lon="6.72207">
        <ele>1030.4</ele>
        <time>2018-09-09T10:43:15Z</time>
      </trkpt>
      <trkpt lat="43.85592" lon="6.72235">
        <ele>1030.1</ele>
        <time>2018-09-09T10:43:20Z</time>
      </trkpt>
      <trkpt lat="43.85581" lon="6.72258">
        <ele>1029.6</ele>
        <time>2018-09-09T10:43:24Z</time>
      </trkpt>
      <trkpt lat="43.85568" lon="6.7228">
        <ele>1028.8</ele>
        <time>2018-09-09T10:43:29Z</time>
      </trkpt>
      <trkpt lat="43.85555" lon="6.723">
        <ele>1028.1</ele>
        <time>2018-09-09T10:43:34Z</time>
      </trkpt>
      <trkpt lat="43.85555" lon="6.723">
        <ele>1028.1</ele>
        <time>2018-09-09T10:43:36Z</time>
      </trkpt>
      <trkpt lat="43.85541" lon="6.72321">
        <ele>998</ele>
      </trkpt>
      <trkpt lat="43.85524" lon="6.72344">
        <ele>995</ele>
      </trkpt>
      <trkpt lat="43.85506" lon="6.72371">
        <ele>993.7</ele>
      </trkpt>
      <trkpt lat="43.8549" lon="6.72412">
        <ele>1026.5</ele>
        <time>2018-09-09T10:43:57Z</time>
      </trkpt>
      <trkpt lat="43.85473" lon="6.72431">
        <ele>1026</ele>
        <time>2018-09-09T10:44:02Z</time>
      </trkpt>
      <trkpt lat="43.85458" lon="6.72448">
        <ele>1023.7</ele>
        <time>2018-09-09T10:44:07Z</time>
      </trkpt>
      <trkpt lat="43.85443" lon="6.72467">
        <ele>1022.4</ele>
        <time>2018-09-09T10:44:12Z</time>
      </trkpt>
      <trkpt lat="43.85429" lon="6.72485">
        <ele>1022.2</ele>
        <time>2018-09-09T10:44:16Z</time>
      </trkpt>
      <trkpt lat="43.85416" lon="6.72508">
        <ele>1022.2</ele>
        <time>2018-09-09T10:44:21Z</time>
      </trkpt>
      <trkpt lat="43.85406" lon="6.7253">
        <ele>1022.3</ele>
        <time>2018-09-09T10:44:25Z</time>
      </trkpt>
      <trkpt lat="43.854" lon="6.72553">
        <ele>1022.4</ele>
        <time>2018-09-09T10:44:29Z</time>
      </trkpt>
      <trkpt lat="43.85396" lon="6.72558">
        <ele>1022.4</ele>
        <time>2018-09-09T10:44:30Z</time>
      </trkpt>
      <trkpt lat="43.85376" lon="6.72573">
        <ele>1022.4</ele>
        <time>2018-09-09T10:44:35Z</time>
      </trkpt>
      <trkpt lat="43.85372" lon="6.72573">
        <ele>1022.4</ele>
        <time>2018-09-09T10:44:36Z</time>
      </trkpt>
      <trkpt lat="43.85352" lon="6.72576">
        <ele>1021.3</ele>
        <time>2018-09-09T10:44:41Z</time>
      </trkpt>
      <trkpt lat="43.8534" lon="6.72594">
        <ele>1020.7</ele>
        <time>2018-09-09T10:44:44Z</time>
      </trkpt>
      <trkpt lat="43.85329" lon="6.72611">
        <ele>1020.2</ele>
        <time>2018-09-09T10:44:50Z</time>
      </trkpt>
      <trkpt lat="43.85318" lon="6.72628">
        <ele>1019.6</ele>
        <time>2018-09-09T10:44:52Z</time>
      </trkpt>
      <trkpt lat="43.85308" lon="6.72648">
        <ele>1019</ele>
        <time>2018-09-09T10:44:54Z</time>
      </trkpt>
      <trkpt lat="43.85293" lon="6.72666">
        <ele>1018</ele>
        <time>2018-09-09T10:44:57Z</time>
      </trkpt>
      <trkpt lat="43.85272" lon="6.7268">
        <ele>1016.9</ele>
        <time>2018-09-09T10:45:01Z</time>
      </trkpt>
      <trkpt lat="43.85255" lon="6.72692">
        <ele>1016.1</ele>
        <time>2018-09-09T10:45:04Z</time>
      </trkpt>
      <trkpt lat="43.85232" lon="6.72708">
        <ele>1015.1</ele>
        <time>2018-09-09T10:45:08Z</time>
      </trkpt>
      <trkpt lat="43.85226" lon="6.72715">
        <ele>1014.8</ele>
        <time>2018-09-09T10:45:09Z</time>
      </trkpt>
      <trkpt lat="43.85207" lon="6.7273">
        <ele>1013.6</ele>
        <time>2018-09-09T10:45:13Z</time>
      </trkpt>
      <trkpt lat="43.85189" lon="6.72744">
        <ele>1013.3</ele>
        <time>2018-09-09T10:45:17Z</time>
      </trkpt>
      <trkpt lat="43.8517" lon="6.72757">
        <ele>1013.6</ele>
        <time>2018-09-09T10:45:20Z</time>
      </trkpt>
      <trkpt lat="43.8515" lon="6.72772">
        <ele>1013.8</ele>
        <time>2018-09-09T10:45:24Z</time>
      </trkpt>
      <trkpt lat="43.8513" lon="6.72787">
        <ele>1017.9</ele>
        <time>2018-09-09T10:45:29Z</time>
      </trkpt>
      <trkpt lat="43.85109" lon="6.72797">
        <ele>1019.5</ele>
        <time>2018-09-09T10:45:33Z</time>
      </trkpt>
      <trkpt lat="43.85091" lon="6.72809">
        <ele>1024.1</ele>
        <time>2018-09-09T10:45:37Z</time>
      </trkpt>
      <trkpt lat="43.8508" lon="6.72822">
        <ele>1027.6</ele>
        <time>2018-09-09T10:45:49Z</time>
      </trkpt>
      <trkpt lat="43.85086" lon="6.72855">
        <ele>1011.8</ele>
        <time>2018-09-09T10:45:56Z</time>
      </trkpt>
      <trkpt lat="43.85089" lon="6.72883">
        <ele>1001.4</ele>
        <time>2018-09-09T10:46:01Z</time>
      </trkpt>
      <trkpt lat="43.85089" lon="6.72898">
        <ele>997.7</ele>
        <time>2018-09-09T10:46:03Z</time>
      </trkpt>
      <trkpt lat="43.85108" lon="6.72925">
        <ele>999.9</ele>
        <time>2018-09-09T10:46:07Z</time>
      </trkpt>
      <trkpt lat="43.85129" lon="6.72955">
        <ele>1013.4</ele>
        <time>2018-09-09T10:46:12Z</time>
      </trkpt>
      <trkpt lat="43.85156" lon="6.72985">
        <ele>1014.5</ele>
        <time>2018-09-09T10:46:19Z</time>
      </trkpt>
      <trkpt lat="43.8515" lon="6.73012">
        <ele>1015</ele>
        <time>2018-09-09T10:46:25Z</time>
      </trkpt>
      <trkpt lat="43.85127" lon="6.73027">
        <ele>1015.6</ele>
        <time>2018-09-09T10:46:27Z</time>
      </trkpt>
      <trkpt lat="43.85102" lon="6.73044">
        <ele>1016.2</ele>
        <time>2018-09-09T10:46:29Z</time>
      </trkpt>
      <trkpt lat="43.85078" lon="6.7306">
        <ele>1016.8</ele>
        <time>2018-09-09T10:46:32Z</time>
      </trkpt>
      <trkpt lat="43.85052" lon="6.73076">
        <ele>1017.5</ele>
        <time>2018-09-09T10:46:35Z</time>
      </trkpt>
      <trkpt lat="43.85028" lon="6.73089">
        <ele>1018.1</ele>
        <time>2018-09-09T10:46:38Z</time>
      </trkpt>
      <trkpt lat="43.85009" lon="6.73104">
        <ele>1018.6</ele>
        <time>2018-09-09T10:46:42Z</time>
      </trkpt>
      <trkpt lat="43.85" lon="6.73121">
        <ele>1019</ele>
        <time>2018-09-09T10:46:48Z</time>
      </trkpt>
      <trkpt lat="43.84979" lon="6.73122">
        <ele>1019.6</ele>
        <time>2018-09-09T10:46:50Z</time>
      </trkpt>
      <trkpt lat="43.84952" lon="6.73124">
        <ele>1020.5</ele>
        <time>2018-09-09T10:46:52Z</time>
      </trkpt>
      <trkpt lat="43.84929" lon="6.73124">
        <ele>1020.5</ele>
        <time>2018-09-09T10:46:55Z</time>
      </trkpt>
      <trkpt lat="43.84909" lon="6.73116">
        <ele>1020.2</ele>
        <time>2018-09-09T10:46:59Z</time>
      </trkpt>
      <trkpt lat="43.84892" lon="6.73105">
        <ele>1020.6</ele>
        <time>2018-09-09T10:47:03Z</time>
      </trkpt>
      <trkpt lat="43.84874" lon="6.73095">
        <ele>1023.9</ele>
        <time>2018-09-09T10:47:07Z</time>
      </trkpt>
      <trkpt lat="43.84856" lon="6.73082">
        <ele>1027.4</ele>
        <time>2018-09-09T10:47:11Z</time>
      </trkpt>
      <trkpt lat="43.8484" lon="6.73068">
        <ele>1031.2</ele>
        <time>2018-09-09T10:47:15Z</time>
      </trkpt>
      <trkpt lat="43.84825" lon="6.7305">
        <ele>1031.7</ele>
        <time>2018-09-09T10:47:19Z</time>
      </trkpt>
      <trkpt lat="43.84814" lon="6.73029">
        <ele>1031.5</ele>
        <time>2018-09-09T10:47:23Z</time>
      </trkpt>
      <trkpt lat="43.84803" lon="6.73007">
        <ele>1031.5</ele>
        <time>2018-09-09T10:47:27Z</time>
      </trkpt>
      <trkpt lat="43.84792" lon="6.72986">
        <ele>1031.5</ele>
        <time>2018-09-09T10:47:31Z</time>
      </trkpt>
      <trkpt lat="43.8478" lon="6.72965">
        <ele>1031.4</ele>
        <time>2018-09-09T10:47:35Z</time>
      </trkpt>
      <trkpt lat="43.84768" lon="6.72945">
        <ele>1031.2</ele>
        <time>2018-09-09T10:47:39Z</time>
      </trkpt>
      <trkpt lat="43.84756" lon="6.72924">
        <ele>1031.1</ele>
        <time>2018-09-09T10:47:43Z</time>
      </trkpt>
      <trkpt lat="43.84745" lon="6.72904">
        <ele>1031</ele>
        <time>2018-09-09T10:47:47Z</time>
      </trkpt>
      <trkpt lat="43.84733" lon="6.72882">
        <ele>1031</ele>
        <time>2018-09-09T10:47:51Z</time>
      </trkpt>
      <trkpt lat="43.84722" lon="6.72862">
        <ele>1031</ele>
        <time>2018-09-09T10:47:55Z</time>
      </trkpt>
      <trkpt lat="43.84707" lon="6.72843">
        <ele>1033.7</ele>
        <time>2018-09-09T10:48:00Z</time>
      </trkpt>
      <trkpt lat="43.847" lon="6.72818">
        <ele>1036.2</ele>
        <time>2018-09-09T10:48:06Z</time>
      </trkpt>
      <trkpt lat="43.84699" lon="6.72815">
        <ele>1036.4</ele>
        <time>2018-09-09T10:48:09Z</time>
      </trkpt>
    </trkseg>
  </trk>
</gpx>